[[{"header":{"parameterUnit":"m.s-1","parameterCategory":1,"la1":30.6,"la2":28.766,"lo1":-90.7593,"lo2":-88.6598,"dy":0.0162,"dx":0.0183,"nx":116,"ny":114,"refTime":"2024-03-16T06:00:00:Z","depth":0,"parameterNumber":2,"parameterNumberName":"U-component_of_WINDS"},"data":[0.0,0.0,0.0,0.0,0.0,0.0,0.0,0.0,0.0,0.0,0.0,0.0,0.0,0.0,0.0,0.0,0.0,0.0,0.0,0.0,0.0,0.0,0.0,0.0,0.0,0.0,0.0,0.0,0.0,0.0,0.0,0.0,0.0,0.0,0.0,0.0,0.0,0.0,0.0,0.0,0.0,0.0,0.0,0.0,0.0,0.0,0.0,0.0,0.0,0.0,0.0,0.0,0.0,0.0,0.0,0.0,0.0,0.0,0.0,0.0,0.0,0.0,0.0,0.0,0.0,0.0,0.0,0.0,0.0,0.0,0.0,0.0,0.0,0.0,0.0,0.0,0.0,0.0,0.0,0.0,0.0,0.0,0.0,0.0,0.0,0.0,0.0,0.0,0.0,0.0,0.0,0.0,0.0,0.0,0.0,0.0,0.0,0.0,0.0,0.0,0.0,0.0,0.0,0.0,0.0,0.0,0.0,0.0,0.0,0.0,0.0,0.0,0.0,0.0,0.0,0.0,0.0,0.0,0.0,0.0,0.0,0.0,0.0,0.0,0.0,0.0,0.0,0.0,0.0,0.0,0.0,0.0,0.0,0.0,0.0,0.0,0.0,0.0,0.0,0.0,0.0,0.0,0.0,0.0,0.0,0.0,0.0,0.0,0.0,0.0,0.0,0.0,0.0,0.0,0.0,0.0,0.0,0.0,0.0,0.0,0.0,0.0,0.0,0.0,0.0,0.0,0.0,0.0,0.0,0.0,0.0,0.0,0.0,0.0,0.0,0.0,0.0,0.0,0.0,0.0,0.0,0.0,0.0,0.0,0.0,0.0,0.0,0.0,0.0,0.0,0.0,0.0,0.0,0.0,0.0,0.0,0.0,0.0,0.0,0.0,0.0,0.0,0.0,0.0,0.0,0.0,0.0,0.0,0.0,0.0,0.0,0.0,0.0,0.0,0.0,0.0,0.0,0.0,0.0,0.0,0.0,0.0,0.0,0.0,0.0,0.0,0.0,0.0,0.0,0.0,0.0,0.0,0.0,0.0,0.0,0.0,0.0,0.0,0.0,0.0,0.0,0.0,0.0,0.0,0.0,0.0,0.0,0.0,0.0,0.0,0.0,0.0,0.0,0.0,0.0,0.0,0.0,0.0,0.0,0.0,0.0,0.0,0.0,0.0,0.0,0.0,0.0,0.0,0.0,0.0,0.0,0.0,0.0,0.0,0.0,0.0,0.0,0.0,0.0,0.0,0.0,0.0,0.0,0.0,0.0,0.0,0.0,0.0,0.0,0.0,0.0,0.0,0.0,0.0,0.0,0.0,0.0,0.0,0.0,0.0,0.0,0.0,0.0,0.0,0.0,0.0,0.0,0.0,0.0,0.0,0.0,0.0,0.0,0.0,0.0,0.0,0.0,0.0,0.0,0.0,0.0,0.0,0.0,0.0,0.0,0.0,0.0,0.0,0.0,0.0,0.0,0.0,0.0,0.0,0.0,0.0,0.0,0.0,0.0,0.0,0.0,0.0,0.0,0.0,0.0,0.0,0.0,0.0,0.0,0.0,0.0,0.0,0.0,0.0,0.0,0.0,0.0,0.0,0.0,0.0,0.0,0.0,0.0,0.0,0.0,0.0,0.0,0.0,0.0,0.0,0.0,0.0,0.0,0.0,0.0,0.0,0.0,0.0,0.0,0.0,0.0,0.0,0.0,0.0,0.0,0.0,0.0,0.0,0.0,0.0,0.0,0.0,0.0,0.0,0.0,0.0,0.0,0.0,0.0,0.0,0.0,0.0,0.0,0.0,0.0,0.0,0.0,0.0,0.0,0.0,0.0,0.0,0.0,0.0,0.0,0.0,0.0,0.0,0.0,0.0,0.0,0.0,0.0,0.0,0.0,0.0,0.0,0.0,0.0,0.0,0.0,0.0,0.0,0.0,0.0,0.0,0.0,0.0,0.0,0.0,0.0,0.0,0.0,0.0,0.0,0.0,0.0,0.0,0.0,0.0,0.0,0.0,0.0,0.0,0.0,0.0,0.0,0.0,0.0,0.0,0.0,0.0,0.0,0.0,0.0,0.0,0.0,0.0,0.0,0.0,0.0,0.0,0.0,0.0,0.0,0.0,0.0,0.0,0.0,0.0,0.0,0.0,0.0,0.0,0.0,0.0,0.0,0.0,0.0,0.0,0.0,0.0,0.0,0.0,0.0,0.0,0.0,0.0,0.0,0.0,0.0,0.0,0.0,0.0,0.0,0.0,0.0,0.0,0.0,0.0,0.0,0.0,0.0,0.0,0.0,0.0,0.0,0.0,0.0,0.0,0.0,0.0,0.0,0.0,0.0,0.0,0.0,0.0,0.0,0.0,0.0,0.0,0.0,0.0,0.0,0.0,0.0,0.0,0.0,0.0,0.0,0.0,0.0,0.0,0.0,0.0,0.0,0.0,0.0,0.0,0.0,0.0,0.0,0.0,0.0,0.0,0.0,0.0,0.0,0.0,0.0,0.0,0.0,0.0,0.0,0.0,0.0,0.0,0.0,0.0,0.0,0.0,0.0,0.0,0.0,0.0,0.0,0.0,0.0,0.0,0.0,0.0,0.0,0.0,0.0,0.0,0.0,0.0,0.0,0.0,0.0,0.0,0.0,0.0,0.0,0.0,0.0,0.0,0.0,0.0,0.0,0.0,0.0,0.0,0.0,0.0,0.0,0.0,0.0,0.0,0.0,0.0,0.0,0.0,0.0,0.0,0.0,0.0,0.0,0.0,0.0,0.0,0.0,0.0,0.0,0.0,0.0,0.0,0.0,0.0,0.0,0.0,0.0,0.0,0.0,0.0,0.0,0.0,0.0,0.0,0.0,0.0,0.0,0.0,0.0,0.0,0.0,0.0,0.0,0.0,0.0,0.0,0.0,0.0,0.0,0.0,0.0,0.0,0.0,0.0,0.0,0.0,0.0,0.0,0.0,0.0,0.0,0.0,0.0,0.0,0.0,0.0,0.0,0.0,0.0,0.0,0.0,0.0,0.0,0.0,0.0,0.0,0.0,0.0,0.0,0.0,0.0,0.0,0.0,0.0,0.0,0.0,0.0,0.0,0.0,0.0,0.0,0.0,0.0,0.0,0.0,0.0,0.0,0.0,0.0,0.0,0.0,0.0,0.0,0.0,0.0,0.0,0.0,0.0,0.0,0.0,0.0,0.0,0.0,0.0,0.0,0.0,0.0,0.0,0.0,0.0,0.0,0.0,0.0,0.0,0.0,0.0,0.0,0.0,0.0,0.0,0.0,0.0,0.0,0.0,0.0,0.0,0.0,0.0,0.0,0.0,0.0,0.0,0.0,0.0,0.0,0.0,0.0,0.0,0.0,0.0,0.0,0.0,0.0,0.0,0.0,0.0,0.0,0.0,0.0,0.0,0.0,0.0,0.0,0.0,0.0,0.0,0.0,0.0,0.0,0.0,0.0,0.0,0.0,0.0,0.0,0.0,0.0,0.0,0.0,0.0,0.0,0.0,0.0,0.0,0.0,0.0,0.0,0.0,0.0,0.0,0.0,0.0,0.0,0.0,0.0,0.0,0.0,0.0,0.0,0.0,0.0,0.0,0.0,0.0,0.0,0.0,0.0,0.0,0.0,0.0,0.0,0.0,0.0,0.0,0.0,0.0,0.0,0.0,0.0,0.0,0.0,0.0,0.0,0.0,0.0,0.0,0.0,0.0,0.0,0.0,0.0,0.0,0.0,0.0,0.0,0.0,0.0,0.0,0.0,0.0,0.0,0.0,0.0,0.0,0.0,0.0,0.0,0.0,0.0,0.0,0.0,0.0,0.0,0.0,0.0,0.0,0.0,0.0,0.0,0.0,0.0,0.0,0.0,0.0,0.0,0.0,0.0,0.0,0.0,0.0,0.0,0.0,0.0,0.0,0.0,0.0,0.0,0.0,0.0,0.0,0.0,0.0,0.0,0.0,0.0,0.0,0.0,0.0,0.0,0.0,0.0,0.0,0.0,0.0,0.0,0.0,0.0,0.0,0.0,0.0,0.0,0.0,0.0,0.0,0.0,0.0,0.0,0.0,0.0,0.0,0.0,0.0,0.0,0.0,0.0,0.0,0.0,0.0,0.0,0.0,0.0,0.0,0.0,0.0,0.0,0.0,0.0,0.0,0.0,0.0,0.0,0.0,0.0,0.0,0.0,0.0,0.0,0.0,0.0,0.0,0.0,0.0,0.0,0.0,0.0,0.0,0.0,0.0,0.0,0.0,0.0,0.0,0.0,0.0,0.0,0.0,0.0,0.0,0.0,0.0,0.0,0.0,0.0,0.0,0.0,0.0,0.0,0.0,0.0,0.0,0.0,0.0,0.0,0.0,0.0,0.0,0.0,0.0,0.0,0.0,0.0,0.0,0.0,0.0,0.0,0.0,0.0,0.0,0.0,0.0,0.0,0.0,0.0,0.0,0.0,0.0,0.0,0.0,0.0,0.0,0.0,0.0,0.0,0.0,0.0,0.0,0.0,0.0,0.0,0.0,0.0,0.0,0.0,0.0,0.0,0.0,0.0,0.0,0.0,0.0,0.0,0.0,0.0,0.0,0.0,0.0,0.0,0.0,0.0,0.0,0.0,0.0,0.0,0.0,0.0,0.0,0.0,0.0,0.0,0.0,0.0,0.0,0.0,0.0,0.0,0.0,0.0,0.0,0.0,0.0,0.0,0.0,0.0,0.0,0.0,0.0,0.0,0.0,0.0,0.0,0.0,0.0,0.0,0.0,0.0,0.0,0.0,0.0,0.0,0.0,0.0,0.0,0.0,0.0,0.0,0.0,0.0,0.0,0.0,0.0,0.0,0.0,0.0,0.0,0.0,0.0,0.0,0.0,0.0,0.0,0.0,0.0,0.0,0.0,0.0,0.0,0.0,0.0,0.0,0.0,0.0,0.0,0.0,0.0,0.0,0.0,0.0,0.0,0.0,0.0,0.0,0.0,0.0,0.0,0.0,0.0,0.0,0.0,0.0,0.0,0.0,0.0,0.0,0.0,0.0,0.0,0.0,0.0,0.0,0.0,0.0,0.0,0.0,0.0,0.0,0.0,0.0,0.0,0.0,0.0,0.0,0.0,0.0,0.0,0.0,0.0,0.0,0.0,0.0,0.0,0.0,0.0,0.0,0.0,0.0,0.0,0.0,0.0,0.0,0.0,0.0,0.0,0.0,0.0,0.0,0.0,0.0,0.0,0.0,0.0,0.0,0.0,0.0,0.0,0.0,0.0,0.0,0.0,0.0,0.0,0.0,0.0,0.0,0.0,0.0,0.0,0.0,0.0,0.0,0.0,0.0,0.0,0.0,0.0,0.0,0.0,0.0,0.0,0.0,0.0,0.0,0.0,0.0,0.0,0.0,0.0,0.0,0.0,0.0,0.0,0.0,0.0,0.0,0.0,0.0,0.0,0.0,0.0,0.0,0.0,0.0,0.0,0.0,0.0,0.0,0.0,0.0,0.0,0.0,0.0,0.0,0.0,0.0,0.0,0.0,0.0,0.0,0.0,0.0,0.0,0.0,0.0,0.0,0.0,0.0,0.0,0.0,0.0,0.0,0.0,0.0,0.0,0.0,0.0,0.0,0.0,0.0,0.0,0.0,0.0,0.0,0.0,0.0,0.0,0.0,0.0,0.0,0.0,0.0,0.0,0.0,0.0,0.0,0.0,0.0,0.0,0.0,0.0,0.0,0.0,0.0,0.0,0.0,0.0,0.0,0.0,0.0,0.0,0.0,0.0,0.0,0.0,0.0,0.0,0.0,0.0,0.0,0.0,0.0,0.0,0.0,0.0,0.0,0.0,0.0,0.0,0.0,0.0,0.0,0.0,0.0,0.0,0.0,0.0,0.0,0.0,0.0,0.0,0.0,0.0,0.0,0.0,0.0,0.0,0.0,0.0,0.0,0.0,0.0,0.0,0.0,0.0,0.0,0.0,0.0,0.0,0.0,0.0,0.0,0.0,0.0,0.0,0.0,0.0,0.0,0.0,0.0,0.0,0.0,0.0,0.0,0.0,0.0,0.0,0.0,0.0,0.0,0.0,0.0,0.0,0.0,0.0,0.0,0.0,0.0,0.0,0.0,0.0,0.0,0.0,0.0,0.0,0.0,0.0,-1.0271,0.0,0.0,0.0,0.0,0.0,0.0,0.0,0.0,0.0,0.0,0.0,0.0,0.0,0.0,0.0,0.0,0.0,0.0,0.0,0.0,0.0,0.0,0.0,0.0,0.0,0.0,0.0,-1.2829,-1.2885,-1.2995,-1.2995,-1.3067,-1.3191,-1.3174,-1.3192,-1.3295,-1.3666,-1.409,-1.4605,-1.5089,-1.5748,-1.6532,-1.7152,-1.6834,-1.5802,0.0,0.0,0.0,0.0,0.0,0.0,0.0,0.0,0.0,0.0,0.0,0.0,0.0,0.0,0.0,0.0,0.0,0.0,0.0,0.0,0.0,0.0,0.0,0.0,0.0,0.0,0.0,0.0,0.0,0.0,0.0,0.0,0.0,0.0,0.0,0.0,0.0,0.0,0.0,0.0,0.0,0.0,0.0,0.0,0.0,0.0,0.0,0.0,0.0,0.0,0.0,0.0,0.0,0.0,0.0,0.0,0.0,0.0,0.0,0.0,0.0,0.0,0.0,0.0,0.0,0.0,0.0,0.0,0.0,0.0,0.0,-1.0329,0.0,0.0,0.0,0.0,0.0,0.0,0.0,0.0,0.0,0.0,0.0,0.0,0.0,0.0,0.0,0.0,0.0,0.0,0.0,0.0,0.0,0.0,0.0,-1.2399,-1.2629,-1.2899,-1.3046,-1.3205,-1.3376,-1.3468,-1.3576,-1.3682,-1.363,-1.358,-1.3531,-1.4167,-1.4471,-1.4481,-1.5588,-1.7001,-1.8598,-1.8658,-1.7679,-1.5902,-1.6413,0.0,0.0,0.0,0.0,0.0,0.0,0.0,0.0,0.0,0.0,0.0,0.0,0.0,0.0,0.0,0.0,0.0,0.0,0.0,0.0,0.0,0.0,0.0,0.0,0.0,0.0,0.0,0.0,0.0,0.0,0.0,0.0,0.0,0.0,0.0,0.0,0.0,0.0,0.0,0.0,0.0,0.0,0.0,0.0,0.0,0.0,0.0,0.0,0.0,0.0,0.0,0.0,0.0,0.0,0.0,0.0,0.0,0.0,0.0,0.0,0.0,0.0,0.0,-1.2487,-1.2354,-1.2253,-1.2247,-1.1779,-1.0942,-1.0649,-1.0277,-0.9869,0.0,0.0,0.0,0.0,0.0,0.0,0.0,0.0,0.0,0.0,0.0,0.0,0.0,0.0,0.0,0.0,0.0,0.0,0.0,0.0,0.0,0.0,-1.2506,-1.2925,-1.3769,-1.3936,-1.4294,-1.4961,-1.5111,-1.5174,-1.5216,-1.5196,-1.4855,-1.4122,-1.4847,-1.4933,-1.4329,-1.6213,-1.792,-1.9447,-1.9672,-1.9513,-1.8994,-1.8336,-1.7609,-1.687,0.0,0.0,0.0,0.0,0.0,0.0,0.0,0.0,0.0,0.0,0.0,0.0,0.0,0.0,0.0,0.0,0.0,0.0,0.0,0.0,0.0,0.0,0.0,0.0,0.0,0.0,0.0,0.0,0.0,0.0,0.0,0.0,0.0,0.0,0.0,0.0,0.0,0.0,0.0,0.0,0.0,-1.1609,-1.2733,0.0,0.0,0.0,0.0,0.0,0.0,0.0,0.0,0.0,0.0,0.0,0.0,0.0,0.0,-1.3651,-1.3756,-1.3745,-1.3609,-1.2852,-1.2452,-1.2385,-1.2426,-1.1973,-1.1158,-1.111,0.0,-1.0763,-1.0154,0.0,0.0,0.0,0.0,0.0,0.0,0.0,0.0,0.0,0.0,0.0,0.0,0.0,0.0,0.0,0.0,0.0,0.0,0.0,0.0,0.0,-1.3327,-1.3847,-1.3783,-1.5605,-1.6216,-1.4989,-1.6082,-1.6353,-1.5375,-1.5439,-1.5325,-1.4947,-1.5653,-1.6114,-1.6273,-1.8159,-1.9673,-2.08,-2.1089,-2.1542,-2.201,-2.0767,-1.9477,-1.8181,-1.7325,0.0,0.0,0.0,0.0,0.0,0.0,0.0,0.0,0.0,0.0,0.0,0.0,0.0,0.0,0.0,0.0,0.0,0.0,0.0,0.0,0.0,0.0,0.0,0.0,0.0,0.0,0.0,0.0,0.0,0.0,0.0,0.0,0.0,0.0,0.0,0.0,0.0,0.0,0.0,-1.2,-1.2699,-1.3512,-1.3328,-1.3431,0.0,0.0,0.0,0.0,0.0,0.0,0.0,0.0,0.0,-1.411,-1.406,-1.38,-1.3268,-1.3276,-1.324,-1.3182,-1.2793,-1.261,-1.2569,-1.2594,-1.2149,-1.1303,-1.1347,-1.1063,-1.0554,-1.054,-1.064,-1.0774,0.0,0.0,0.0,0.0,0.0,-0.9412,0.0,0.0,0.0,0.0,0.0,0.0,0.0,0.0,0.0,0.0,0.0,0.0,-1.2993,-1.4427,-1.5239,-1.4945,-1.7283,-1.7895,-1.5787,-1.7003,-1.721,-1.5873,-1.5967,-1.5963,-1.5741,-1.6239,-1.7205,-1.865,-1.9964,-2.122,-2.2404,-2.2816,-2.3547,-2.4479,-2.3351,-2.1662,-1.9593,-1.8078,-1.7181,-1.6659,0.0,0.0,0.0,0.0,0.0,0.0,0.0,0.0,0.0,0.0,0.0,0.0,0.0,0.0,0.0,0.0,0.0,0.0,0.0,0.0,0.0,0.0,0.0,0.0,0.0,0.0,0.0,0.0,0.0,0.0,0.0,0.0,0.0,0.0,0.0,0.0,0.0,-1.2715,-1.3107,-1.3996,-1.3212,-1.3065,0.0,0.0,0.0,0.0,0.0,0.0,-1.5724,-1.5513,-1.5103,-1.4456,-1.4219,-1.3755,-1.3072,-1.3257,-1.3365,-1.3364,-1.3345,-1.3335,-1.3335,-1.3361,-1.2762,-1.1741,-1.1819,-1.125,-1.0265,-1.0687,-1.0592,-1.0218,-1.0538,-1.0354,-0.9873,-0.9658,-0.9535,-0.9412,0.0,0.0,0.0,0.0,0.0,0.0,0.0,0.0,0.0,0.0,0.0,-1.295,-1.4519,-1.5775,-1.7043,-1.8416,-1.8819,-1.8836,-1.8533,-1.8057,-1.7693,-1.7489,-1.7563,-1.7205,-1.6365,-1.6442,-1.797,-2.0945,-2.0957,-2.2105,-2.4275,-2.4929,-2.5509,-2.6002,-2.5912,-2.4116,-2.1002,-1.9508,-1.8087,-1.6778,-1.6618,0.0,0.0,0.0,0.0,0.0,0.0,0.0,0.0,0.0,0.0,0.0,0.0,0.0,0.0,0.0,0.0,0.0,0.0,0.0,0.0,0.0,0.0,0.0,0.0,0.0,0.0,0.0,0.0,0.0,0.0,0.0,0.0,0.0,0.0,0.0,0.0,0.0,0.0,-1.3084,-1.1591,0.0,0.0,0.0,0.0,-1.529,-1.6091,-1.6554,-1.6628,-1.5857,-1.539,-1.5337,-1.4522,-1.4072,-1.4024,-1.4781,-1.5174,-1.5177,-1.5094,-1.5074,-1.508,-1.5136,-1.4237,-1.2631,-1.2767,-1.1875,-1.0293,-1.0266,-1.0641,-1.1149,-1.0344,-1.041,-1.0815,-0.9921,-0.9559,-0.9481,0.0,0.0,0.0,0.0,0.0,0.0,0.0,0.0,-1.1574,-1.2129,-1.3061,-1.4307,-1.5984,-1.8079,-1.9527,-1.992,-2.153,-2.1776,-1.991,-1.9837,-1.9336,-1.8187,-1.7673,-1.7588,-1.7869,-1.8464,-1.9782,-2.1877,-2.2539,-2.3935,-2.5941,-2.6147,-2.6583,-2.7237,-2.6507,-2.5351,-2.3909,-2.1913,-2.0638,-1.9745,-1.7285,-1.6362,0.0,0.0,0.0,0.0,0.0,0.0,0.0,0.0,0.0,0.0,0.0,0.0,0.0,0.0,0.0,0.0,0.0,0.0,0.0,0.0,0.0,0.0,0.0,0.0,0.0,0.0,0.0,0.0,0.0,0.0,0.0,0.0,0.0,0.0,0.0,0.0,0.0,-1.4177,-1.3257,0.0,-1.4478,-1.5039,-1.5535,-1.6074,-1.6895,-1.7405,-1.7461,-1.7184,-1.6773,-1.6248,-1.5937,-1.5504,-1.4945,-1.5175,-1.5294,-1.5298,-1.5229,-1.5189,-1.5176,-1.4683,-1.3826,-1.2673,-1.224,-1.1387,-1.0293,-1.0271,-1.0376,-1.0498,-1.0198,-1.0153,-1.0257,-0.9875,-0.9721,-0.9666,0.0,0.0,0.0,0.0,0.0,0.0,0.0,0.0,-1.167,-1.2634,-1.4,-1.5639,-1.7639,-2.0179,-2.1697,-2.1566,-2.2921,-2.274,-2.0343,-1.9957,-1.931,-1.8094,-1.7906,-1.8477,-1.9855,-2.0473,-2.1532,-2.3038,-2.3869,-2.506,-2.6581,-2.6682,-2.7268,-2.8222,-2.7216,-2.6757,-2.6613,-2.4593,-2.2863,-2.1305,-1.8521,-1.7671,-1.7813,0.0,0.0,0.0,0.0,0.0,0.0,0.0,0.0,0.0,0.0,0.0,0.0,0.0,0.0,0.0,0.0,0.0,0.0,0.0,0.0,0.0,0.0,0.0,0.0,0.0,0.0,0.0,0.0,0.0,0.0,0.0,0.0,0.0,0.0,0.0,-1.4231,-1.5248,-1.4471,-1.4433,-1.5875,-1.6327,-1.6654,-1.691,-1.7751,-1.8264,-1.8305,-1.8291,-1.8063,-1.7556,-1.697,-1.6406,-1.5833,-1.5502,-1.534,-1.5329,-1.5275,-1.5226,-1.5212,-1.4681,-1.3989,-1.3121,-1.2379,-1.1543,-1.0703,-1.041,-1.0201,-1.0125,-1.0103,-1.0024,-0.9881,-0.9825,-0.9777,-0.9754,0.0,0.0,0.0,0.0,0.0,0.0,0.0,-1.1399,-1.1806,-1.2976,-1.4726,-1.6873,-1.9482,-2.195,-2.3427,-2.346,-2.275,-2.1602,-1.998,-1.8393,-1.7505,-1.7428,-1.836,-1.9916,-2.2141,-2.2299,-2.3054,-2.4506,-2.4837,-2.5421,-2.6224,-2.6542,-2.7511,-2.8935,-2.8205,-2.8264,-2.8865,-2.7335,-2.4607,-2.1245,-2.0407,-1.9547,-1.8642,0.0,0.0,0.0,0.0,0.0,0.0,0.0,0.0,0.0,0.0,0.0,0.0,0.0,0.0,0.0,0.0,0.0,0.0,0.0,0.0,0.0,0.0,0.0,0.0,0.0,0.0,0.0,0.0,0.0,0.0,0.0,0.0,0.0,-1.4937,-1.4227,-1.4512,-1.615,-1.5034,-1.5097,-1.7545,-1.7115,-1.6984,-1.7769,-1.8636,-1.9126,-1.913,-1.913,-1.9156,-1.9195,-1.7554,-1.6688,-1.6699,-1.5853,-1.5433,-1.5394,-1.5329,-1.5292,-1.5296,-1.5277,-1.4844,-1.4046,-1.3221,-1.2383,-1.1523,-1.0582,-1.0197,-1.0191,-1.0125,-1.002,-0.9887,-0.9825,-0.9761,-0.9698,0.0,0.0,0.0,0.0,0.0,0.0,0.0,-1.1586,-1.2134,-1.3573,-1.5957,-1.8483,-2.0953,-2.3009,-2.4408,-2.4949,-2.3359,-2.204,-2.1434,-1.9434,-1.8236,-1.8127,-1.9577,-2.0948,-2.2089,-2.276,-2.3562,-2.4506,-2.5111,-2.5685,-2.6194,-2.6533,-2.7353,-2.8523,-2.7491,-2.7448,-2.8065,-2.7107,-2.58,-2.4201,-2.2021,-2.1191,-2.0965,0.0,0.0,0.0,0.0,0.0,0.0,0.0,0.0,0.0,0.0,0.0,0.0,0.0,0.0,0.0,0.0,0.0,0.0,0.0,0.0,0.0,0.0,0.0,0.0,0.0,0.0,0.0,0.0,0.0,0.0,0.0,-1.7123,-1.6952,-1.5907,-1.6212,-1.6743,-1.7249,-1.6988,-1.6984,-1.7605,-1.7979,-1.824,-1.8307,-1.9205,-1.9773,-1.9825,-1.992,-1.9706,-1.9153,-1.8715,-1.7891,-1.6647,-1.6443,-1.6039,-1.5394,-1.5321,-1.5303,-1.5277,-1.4693,-1.4313,-1.4027,-1.2532,-1.1754,-1.146,-1.0568,-1.0191,-1.018,-1.0138,-1.0051,-0.9952,-0.985,-0.9761,-0.9698,0.0,0.0,0.0,0.0,0.0,0.0,0.0,-1.174,-1.2409,-1.4101,-1.6885,-1.9443,-2.1339,-2.3304,-2.432,-2.3799,-2.2237,-2.0931,-2.0073,-1.909,-1.8871,-1.9607,-2.0844,-2.2163,-2.3526,-2.4073,-2.4678,-2.5406,-2.5845,-2.6179,-2.6416,-2.6621,-2.7403,-2.8596,-2.7606,-2.7774,-2.8704,-2.7621,-2.6928,-2.6319,-2.4172,-2.3198,-2.2836,-2.0129,-1.9474,-1.9776,-1.7975,-1.7746,-1.8046,-1.636,0.0,0.0,0.0,0.0,0.0,0.0,0.0,0.0,0.0,0.0,0.0,0.0,0.0,0.0,0.0,0.0,0.0,0.0,0.0,0.0,0.0,0.0,0.0,0.0,-1.801,-1.7974,-1.7306,-1.7387,-1.7697,-1.8142,-1.8203,-1.8333,-1.8621,-1.8988,-1.9168,-1.9043,-1.9585,-1.9964,-2.0054,-2.0131,-2.0005,-1.9605,-1.9308,-1.8518,-1.7164,-1.6855,-1.6265,-1.5405,-1.5368,-1.5342,-1.5332,-1.4866,-1.4632,0.0,-1.3191,-1.2388,-1.197,-1.1062,-1.0485,0.0,0.0,0.0,0.0,0.0,-0.9754,-0.9739,0.0,0.0,0.0,0.0,0.0,0.0,0.0,-1.1869,-1.259,-1.4427,-1.728,-1.9557,-2.0694,-2.2728,-2.3253,-2.1373,-2.0176,-1.8926,-1.7518,-1.8284,-1.9624,-2.1395,-2.2208,-2.3519,-2.5575,-2.5693,-2.5998,-2.6573,-2.6657,-2.6657,-2.6573,-2.6657,-2.752,-2.8941,-2.8163,-2.867,-3.0006,-2.8431,-2.7789,-2.7671,-2.6285,-2.5255,-2.425,-2.1678,-2.1497,-2.2248,-1.972,-1.9311,-1.9671,-1.8127,0.0,0.0,0.0,0.0,0.0,0.0,0.0,0.0,0.0,0.0,0.0,0.0,0.0,0.0,0.0,0.0,0.0,0.0,0.0,0.0,0.0,0.0,0.0,0.0,-1.9232,-1.9342,-1.8958,-1.823,-1.805,-1.8948,-1.8991,-1.9253,-2.0012,-1.9941,-1.9813,-1.9707,-1.9794,-1.9866,-1.9914,0.0,0.0,0.0,0.0,-1.8864,-1.8037,-1.734,-1.6504,-1.5547,-1.5542,-1.5502,-1.5391,-1.5403,-1.5394,-1.5355,-1.4471,-1.36,-1.272,-1.178,-1.0876,-1.0074,-1.007,-0.9996,-0.9882,-0.9747,-0.9732,0.0,0.0,0.0,0.0,0.0,0.0,0.0,0.0,-1.2054,-1.2536,-1.3822,-1.6084,-1.7774,-1.839,-1.9908,-2.0957,-2.1187,-1.9169,-1.793,-1.8086,-2.0102,-2.1511,-2.1945,-2.388,-2.5137,-2.5592,-2.6184,-2.6268,-2.5812,-2.6404,-2.6387,-2.5828,-2.642,-2.752,-2.8941,-2.8163,-2.867,-3.0006,-2.8431,-2.7789,-2.7705,-2.6843,-2.6048,-2.5174,-2.329,-2.274,-2.2748,-2.0937,-2.0729,-2.1039,-1.9369,-1.9019,-1.9208,-1.8153,-1.7684,0.0,0.0,0.0,0.0,0.0,0.0,0.0,0.0,0.0,0.0,0.0,0.0,0.0,0.0,0.0,0.0,0.0,0.0,0.0,-2.0563,-1.9654,-1.9254,-2.0591,-2.0134,-1.9754,-2.0007,-1.9968,-1.9928,-1.9934,-2.01,-1.9911,-1.9219,-1.9806,-1.9951,-1.9378,-1.9768,0.0,-2.0058,-2.0125,-1.9749,-1.8877,-1.8821,-1.8008,-1.6445,0.0,0.0,-1.5391,-1.5403,-1.5394,-1.5353,-1.4412,-1.3526,-1.2643,-1.1756,-1.0823,-0.9933,-0.9875,-0.985,-0.9805,-0.9725,-0.9713,-0.9728,0.0,0.0,0.0,0.0,0.0,0.0,0.0,-1.2159,-1.2515,-1.3562,-1.5597,-1.6971,-1.7003,-1.8552,-1.9323,-1.866,-1.7741,-1.7573,-1.8386,-2.0669,-2.2308,-2.2967,-2.4656,-2.5778,-2.615,-2.6505,-2.6522,-2.615,-2.6522,-2.6505,-2.6167,-2.6522,-2.73,-2.8383,-2.7994,-2.867,-3.0006,-2.8431,-2.8264,-2.8839,-2.73,-2.6556,-2.6162,-2.4356,-2.3692,-2.3528,-2.1803,-2.1425,-2.1524,-2.0322,-1.9677,-1.9258,-1.8435,-1.7985,-1.7654,0.0,0.0,0.0,0.0,0.0,0.0,0.0,0.0,0.0,0.0,0.0,0.0,0.0,0.0,-2.0191,-2.0671,0.0,-2.0964,-2.1772,-2.1082,-2.0797,-2.1814,-2.1309,-2.0711,-2.0343,-2.0542,-2.065,-2.0517,-2.0682,-2.0626,-2.0173,-2.0065,-1.9938,-1.9756,-1.9643,-1.9734,-1.9984,-2.0164,-1.9876,-1.9115,-1.9197,-1.8611,-1.7344,-1.6914,-1.6465,-1.6035,-1.5604,-1.5379,-1.5316,-1.4856,-1.4132,-1.3233,-1.2293,-1.1622,-1.1182,-1.102,-1.0472,-0.9791,-0.9768,-0.9775,-0.9798,0.0,0.0,0.0,0.0,0.0,0.0,0.0,-1.2246,-1.253,-1.3345,-1.5048,-1.6032,-1.5616,-1.7134,-1.7506,-1.5861,-1.6929,-1.8065,-1.8908,-2.1154,-2.309,-2.4398,-2.5463,-2.6387,-2.7114,-2.7131,-2.7131,-2.7131,-2.7131,-2.7063,-2.6911,-2.7063,-2.7385,-2.7789,-2.7977,-2.8822,-3.0023,-2.8636,-2.8755,-2.9719,-2.7723,-2.6887,-2.6702,-2.4956,-2.429,-2.4008,-2.2435,-2.1674,-2.1332,-2.0692,-1.9741,-1.8699,-1.8074,-1.7773,-1.7498,-1.6987,-1.6826,0.0,0.0,0.0,0.0,0.0,0.0,0.0,0.0,-1.9125,-1.9829,-2.0614,-2.1263,-2.1848,-2.2402,-2.2586,-2.2695,-2.2823,-2.2618,-2.2536,-2.2862,-2.2107,-2.1262,-2.0619,-2.0934,-2.1177,-2.1103,-2.1301,-2.1393,-2.1231,-2.0504,-2.0132,-2.0318,-1.9823,-1.9697,-2.0047,-2.0164,-1.9933,-1.9294,-1.9409,-1.9031,-1.8222,-1.7539,-1.7031,-1.668,-1.5976,-1.5539,-1.5304,-1.5137,-1.4613,-1.3813,-1.2839,-1.2445,-1.249,-1.2255,-1.1413,-1.0325,-1.0303,-1.0113,-0.9931,0.0,0.0,0.0,0.0,0.0,0.0,0.0,0.0,-1.2459,-1.2924,-1.3589,-1.3847,-1.3331,-1.4038,-1.4599,-1.4646,-1.8062,-2.0205,-2.0183,-2.2725,-2.4867,-2.632,-2.713,-2.7943,-2.8721,-2.8757,-2.8757,-2.8757,-2.8757,-2.8366,-2.7671,-2.8399,-2.8399,-2.7823,-2.8552,-2.933,-3.0057,-2.9211,-2.8958,-2.9025,-2.8078,-2.7054,-2.601,-2.51,-2.4232,-2.3436,-2.2798,-2.1644,-2.0299,-1.9918,-1.9496,-1.9094,-1.8714,-1.8758,-1.8838,-1.8192,-1.7838,-1.761,-1.7427,-1.7081,-1.7101,-1.8318,-1.853,-1.8485,0.0,-2.0268,-2.1431,-2.0265,-2.1416,-2.2461,-2.1901,-2.2387,-2.3139,-2.3961,-2.338,-2.3107,-2.3907,-2.2616,-2.1524,-2.1386,-2.1269,-2.1139,-2.1034,-2.1552,-2.1653,-2.1004,-2.1144,-2.1032,-2.0425,-2.0649,-2.0626,-2.0276,-2.0565,-2.048,-2.0003,-2.022,-1.9922,-1.9066,-1.9022,-1.8203,-1.6699,-1.6596,-1.6138,-1.533,-1.4516,-1.4052,-1.3838,-1.2888,-1.2496,-1.249,-1.2406,-1.2306,-1.218,-1.2068,-1.1119,-1.0012,0.0,0.0,0.0,0.0,0.0,0.0,0.0,0.0,0.0,-1.2684,-1.3251,-1.3387,-1.2684,-1.351,-1.431,-1.4798,-1.7433,-1.9251,-1.9617,-2.2291,-2.4509,-2.5998,-2.7199,-2.8197,-2.8958,-2.9011,-2.9011,-2.9011,-2.9011,-2.8968,-2.8836,-2.8699,-2.8868,-2.9251,-2.9129,-2.948,-3.0125,-2.9375,-2.9141,-2.9196,-2.7979,-2.6894,-2.5931,-2.5102,-2.3054,-2.0829,-2.2347,-2.1776,0.0,-1.9728,-1.9439,-1.904,-1.7513,-1.779,-1.8501,-1.7374,-1.7792,-1.8351,-1.7176,-1.7429,-1.7935,-1.7698,-1.8506,-1.9497,-1.9998,-2.0914,-2.1802,-2.2159,-2.2968,-2.3672,-2.3867,-2.4144,-2.4487,0.0,-2.4577,-2.4374,-2.4628,-2.3222,-2.2127,-2.1978,-2.1819,-2.1725,-2.1695,-2.2063,-2.2282,-2.2238,-2.1825,-2.1399,-2.1063,-2.079,-2.0678,-2.0698,-2.0578,-2.0515,-2.0509,-2.0353,-2.0165,-1.994,-1.9462,-1.8884,-1.8203,-1.7694,-1.724,-1.68,-1.5905,-1.5486,-1.5347,-1.4401,-1.3991,-1.3958,-1.3891,-1.3622,-1.3189,-1.2623,-1.199,-1.1464,0.0,0.0,0.0,0.0,0.0,0.0,0.0,0.0,0.0,0.0,-1.3111,-1.3238,-1.2815,-1.379,-1.4692,-1.5145,-1.6897,-1.8324,-1.913,-2.1611,-2.3819,-2.5541,-2.7029,-2.8281,-2.9262,-2.9612,-2.9714,-2.96,-2.9843,-2.9834,-2.9589,-2.9308,-2.9372,-2.9621,-2.9249,-2.9379,-2.9844,-2.9308,-2.9062,-2.8925,-2.7861,-2.6625,-2.528,-2.4079,-2.165,-1.9212,-2.1631,-2.1211,-1.953,-1.9466,-1.9607,-1.9526,-1.7644,-1.8032,-1.8948,-1.7707,-1.8329,-1.9197,-1.8,-1.8369,-1.8961,-1.8505,-1.9573,-2.0964,-2.1758,-2.2318,-2.298,-2.4044,-2.4401,-2.4742,-2.5437,-2.5481,-2.5421,-2.5389,-2.5305,-2.5171,-2.4963,-2.3539,-2.255,-2.2614,-2.2104,-2.192,-2.2426,-2.2685,-2.2934,-2.3177,-2.2391,-2.1848,-2.173,-2.1215,-2.0986,-2.1143,-2.0657,-2.0499,-2.0665,-2.0213,-2.0121,-2.0386,-1.9812,-1.9461,-1.9237,-1.8398,-1.7967,-1.7857,-1.7236,-1.6934,-1.6833,-1.614,-1.5823,-1.5766,-1.5697,-1.5354,-1.48,-1.4163,-1.334,-1.2594,0.0,0.0,0.0,0.0,0.0,0.0,0.0,0.0,0.0,0.0,0.0,0.0,0.0,-1.4633,-1.5314,-1.537,-1.6934,-1.8324,-1.9318,-2.1121,-2.316,-2.5507,-2.7029,-2.8535,-3.004,-3.1136,-3.1534,-3.1123,-3.1987,-3.1405,-2.9539,-3.0668,-3.0061,-2.7986,-2.8682,-2.9018,-2.9036,-2.9001,-2.8564,-2.7853,-2.78,-2.6247,-2.3732,-2.1475,-2.0235,-1.977,-2.0634,-1.9504,-1.7762,-1.8907,-2.003,-2.0868,-2.0388,-2.0635,-2.0985,-2.0358,-2.0117,-2.0178,-2.0709,-2.0332,-2.022,-2.2133,-2.2625,-2.2861,-2.3805,-2.4959,-2.5717,-2.5266,-2.5264,-2.5436,-2.5644,-2.5586,-2.5445,-2.5321,-2.5193,-2.5043,-2.4836,-2.3366,-2.2595,-2.3375,-2.191,-2.1444,0.0,-2.347,-2.353,-2.3212,-2.288,-2.2538,-2.2304,-2.2243,-2.2007,-2.1495,-2.0968,-2.0557,-2.0323,-1.9918,-1.9847,-2.0104,-2.0359,-2.002,-1.9181,-1.8377,-1.7967,-1.7896,-1.7877,-1.7866,-1.7858,-1.7761,-1.7714,-1.7704,-1.7632,-1.76,-1.758,-1.7542,-1.5484,-1.2815,0.0,0.0,0.0,0.0,0.0,0.0,0.0,0.0,0.0,0.0,0.0,0.0,0.0,0.0,0.0,0.0,-1.6708,-1.7845,-1.8687,-2.0102,-2.1729,-2.3601,-2.5086,-2.6688,-2.8462,-2.9192,-2.9833,-3.0472,-3.0243,-2.997,-2.9691,-2.9017,-2.8834,-2.9034,-2.8735,-2.8901,-2.9348,-2.8691,-2.8215,-2.7766,-2.6363,-2.5166,-2.4081,-2.2646,-2.0683,-1.8864,0.0,-1.9993,-1.9157,-1.9229,-2.011,-2.0807,-1.8524,-1.9403,-2.1299,-2.1438,-2.0901,-2.0281,-2.0483,-2.1008,-2.1614,-2.193,-2.2718,-2.3565,-2.4097,-2.4697,-2.4991,-2.4513,-2.4852,-2.5148,-2.4723,-2.4863,-2.5045,-2.5023,-2.4965,-2.482,-2.4637,-2.3664,-2.3014,-2.3149,-2.2622,0.0,0.0,0.0,0.0,-2.3177,-2.2898,-2.2573,-2.2293,-2.231,-2.2203,-2.2041,-2.1505,-2.1344,-2.1565,-2.1119,-2.1127,-2.1568,-2.1835,-2.1279,-2.0023,-2.0955,-2.0734,-1.9665,-2.0273,-2.0209,-1.9589,-1.8971,-1.874,-1.8679,-1.8073,-1.7801,-1.7774,-1.7774,-1.7045,-1.6034,0.0,0.0,0.0,0.0,0.0,0.0,0.0,0.0,0.0,0.0,0.0,0.0,0.0,0.0,0.0,0.0,0.0,-1.7486,-1.8136,-1.9181,-2.0401,-2.1823,-2.3244,-2.4695,-2.6191,-2.6896,-2.7521,-2.8053,-2.8014,-2.7975,-2.7882,-2.7178,-2.7175,-2.7804,-2.7614,-2.78,-2.8214,-2.725,-2.6767,-2.6451,-2.4533,-2.3523,-2.3033,-2.159,-2.0066,0.0,-1.9234,-1.9656,-1.9912,-1.9539,-2.0216,-2.0818,-1.8697,-1.9648,-2.1596,-2.2023,-2.1879,-2.1572,-2.157,-2.2557,-2.3511,-2.3124,-2.4046,-2.5043,-2.5055,-2.496,-2.4706,-2.4118,-2.4166,-2.4238,-2.3999,-2.4205,-2.4507,-2.4812,-2.4774,-2.4748,-2.4903,-2.4166,-2.3803,-2.4246,-2.4043,-2.3913,0.0,0.0,0.0,-2.3194,-2.2898,-2.2573,-2.2293,-2.231,-2.231,-2.231,-2.172,-2.1552,-2.1954,-2.1562,-2.1676,-2.2289,-2.2546,-2.2158,-2.126,-2.2489,-2.2455,-2.1405,-2.1728,-2.1698,-2.1367,-2.048,-2.0311,-2.0533,-1.9951,-1.969,-1.9618,-1.9303,-1.9187,-1.8983,0.0,0.0,0.0,0.0,0.0,0.0,0.0,0.0,0.0,0.0,0.0,0.0,0.0,0.0,0.0,0.0,0.0,0.0,-1.7648,-1.8323,-1.9185,-2.0188,-2.155,-2.2634,-2.3454,-2.4497,-2.4821,-2.4374,-2.5602,-2.5594,-2.4431,-2.5227,-2.5201,-2.4504,-2.5324,-2.5734,-2.5716,-2.4823,-2.4375,-2.4112,-2.2469,-2.1498,-2.0794,-1.8628,-1.8553,-1.9447,-1.8034,-1.8498,-1.9812,-1.9792,-2.0365,-2.1004,-2.0929,-2.1409,-2.2071,-2.2289,-2.3087,-2.3928,-2.3839,-2.4779,-2.5731,-2.562,-2.6403,-2.707,-2.6485,-2.5766,-2.4954,-2.4109,-2.3328,-2.297,-2.354,-2.3659,-2.3927,-2.4662,-2.4643,-2.4787,-2.5594,-2.4912,-2.4925,0.0,0.0,0.0,0.0,0.0,0.0,-2.3484,0.0,-2.2563,-2.2361,-2.2327,-2.231,-2.231,-2.1617,-2.1352,-2.1564,-2.132,-2.1582,-2.231,-2.2573,-2.266,-2.267,-2.2971,-2.3067,-2.2936,-2.2273,-2.2433,-2.3103,-2.2264,-2.2426,-2.3166,-2.3059,-2.3003,-2.2902,-2.208,-2.1765,-2.143,0.0,0.0,0.0,0.0,0.0,0.0,0.0,0.0,0.0,0.0,0.0,0.0,0.0,0.0,0.0,0.0,0.0,0.0,-1.6191,-1.7064,-1.7765,-1.815,-1.9602,-2.0837,-2.1786,-2.2471,-2.314,-2.3802,-2.354,-2.334,-2.3151,-2.2885,-2.268,-2.2593,-2.2928,-2.3389,-2.3896,-2.293,-2.2912,-2.3378,-2.1487,-2.097,-2.1224,-1.992,-1.955,-1.9712,-1.9326,-1.9021,-1.8911,-1.9676,-2.0564,-2.1414,-2.197,-2.2779,-2.3449,-2.3033,-2.3659,-2.4412,-2.3998,-2.4607,-2.5379,-2.5492,-2.5742,-2.5925,-2.5757,-2.5493,-2.4858,-2.3405,-2.3687,-2.3881,-2.2848,-2.3075,-2.3671,-2.4524,-2.4693,0.0,-2.5807,-2.6093,0.0,-2.7603,0.0,-2.7471,-2.8169,-2.7224,0.0,0.0,-2.3859,-2.2598,-2.3088,-2.2598,-2.231,-2.231,-2.2124,-2.2136,-2.2375,-2.2582,-2.2643,-2.2619,-2.3312,-2.318,-2.2379,-2.389,-2.3882,-2.2763,-2.4019,-2.4342,-2.3981,-2.3758,-2.3827,-2.4002,-2.3395,-2.3113,-2.3059,-2.2823,-2.2745,-2.2647,0.0,0.0,0.0,0.0,0.0,0.0,0.0,0.0,0.0,0.0,0.0,0.0,0.0,0.0,0.0,0.0,0.0,0.0,0.0,-1.6841,-1.7393,-1.7912,-1.8682,-1.9354,-1.9916,-2.0188,-2.0609,-2.1188,-2.0894,-2.0838,-2.0989,-2.0739,-2.0707,-2.0868,-2.1297,-2.1737,-2.2145,-2.1183,-2.1269,0.0,0.0,-1.9847,-2.066,-1.9773,-1.9605,-1.981,-1.9438,-1.88,-1.8288,-1.9273,-1.9921,-2.0444,-2.1388,-2.252,-2.3474,-2.3243,-2.3983,-2.4878,-2.4986,-2.5732,-2.6417,-2.6178,-2.6404,-2.6478,-2.5639,-2.4812,-2.3882,-2.2794,-2.2533,-2.2445,-2.2248,-2.2239,-2.2791,0.0,0.0,0.0,-2.6475,-2.7528,-2.8427,0.0,-2.94,0.0,-2.9813,-2.8935,-2.8283,0.0,-2.5402,-2.3759,-2.3836,-2.3337,-2.2877,-2.249,-2.236,-2.249,-2.2923,-2.2972,-2.3119,-2.3363,-2.3804,-2.3729,-2.3255,-2.4436,-2.4484,-2.3696,0.0,-2.4787,-2.4758,-2.4433,-2.4555,-2.4879,-2.4453,-2.4276,-2.4193,-2.3803,-2.3666,-2.3627,0.0,0.0,0.0,0.0,0.0,0.0,0.0,0.0,0.0,0.0,0.0,0.0,0.0,0.0,0.0,0.0,0.0,0.0,0.0,0.0,-1.7457,-1.8244,-1.8321,-1.8348,-1.831,-1.826,-1.818,-1.8132,-1.8497,-1.8682,-1.8735,-1.9068,-1.928,-1.9407,-2.0154,-2.0499,-2.0504,-1.9736,-1.9723,-2.0074,-1.8622,-1.868,-1.9595,0.0,-1.9141,-1.9657,-1.8946,-1.8306,-1.7918,-1.8655,-1.9,-1.9306,-2.0362,-2.1782,-2.3139,-2.3558,-2.4468,-2.5524,-2.639,-2.7355,-2.794,-2.7123,-2.7383,-2.7393,-2.5636,-2.4034,-2.2809,-2.2388,-2.1164,-2.0552,-2.1859,-2.1541,-2.1921,-2.4422,0.0,-2.5492,-2.7306,-2.8867,-3.0089,-3.0766,-3.1507,-3.1802,-3.1374,-3.0567,-2.9909,-2.9423,-2.7406,-2.5775,-2.4779,-2.4287,-2.3711,-2.2946,-2.2708,-2.2893,-2.3513,-2.3115,-2.3395,-2.4278,-2.4078,-2.4137,-2.4461,-2.467,-2.4809,-2.4892,0.0,0.0,-2.5313,-2.4704,-2.4904,-2.5598,-2.566,-2.5683,-2.5605,-2.4844,-2.457,-2.4473,0.0,0.0,0.0,0.0,0.0,0.0,0.0,0.0,0.0,0.0,-1.8266,-1.8027,0.0,0.0,0.0,0.0,0.0,0.0,0.0,0.0,0.0,-1.6624,-1.7856,-1.8483,-1.831,-1.8345,-1.8345,-1.827,-1.8333,-1.8393,-1.8393,-1.8662,-1.8789,-1.8771,-1.9125,-1.9282,-1.9229,-1.9067,-1.9054,-1.9129,-1.8842,-1.8843,-1.8965,-1.8841,0.0,0.0,-1.8712,-1.8289,-1.788,-1.7872,-1.8907,-2.0396,-2.1408,-2.2985,-2.4633,-2.5517,-2.6111,-2.6707,-2.7575,-2.8037,-2.8064,-2.7206,-2.6542,-2.5815,-2.4596,-2.396,-2.3358,-2.2479,-2.2458,-2.2517,-2.2214,-2.2116,-2.2482,-2.3797,-2.4645,-2.575,-2.7566,-2.9071,-3.051,0.0,-3.2538,-3.2999,-3.3573,-3.2716,0.0,0.0,0.0,-2.8511,-2.6508,-2.5075,-2.4272,-2.4113,-2.4056,-2.4406,-2.5176,-2.4481,-2.4325,-2.4751,-2.4085,-2.3939,-2.4266,-2.4461,-2.4559,-2.4604,0.0,0.0,-2.5167,-2.5193,-2.5335,-2.5511,-2.5598,-2.5629,-2.5611,-2.5507,-2.5469,-2.5449,0.0,0.0,0.0,0.0,0.0,0.0,0.0,-1.8825,-1.8843,-1.877,-1.8526,-1.8348,-1.8307,-1.7835,-1.7256,0.0,0.0,0.0,0.0,0.0,0.0,0.0,0.0,0.0,-1.7815,-1.7851,-1.8062,-1.8463,0.0,-1.8448,-1.8508,-1.8604,-1.8678,-1.8752,-1.8896,-1.8949,-1.8948,-1.8913,-1.8896,-1.8896,-1.886,-1.8788,-1.8696,0.0,0.0,0.0,-1.8696,-1.8289,-1.78,-1.8161,-1.8912,-1.9839,-2.0533,-2.229,-2.4214,-2.4693,-2.5764,-2.6972,-2.7731,-2.8125,-2.8203,-2.7773,-2.6347,-2.4948,-2.4644,-2.3466,-2.2507,-2.273,-2.2327,-2.2136,-2.272,-2.2173,-2.2224,-2.4075,-2.4419,-2.5091,-2.6864,-2.8509,-3.0051,-3.1514,-3.2579,-3.3415,-3.3944,-3.3545,-3.2889,0.0,0.0,-2.9795,-2.7441,-2.6033,-2.52,-2.5034,-2.5009,-2.5287,-2.5853,-2.4889,-2.4658,-2.516,-2.4176,-2.3876,-2.419,-2.4303,-2.441,-2.451,-2.478,0.0,-2.5077,-2.5305,-2.5415,-2.5459,-2.5531,-2.5551,-2.5554,-2.5573,-2.5629,-2.5658,0.0,0.0,0.0,0.0,0.0,0.0,0.0,-1.8932,-1.8949,-1.8861,-1.8752,-1.8679,-1.866,-1.8366,-1.7936,0.0,0.0,0.0,0.0,0.0,0.0,0.0,0.0,0.0,0.0,0.0,0.0,-1.8617,-1.8581,0.0,0.0,0.0,0.0,0.0,-1.8932,-1.8966,-1.9018,-1.8948,-1.8931,0.0,0.0,-1.8752,0.0,0.0,0.0,0.0,0.0,-1.8431,-1.8,-1.8519,-1.8839,-1.9099,-1.9281,-2.1218,-2.3465,-2.3774,-2.5226,-2.6932,-2.7887,-2.8216,-2.8301,-2.8281,-2.6323,-2.4453,-2.4643,-2.2882,-2.1521,-2.2694,-2.1779,-2.1261,-2.2851,-2.2103,-2.1983,-2.425,-2.4271,-2.4548,-2.614,-2.7853,-2.9464,-3.0823,-3.2373,0.0,-3.3854,-3.3842,0.0,0.0,0.0,0.0,-2.7915,-2.6945,-2.6333,-2.6079,-2.6079,-2.6195,-2.6467,-2.5398,-2.5046,-2.5403,-2.432,-2.3955,-2.419,-2.419,-2.4284,-2.4444,-2.4639,0.0,0.0,-2.5216,-2.5332,-2.5395,-2.5453,-2.5488,-2.5473,-2.5489,-2.5539,-2.557,0.0,0.0,0.0,0.0,0.0,0.0,0.0,-1.8878,-1.8932,-1.8984,-1.8966,-1.8949,-1.8878,-1.8003,-1.7415,0.0,0.0,0.0,0.0,0.0,0.0,0.0,0.0,0.0,0.0,0.0,0.0,-1.8697,-1.8678,0.0,0.0,0.0,0.0,0.0,0.0,-1.9082,-1.9082,-1.9035,0.0,0.0,0.0,0.0,0.0,0.0,0.0,0.0,0.0,-1.8912,-1.8865,-1.8213,-1.8547,-1.9176,-1.8681,-2.0643,-2.3388,-2.467,-2.5755,-2.6928,-2.876,-2.8798,-2.8281,-2.8209,-2.6293,-2.4284,-2.3842,-2.2429,-2.1366,-2.1919,-2.1322,-2.1027,-2.2102,-2.214,-2.2389,-2.352,-2.4214,-2.5012,-2.6149,-2.7547,-2.9153,-3.1042,0.0,0.0,-3.4078,-3.3935,0.0,0.0,0.0,0.0,-2.7879,-2.7691,-2.7633,-2.7592,-2.7592,-2.7614,-2.7655,-2.6823,-2.6057,-2.5403,-2.4556,-2.417,-2.419,-2.419,-2.4209,-2.4247,0.0,0.0,0.0,-2.4974,-2.5143,-2.5313,-2.5376,-2.542,-2.5415,-2.5488,-2.5493,-2.5517,0.0,0.0,0.0,0.0,0.0,0.0,-1.8698,-1.886,-1.8914,-1.895,-1.8896,-1.8878,-1.8843,-1.8393,-1.8144,-1.8342,0.0,0.0,0.0,0.0,0.0,0.0,0.0,0.0,0.0,0.0,-1.8324,-1.8752,-1.8752,0.0,0.0,0.0,0.0,0.0,0.0,0.0,-1.9099,-1.9,0.0,0.0,0.0,0.0,0.0,0.0,0.0,0.0,0.0,0.0,-1.8928,-1.8623,-1.8764,-1.9026,-1.8874,-2.0005,-2.1651,-2.2862,-2.4396,-2.5967,-2.7144,-2.7469,-2.7451,-2.7422,-2.5088,-2.3052,-2.4088,-2.2619,-2.1443,-2.292,-2.2643,-2.2412,-2.3243,-2.3119,-2.3157,-2.3989,-2.397,-2.42,-2.5206,-2.5823,-2.714,-2.9776,-3.097,0.0,0.0,0.0,0.0,0.0,0.0,0.0,-3.0026,-2.9512,-2.9017,-2.8539,-2.8998,-2.9017,-2.8539,-2.7255,-2.6447,-2.6098,-2.4814,-2.419,-2.4208,-2.4685,-2.4649,-2.4246,0.0,0.0,0.0,-2.4937,-2.5111,-2.5293,-2.5321,-2.5339,-2.5329,-2.5379,-2.5413,-2.5441,0.0,0.0,0.0,0.0,0.0,-1.7928,-1.8626,-1.8769,-1.8824,-1.8843,-1.8769,-1.875,-1.875,-1.8658,-1.866,-1.8861,-1.8825,0.0,0.0,0.0,0.0,0.0,0.0,0.0,0.0,0.0,-1.8358,-1.8878,-1.8861,-1.8861,0.0,0.0,0.0,0.0,0.0,0.0,0.0,0.0,0.0,0.0,0.0,0.0,0.0,0.0,0.0,0.0,0.0,0.0,0.0,0.0,0.0,-1.8982,-1.9082,-1.9515,-2.0202,-2.1282,-2.2887,-2.4466,-2.5322,-2.5602,-2.5675,-2.5714,-2.3828,-2.2327,-2.3686,-2.2542,-2.1578,-2.3033,-2.2776,-2.2552,-2.3363,-2.3223,-2.3319,-2.4346,-2.4008,-2.3886,-2.4545,-2.4776,-2.5889,-2.8567,0.0,-3.0974,0.0,0.0,0.0,0.0,0.0,0.0,0.0,-3.1219,-3.043,-2.9402,-2.9898,-2.9696,-2.8668,-2.753,-2.6851,-2.6594,-2.5456,-2.4905,-2.4924,-2.5493,-2.5438,-2.4944,0.0,0.0,0.0,-2.5168,-2.5203,-2.5233,-2.5472,-2.5454,-2.5303,-2.5303,-2.5321,-2.5371,0.0,0.0,0.0,0.0,0.0,0.0,-1.8566,-1.86,-1.8637,-1.8697,-1.8638,-1.8616,-1.8616,-1.8601,-1.8659,-1.8788,-1.8788,0.0,0.0,0.0,0.0,0.0,0.0,0.0,0.0,0.0,-1.9018,-1.9105,-1.8966,-1.8931,-1.9002,-1.8931,-1.8982,-1.9099,0.0,0.0,0.0,0.0,0.0,0.0,0.0,0.0,0.0,0.0,0.0,0.0,0.0,0.0,0.0,0.0,0.0,0.0,0.0,-1.9202,-1.9429,-2.0579,-2.1486,-2.24,-2.3678,-2.3403,-2.2784,-2.2906,-2.2762,-2.2518,-2.2195,-2.1934,-2.1725,-2.1553,-2.0934,-2.0729,-2.1736,-2.1962,-2.2566,-2.4221,-2.4497,-2.4476,-2.4512,-2.5023,-2.6018,0.0,0.0,-2.9947,-3.2297,0.0,0.0,0.0,0.0,0.0,0.0,-3.2596,-3.1843,-3.0246,-3.021,-2.942,-2.7824,-2.7787,-2.7383,-2.6612,-2.6594,-2.6594,-2.6594,-2.6594,-2.6594,0.0,0.0,0.0,0.0,-2.5688,-2.5412,-2.5087,-2.5888,-2.5834,-2.5303,-2.5303,-2.5303,-2.5313,0.0,0.0,0.0,0.0,0.0,0.0,0.0,-1.8601,-1.862,-1.8641,-1.8603,-1.8582,-1.8542,-1.8485,-1.8524,-1.8641,-1.8789,0.0,0.0,0.0,0.0,0.0,0.0,0.0,0.0,0.0,-1.9069,-1.9101,-1.9,-1.9001,-1.907,-1.8949,-1.8949,-1.9035,-1.8967,0.0,0.0,0.0,0.0,0.0,0.0,0.0,0.0,0.0,0.0,0.0,0.0,0.0,0.0,0.0,0.0,0.0,0.0,0.0,0.0,-1.9617,-2.0455,-2.1414,-2.2319,-2.2533,-2.2488,-2.2489,-2.248,-2.2505,-2.2616,-2.2604,-2.2501,-2.2294,-2.2114,-2.1935,-2.1801,-2.2325,-2.3015,-2.3652,-2.4126,-2.4428,0.0,0.0,0.0,-2.8382,-3.056,-3.2164,0.0,0.0,0.0,0.0,0.0,0.0,0.0,-3.3421,-3.243,-3.0265,-3.0723,-3.0246,-2.865,-2.8062,-2.7658,-2.7402,-2.6869,-2.6612,-2.6631,-2.7163,0.0,0.0,0.0,0.0,0.0,-2.593,-2.5691,-2.5669,-2.5463,-2.5251,-2.5187,-2.5917,-2.5813,-2.538,0.0,0.0,0.0,0.0,0.0,0.0,0.0,-1.8487,-1.8489,-1.8489,-1.8489,-1.8487,-1.8465,-1.8406,-1.8408,-1.8545,-1.8698,0.0,0.0,0.0,0.0,0.0,0.0,0.0,-1.9248,-1.9168,-1.9152,-1.918,-1.9086,-1.907,-1.9102,-1.8967,-1.895,-1.8984,-1.8878,-1.8843,0.0,0.0,0.0,0.0,0.0,0.0,-1.8895,0.0,0.0,0.0,0.0,0.0,0.0,0.0,0.0,0.0,0.0,0.0,0.0,0.0,-1.9829,-2.0748,-2.1268,-2.1792,-2.2098,-2.1814,-2.2187,-2.2595,-2.2456,-2.2648,-2.2684,-2.2272,-2.1986,-2.1717,-2.1345,-2.2087,-2.2868,-2.3297,-2.3975,-2.4446,0.0,0.0,0.0,-2.7991,0.0,0.0,0.0,0.0,0.0,0.0,0.0,0.0,0.0,-3.3707,-3.2963,-3.1164,-3.1586,-3.1237,-2.9934,-2.9402,-2.8998,-2.8705,-2.8209,-2.7805,-2.753,-2.8026,0.0,0.0,0.0,0.0,0.0,-2.6689,-2.6432,-2.6322,-2.5958,-2.5665,-2.5545,-2.6318,-2.6255,-2.587,0.0,0.0,0.0,0.0,0.0,0.0,0.0,-1.829,-1.831,-1.831,-1.831,-1.8328,-1.8385,-1.8348,-1.8351,-1.8485,0.0,0.0,0.0,0.0,0.0,0.0,0.0,0.0,-1.9308,-1.9232,-1.9232,-1.9289,-1.9168,-1.9102,-1.9099,-1.8966,-1.8932,-1.8966,-1.8789,-1.8715,-1.8788,-1.8641,-1.8623,-1.8697,-1.8697,-1.8789,0.0,0.0,0.0,0.0,0.0,0.0,0.0,0.0,0.0,0.0,0.0,0.0,0.0,0.0,0.0,0.0,0.0,-2.1242,-2.1627,-2.0986,-2.1927,-2.2791,-2.1951,-2.2245,0.0,-2.1658,-2.0898,-2.0403,-2.0475,-2.1309,-2.224,-2.3079,-2.3987,-2.4462,0.0,-2.4317,0.0,0.0,-2.9513,0.0,0.0,0.0,0.0,0.0,0.0,0.0,0.0,-3.3504,-3.3378,-3.2627,-3.259,-3.2214,-3.1403,-3.1384,-3.0999,-3.021,-3.021,-2.9787,-2.8994,-2.8994,0.0,0.0,0.0,0.0,0.0,-2.7824,-2.7477,-2.6972,-2.7114,-2.6798,-2.6314,-2.6642,-2.6687,-2.6621,0.0,0.0,0.0,0.0,0.0,0.0,0.0,0.0,0.0,0.0,-1.8385,-1.8385,-1.8385,-1.8348,-1.8351,0.0,0.0,0.0,0.0,0.0,0.0,0.0,0.0,0.0,-1.9298,-1.9216,-1.9216,-1.9298,-1.9166,-1.9099,-1.9099,-1.8965,-1.8914,-1.8932,-1.877,-1.8678,-1.8641,-1.8563,-1.8565,-1.8604,-1.8619,-1.8732,0.0,0.0,0.0,0.0,-1.9542,-1.9344,0.0,0.0,0.0,0.0,0.0,0.0,0.0,0.0,-2.142,-2.2014,-2.2112,0.0,-2.157,-2.1316,-2.21,-2.2813,0.0,-2.2511,-2.246,-2.1602,-2.0807,-2.0117,-1.9682,-2.0825,-2.1955,-2.2269,-2.3464,-2.4321,-2.4192,0.0,0.0,-2.7158,0.0,0.0,0.0,0.0,0.0,0.0,0.0,0.0,0.0,-3.2745,-3.2719,-3.2541,-3.2523,-3.2151,-3.1403,-3.1384,-3.0999,-3.021,-3.021,-2.9787,-2.8994,-2.8994,0.0,0.0,0.0,0.0,-2.8686,-2.8044,-2.7721,-2.7567,-2.7139,-2.6962,-2.7055,-2.796,-2.7577,-2.6774,0.0,0.0,0.0,0.0,0.0,0.0,0.0,0.0,0.0,0.0,0.0,-1.8342,-1.8342,-1.8307,0.0,0.0,0.0,0.0,0.0,0.0,0.0,0.0,0.0,-1.92,-1.9301,-1.9266,-1.9266,-1.9295,-1.9182,-1.9281,-1.9592,-1.911,-1.9076,-1.9379,-1.8873,-1.862,-1.8545,-1.8524,-1.8524,-1.8582,-1.8598,0.0,0.0,0.0,0.0,0.0,-1.9289,-1.9164,0.0,-1.9325,-1.9487,-1.956,0.0,0.0,0.0,0.0,-2.0782,-2.1393,-2.1412,-2.1998,-2.2493,-2.207,-2.2578,-2.3017,-2.2215,-2.2016,-2.1911,-2.1569,-2.088,-2.0241,-1.992,-2.1164,-2.2171,-2.1852,-2.3474,0.0,0.0,0.0,-2.6941,-2.7084,0.0,0.0,0.0,0.0,0.0,0.0,0.0,0.0,0.0,-3.2366,-3.2484,-3.2484,-3.2484,-3.2398,-3.2229,-3.2229,-3.1725,-3.0742,-3.0742,-3.0136,-2.8994,-2.8994,0.0,0.0,0.0,0.0,-2.892,-2.8136,-2.8026,-2.8287,-2.7692,-2.7531,-2.7694,-2.8361,-2.8193,-2.7738,0.0,0.0,0.0,0.0,0.0,0.0,0.0,0.0,0.0,0.0,0.0,0.0,0.0,0.0,0.0,0.0,0.0,0.0,0.0,0.0,0.0,0.0,-1.9086,-1.9235,-1.9266,-1.9282,-1.9314,-1.9308,-1.9292,-1.9609,-2.0174,-1.9435,-1.9325,-1.9749,-1.8937,-1.8542,-1.8485,-1.8485,-1.8522,-1.8579,-1.8579,0.0,0.0,0.0,0.0,0.0,0.0,0.0,0.0,-1.9022,-1.9076,-1.9094,-1.9021,0.0,0.0,0.0,0.0,0.0,-2.0185,-2.1783,-2.33,-2.2548,-2.2862,-2.302,-2.1709,-2.12,-2.1071,-2.1316,-2.0787,-2.0293,-2.0383,-2.1589,-2.2371,0.0,0.0,0.0,-2.5225,-2.5597,-2.6184,0.0,0.0,0.0,0.0,0.0,0.0,0.0,0.0,0.0,0.0,-3.2074,-3.2282,-3.2282,-3.2282,-3.2517,-3.2965,-3.3045,-3.2506,-3.1309,-3.1309,-3.0509,-2.8994,-2.8929,-2.8905,0.0,0.0,0.0,-2.8874,-2.8242,-2.8374,-2.8943,-2.8447,-2.8253,-2.8332,-2.8482,-2.8628,-2.8751,0.0,0.0,0.0,0.0,0.0,0.0,0.0,0.0,0.0,0.0,0.0,0.0,0.0,0.0,0.0,0.0,0.0,0.0,0.0,0.0,0.0,-1.8642,-1.9,-1.92,-1.9219,-1.9266,-1.9316,-1.9298,-1.9858,-2.0136,-2.0192,-1.9992,-1.9519,-1.8794,-1.8535,-1.8463,-1.8485,-1.8426,-1.8445,-1.8522,-1.8522,0.0,0.0,0.0,0.0,0.0,0.0,0.0,0.0,-1.9631,-1.992,-1.9975,-1.992,0.0,0.0,0.0,0.0,0.0,-2.0844,-2.1467,-2.1983,-2.1395,-2.1789,-2.2087,-2.1196,-2.0568,-2.0203,-2.0241,-1.9705,-1.9398,-1.9899,-2.0819,-2.163,0.0,0.0,-2.5764,0.0,0.0,0.0,0.0,0.0,0.0,0.0,0.0,0.0,0.0,0.0,0.0,0.0,0.0,-3.1389,-3.1389,-3.1389,-3.162,-3.2022,-3.2417,-3.2041,-3.0893,-3.0893,-3.0239,-2.8994,-2.8658,-2.8471,0.0,0.0,-2.8388,-2.8496,-2.8735,-2.8906,-2.8998,-2.8893,-2.8997,-2.9208,-2.9247,-2.8895,-2.8464,0.0,0.0,0.0,0.0,0.0,0.0,0.0,0.0,0.0,0.0,0.0,0.0,0.0,0.0,0.0,0.0,0.0,0.0,0.0,0.0,-1.8659,-1.8604,-1.8878,-1.9051,-1.9086,-1.9153,-1.9386,-1.9839,-2.0153,-2.068,-2.1416,-2.0865,-1.9888,-1.86,-1.8485,-1.8485,-1.8545,-1.8522,-1.8542,-1.8545,0.0,0.0,0.0,0.0,0.0,0.0,0.0,0.0,0.0,0.0,-1.9416,-1.9452,-1.9398,0.0,0.0,0.0,0.0,0.0,-1.9541,-2.0337,-2.0882,-1.9769,-2.0917,-2.2052,-2.1115,-2.0842,-2.0727,-2.0477,-2.0483,-2.0519,-2.035,-2.1322,-2.2641,-2.4189,0.0,-2.6353,0.0,0.0,0.0,0.0,0.0,0.0,0.0,0.0,0.0,0.0,0.0,0.0,0.0,0.0,-3.0412,-3.0006,-3.0006,-3.0085,-3.0309,-3.0506,-3.0569,-3.0457,-3.0058,-2.9366,-2.8404,-2.821,-2.8129,-2.8112,0.0,-2.771,-2.8121,-2.8044,-2.8282,-2.87,-2.8929,-2.9085,-2.9203,-2.9351,-2.9193,-2.8952,0.0,0.0,0.0,0.0,0.0,0.0,0.0,0.0,0.0,0.0,0.0,0.0,0.0,0.0,0.0,0.0,0.0,0.0,0.0,0.0,-1.8622,-1.8584,-1.877,-1.9003,-1.9255,-1.9143,-1.9575,-2.0571,-2.0554,-2.1093,-2.2138,-2.1345,-2.0085,-1.8528,-1.8505,-1.8505,-1.8565,-1.8598,-1.8581,-1.8584,0.0,0.0,0.0,0.0,0.0,0.0,0.0,0.0,0.0,0.0,0.0,0.0,0.0,0.0,0.0,-1.8445,-1.8445,-1.8443,-1.8328,-1.9395,-2.0177,-1.8819,-2.0233,-2.1703,-2.0713,-2.0726,-2.0918,-2.0737,-2.1167,-2.1429,-2.0952,-2.2052,0.0,-2.5877,-2.6459,0.0,0.0,0.0,0.0,0.0,0.0,0.0,0.0,0.0,0.0,0.0,0.0,0.0,0.0,0.0,-2.9583,-2.9045,-2.9011,-2.9011,-2.9011,-2.8805,-2.9076,-2.9779,-2.9211,-2.8582,-2.7897,-2.7811,-2.7754,-2.7718,-2.7109,-2.7179,-2.773,-2.7469,-2.7733,-2.8316,-2.8608,-2.8791,-2.8887,-2.9203,-2.931,-2.933,0.0,0.0,0.0,0.0,0.0,0.0,0.0,0.0,0.0,0.0,0.0,0.0,0.0,0.0,0.0,0.0,0.0,0.0,0.0,0.0,-1.8641,-1.8505,-1.8714,-1.9182,-2.001,-1.9415,-1.9829,-2.1314,-2.133,-2.1247,-2.1111,-2.0907,-1.9921,-1.833,-1.8385,-1.8406,-1.8426,-1.854,-1.8559,-1.8505,-1.8426,0.0,0.0,0.0,0.0,0.0,0.0,0.0,0.0,0.0,0.0,0.0,0.0,0.0,-1.8465,-1.8287,-1.8263,-1.8298,-1.8298,-1.9252,-2.0062,-1.948,-1.9884,-2.0237,-1.9418,-1.9304,-1.9567,-2.0297,-2.0506,-2.0755,-2.1257,-2.2443,-2.3875,-2.5418,-2.6792,0.0,0.0,0.0,0.0,0.0,0.0,0.0,0.0,0.0,0.0,0.0,0.0,0.0,0.0,0.0,0.0,-2.9011,-2.9011,-2.9011,-2.9011,-2.8264,-2.8083,-2.8533,-2.8481,-2.825,-2.7897,-2.75,-2.7348,-2.7348,-2.7265,-2.7282,-2.7378,-2.7712,-2.7872,-2.7954,-2.7982,-2.8156,-2.8471,-2.8887,-2.904,-2.904,0.0,0.0,0.0,0.0,0.0,0.0,0.0,0.0,0.0,0.0,0.0,0.0,0.0,0.0,0.0,0.0,0.0,0.0,0.0,-1.841,-1.8448,-1.8426,-1.8544,-1.928,-2.0682,-1.9615,-2.0065,-2.2161,-2.2021,-2.1419,-2.0374,-2.0209,-1.9544,-1.8489,-1.8371,-1.8448,-1.8638,-1.8522,-1.8524,-1.8603,-1.8465,-1.8485,0.0,0.0,0.0,0.0,0.0,0.0,0.0,0.0,-1.843,-1.841,-1.8191,-1.8163,-1.8159,-1.8095,-1.8091,-1.813,-1.8155,-1.8891,-1.947,-1.8731,-1.932,-2.0203,-2.0506,-2.0833,-2.1044,-2.0918,-2.1651,-2.2248,-2.1997,0.0,-2.4408,-2.5439,0.0,0.0,0.0,0.0,0.0,0.0,0.0,0.0,0.0,0.0,0.0,0.0,0.0,0.0,0.0,0.0,0.0,-2.6911,-2.7317,-2.7114,-2.6217,-2.681,-2.6945,-2.665,-2.7111,-2.7278,-2.7147,-2.7004,-2.6939,-2.6939,-2.6939,-2.6939,-2.6971,-2.7348,-2.7547,-2.753,-2.7811,-2.7982,-2.8102,-2.8255,-2.8456,-2.8608,0.0,0.0,0.0,0.0,0.0,0.0,0.0,0.0,0.0,0.0,0.0,0.0,0.0,0.0,0.0,0.0,0.0,0.0,-1.8287,-1.8328,-1.8348,-1.8385,-1.8465,-1.922,-2.0693,-1.9578,-2.0173,-2.2589,-2.2428,-2.1646,-2.0243,-2.0117,-1.9509,-1.8505,-1.8351,-1.8428,-1.8619,-1.8483,-1.8485,-1.8547,-1.8426,-1.8426,0.0,0.0,0.0,0.0,0.0,0.0,0.0,0.0,-1.8328,-1.8229,-1.8023,-1.7949,-1.7939,-1.7895,-1.7856,-1.7907,-1.8189,-1.8705,-1.903,-1.8438,-1.9185,-2.023,-2.0909,-2.1387,-2.1647,-2.1501,-2.2502,-2.3279,-2.2828,-2.3708,0.0,0.0,0.0,0.0,0.0,0.0,0.0,0.0,0.0,0.0,0.0,0.0,0.0,0.0,0.0,0.0,0.0,0.0,0.0,0.0,-2.5679,-2.5507,-2.4523,-2.5727,-2.6099,-2.5609,-2.6353,-2.6691,-2.6691,-2.6691,-2.6691,-2.6691,-2.6691,-2.6691,-2.6725,-2.7004,-2.7115,-2.7147,-2.756,-2.7707,-2.7725,-2.7869,-2.8047,-2.821,0.0,0.0,0.0,0.0,0.0,0.0,0.0,0.0,0.0,0.0,0.0,0.0,0.0,0.0,0.0,0.0,0.0,0.0,-1.8298,-1.8363,-1.8385,-1.831,-1.8483,-1.9009,-1.9872,-1.9309,-2.0173,-2.2571,-2.2509,-2.1911,-2.0789,-2.0807,-1.9913,-1.8315,-1.8304,-1.8304,-1.8315,-1.8363,-1.8348,-1.829,-1.8301,-1.8301,-1.831,0.0,0.0,0.0,0.0,0.0,0.0,0.0,-1.8249,-1.8146,-1.7971,-1.7856,-1.7766,-1.7635,-1.7549,-1.7652,-1.8385,-1.8732,-1.887,-1.8879,-1.9544,-2.0178,-2.0102,-2.0354,-2.0895,-2.1886,-2.2798,-2.3446,-2.3654,-2.4111,0.0,0.0,0.0,0.0,0.0,0.0,0.0,0.0,0.0,0.0,0.0,0.0,0.0,0.0,0.0,0.0,0.0,0.0,0.0,0.0,-2.4288,-2.4506,-2.4489,-2.522,-2.5592,-2.5592,-2.6336,-2.6674,-2.6691,-2.6691,-2.6691,-2.6691,-2.6691,-2.6691,-2.6691,-2.6691,-2.6691,-2.6758,-2.7147,-2.7286,-2.7348,-2.7754,-2.7897,-2.7897,0.0,0.0,0.0,0.0,0.0,0.0,0.0,0.0,0.0,0.0,0.0,0.0,0.0,0.0,0.0,0.0,0.0,0.0,-1.8287,-1.8322,-1.8363,-1.8445,-1.842,-1.8851,-1.9812,-1.9697,-1.9793,-2.0065,-2.1048,-2.1031,-2.0117,-2.0625,-2.0279,-1.9224,-1.9164,-1.8871,-1.8423,-1.8319,-1.8301,-1.8365,-1.8277,-1.826,-1.831,0.0,0.0,0.0,0.0,0.0,0.0,0.0,0.0,0.0,-1.7646,-1.7512,-1.7384,-1.7408,-1.7248,-1.7134,-1.7461,-1.7502,-1.7541,-1.8072,-1.8676,-1.9127,-1.9054,-1.9991,-2.1061,-2.1749,-2.2538,-2.3027,-2.2834,-2.3819,0.0,0.0,0.0,0.0,0.0,0.0,0.0,0.0,0.0,0.0,0.0,0.0,0.0,0.0,0.0,0.0,0.0,0.0,0.0,0.0,-2.3718,-2.3708,-2.297,-2.4188,-2.456,-2.4052,-2.478,-2.5693,-2.6691,-2.6691,-2.6691,-2.6691,-2.6691,-2.6691,-2.6691,-2.6691,-2.6691,-2.6725,-2.6841,-2.6873,-2.6906,-2.6987,-2.7241,-2.7457,0.0,0.0,0.0,0.0,0.0,0.0,0.0,0.0,0.0,0.0,-1.8406,-1.847,0.0,0.0,0.0,0.0,0.0,0.0,0.0,-1.8301,-1.8339,-1.8426,-1.8345,-1.8633,-1.931,-1.9388,-1.9252,-1.8878,-2.038,-2.0794,-2.0241,-2.1017,-2.0877,-1.9992,-1.9926,-1.9643,-1.9251,-1.9134,-1.8944,-1.8753,-1.8706,-1.8516,-1.8263,0.0,0.0,0.0,0.0,0.0,0.0,0.0,0.0,0.0,-1.7646,-1.7401,-1.7175,-1.7224,-1.6986,-1.6837,-1.7229,-1.7231,-1.73,-1.8039,-1.8699,-1.9134,-1.9043,-2.0217,-2.1399,-2.1778,-2.27,-2.3394,-2.3219,-2.3939,0.0,0.0,0.0,0.0,0.0,0.0,0.0,0.0,0.0,0.0,0.0,0.0,0.0,0.0,0.0,0.0,0.0,0.0,0.0,0.0,-2.254,-2.2675,-2.202,-2.3384,-2.3833,-2.341,-2.4137,-2.5101,-2.6251,-2.6251,-2.642,-2.6691,-2.6691,-2.6691,-2.6691,-2.6691,-2.6691,-2.6691,-2.6691,-2.6691,-2.6691,-2.6691,-2.6841,-2.7036,0.0,0.0,-2.1685,-2.1704,0.0,0.0,0.0,0.0,0.0,0.0,-1.829,-1.8548,0.0,0.0,0.0,-1.9386,-1.9399,-1.9112,-1.8447,-1.8336,-1.8281,-1.829,-1.829,-1.8368,-1.8544,-1.8603,-1.8695,-1.8785,-2.0337,-2.1043,-2.0903,-2.1789,-2.1662,-2.0686,-2.0639,-2.0558,-2.0394,-2.0349,-1.9912,-1.9314,-1.9312,-1.8858,-1.8211,-1.8274,0.0,0.0,0.0,0.0,0.0,0.0,0.0,0.0,-1.7833,-1.7502,-1.7134,-1.7101,-1.6825,-1.6653,-1.7263,-1.7424,-1.7616,-1.8307,-1.9184,-1.9862,-1.9736,-2.0742,-2.1753,-2.1827,0.0,-2.397,-2.4228,-2.4155,0.0,0.0,0.0,0.0,0.0,0.0,0.0,0.0,0.0,0.0,0.0,0.0,0.0,0.0,0.0,0.0,0.0,0.0,0.0,0.0,-2.1102,-2.1552,-2.1582,-2.2714,-2.3291,0.0,-2.3968,-2.4661,-2.5341,-2.5476,-2.5932,-2.6624,-2.6624,-2.6657,-2.6691,-2.6691,-2.6691,-2.6691,-2.6691,-2.6691,-2.6691,-2.6691,-2.6691,-2.6691,0.0,0.0,-2.2306,-2.1794,0.0,0.0,0.0,0.0,0.0,0.0,0.0,0.0,0.0,-1.8502,0.0,-1.9351,-1.8895,-1.8763,-1.9216,-1.8606,-1.8239,-1.829,-1.8243,-1.8176,-1.8134,-1.818,-1.86,-1.9335,-2.0522,-2.1043,-2.0943,-2.2382,-2.2494,-2.1472,-2.1568,-2.1179,-2.0454,-1.9866,-1.952,-1.9329,-1.8762,-1.8433,-1.8295,-1.8277,-1.8336,0.0,0.0,0.0,0.0,0.0,0.0,0.0,-1.7772,-1.7572,-1.7368,-1.7216,-1.6975,-1.6538,-1.5668,-1.5866,-1.6418,-1.6757,-1.8293,-1.9747,-1.9712,-2.0349,-2.0907,-2.0762,-2.1544,-2.2443,-2.3234,0.0,0.0,0.0,0.0,0.0,0.0,0.0,0.0,0.0,0.0,0.0,0.0,0.0,0.0,0.0,0.0,0.0,0.0,0.0,0.0,-2.0314,-2.0846,-2.1275,-2.1582,-2.2228,-2.2547,0.0,-2.2699,-2.2975,-2.3353,-2.4481,-2.5408,-2.6156,-2.6156,-2.6367,-2.6691,-2.6691,-2.6691,-2.6691,-2.6691,-2.6691,-2.6691,-2.6691,-2.6691,-2.6691,0.0,0.0,0.0,0.0,0.0,0.0,0.0,0.0,0.0,0.0,0.0,0.0,0.0,-1.8814,0.0,0.0,-1.9044,-1.8861,-1.8916,-1.8443,-1.8155,-1.8159,-1.8113,-1.8065,-1.8005,-1.8108,-1.8556,-1.9403,-2.042,-2.107,-2.1409,-2.2653,-2.2884,-2.2227,-2.2327,-2.2101,-2.1586,-2.1229,-2.0871,-2.0472,-1.9708,-1.9208,-1.8885,-1.8461,-1.8363,-1.844,-1.8365,0.0,0.0,0.0,0.0,0.0,0.0,0.0,-1.7368,-1.7248,-1.6924,-1.636,-1.5209,-1.5482,-1.6201,-1.6666,-1.7676,-1.8629,-1.8858,-1.9395,-1.9922,-2.0139,-2.0961,-2.1839,0.0,0.0,0.0,0.0,0.0,0.0,0.0,0.0,0.0,0.0,0.0,0.0,0.0,0.0,0.0,0.0,0.0,0.0,0.0,-1.969,-1.9782,-2.0,-2.0431,-2.0878,-2.1306,-2.1554,-2.1781,-2.1957,-2.1781,-2.1805,-2.208,-2.3754,-2.4932,-2.5615,-2.5888,-2.6156,-2.6367,-2.6624,-2.6691,-2.6691,-2.6691,-2.6691,-2.6691,-2.6691,-2.6691,-2.6691,0.0,0.0,0.0,0.0,0.0,0.0,0.0,0.0,0.0,0.0,0.0,0.0,0.0,-1.9527,-1.9579,0.0,0.0,0.0,-1.887,-1.8482,-1.8215,-1.8149,-1.8029,-1.7961,-1.7961,-1.8087,-1.8581,-1.9521,-2.0291,-2.115,-2.2089,-2.2803,-2.302,-2.279,-2.285,-2.2868,-2.2799,-2.2754,-2.2387,-2.176,-2.0941,-2.0284,-1.9682,-1.8836,-1.8598,-1.8713,-1.8458,-1.8426,-1.8485,-1.8559,0.0,0.0,0.0,0.0,-1.7415,-1.7313,-1.6942,-1.6333,-1.534,-1.5429,-1.5984,-1.6662,-1.6917,-1.7181,-1.7827,-1.8303,-1.8793,-1.9452,-2.0543,-2.1425,0.0,0.0,0.0,0.0,0.0,0.0,0.0,0.0,0.0,0.0,0.0,0.0,0.0,0.0,0.0,0.0,0.0,0.0,-1.969,-1.969,-1.969,-1.969,-2.0089,-2.0483,-2.0862,-2.0959,-2.115,-2.1491,-2.1086,-2.1027,-2.1368,-2.2996,-2.4185,-2.4914,-2.5345,-2.5737,-2.6049,-2.6401,-2.6539,-2.6522,-2.664,-2.6623,-2.6522,-2.664,-2.6691,-2.6691,0.0,0.0,0.0,0.0,0.0,0.0,0.0,0.0,0.0,0.0,-1.9955,-1.9945,0.0,-2.0065,-2.0362,-2.1071,-2.0556,-2.0401,-2.0934,0.0,0.0,-1.8687,-1.8126,-1.7811,-1.7749,-1.7861,-1.8733,-2.0321,-2.0483,-2.1294,-2.2788,-2.2892,-2.2868,-2.2712,-2.2825,-2.2893,-2.2841,-2.2272,-2.1989,-2.1831,-2.101,-2.0603,-2.0383,-1.9634,-1.9334,-1.9204,-1.8551,-1.8348,-1.8426,-1.8502,-1.8465,0.0,0.0,0.0,-1.7944,-1.771,-1.7415,-1.6898,-1.5666,-1.4836,-1.4426,-1.4903,-1.5459,-1.611,-1.7181,-1.7469,-1.7674,0.0,-1.9208,0.0,0.0,0.0,0.0,0.0,0.0,0.0,0.0,0.0,0.0,0.0,0.0,0.0,0.0,0.0,0.0,0.0,0.0,0.0,-1.969,-1.969,-1.969,-1.969,-2.0089,-2.0348,-2.0382,-2.0797,-2.1039,-2.1055,-2.0616,-2.0705,-2.1317,-2.1812,-2.2607,-2.3663,-2.3701,-2.4607,-2.5997,-2.6085,-2.5965,-2.5812,-2.6437,-2.6302,-2.5828,-2.6454,-2.6691,-2.6691,0.0,0.0,0.0,0.0,0.0,0.0,0.0,0.0,0.0,0.0,0.0,-2.0193,0.0,-2.0193,-2.033,-2.0713,-2.0431,-2.0379,-2.0705,-1.9634,-1.8975,-1.8846,-1.8177,-1.7952,-1.831,-1.8082,-1.8944,-2.0942,-2.0577,-2.1194,-2.2738,-2.2685,-2.2659,-2.2659,-2.2738,-2.279,-2.2756,-2.2503,-2.2439,-2.2461,-2.1627,-2.1074,-2.0683,-2.0261,-1.9839,-1.9473,-1.956,-1.9338,-1.9028,-1.9076,-1.8793,-1.8363,-1.8287,0.0,0.0,0.0,-1.7509,-1.7093,-1.6061,-1.4485,-1.3359,-1.4194,-1.4338,-1.4462,-1.5329,-1.5989,-1.658,-1.7085,0.0,0.0,0.0,0.0,0.0,0.0,0.0,0.0,0.0,0.0,0.0,0.0,0.0,0.0,0.0,0.0,0.0,0.0,0.0,-1.969,-1.969,-1.969,-1.969,-1.969,-1.9874,-2.0054,-2.0314,-2.0261,-2.0277,-2.0277,-2.007,-2.0132,-2.0421,-2.0535,-2.1476,-2.3046,-2.3665,-2.439,-2.5144,-2.5411,-2.5493,-2.5392,-2.574,-2.5675,-2.5428,-2.6059,-2.6139,-2.5928,0.0,0.0,0.0,0.0,0.0,0.0,0.0,0.0,0.0,0.0,0.0,0.0,0.0,0.0,0.0,0.0,-2.0756,-2.0756,-2.0756,-2.0,-1.9534,-1.9461,-1.8728,-1.8528,-1.9042,-1.8494,-1.9256,-2.1344,-2.0643,-2.1112,-2.2659,-2.2542,-2.2515,-2.2569,-2.2821,-2.2858,-2.2729,-2.2972,-2.3041,-2.2892,-2.231,-2.1766,-2.1295,-2.0987,-2.0408,-1.9782,-2.0142,-1.9777,-1.9152,-1.9202,-1.8795,-1.8301,-1.8287,-1.8125,0.0,0.0,0.0,-1.7174,-1.6229,-1.4633,-1.3359,-1.3693,-1.3443,-1.3185,-1.3566,0.0,-1.521,0.0,0.0,0.0,0.0,0.0,0.0,0.0,0.0,0.0,0.0,0.0,0.0,0.0,0.0,0.0,0.0,0.0,0.0,0.0,0.0,-1.9369,-1.9479,-1.9479,-1.9566,-1.969,-1.969,-1.9839,-2.0158,-1.9839,-1.969,-1.969,-1.969,-1.969,-1.969,-1.9869,-2.0767,-2.2244,-2.327,-2.3773,-2.3933,-2.4674,-2.4859,-2.4686,-2.5038,-2.507,-2.4981,-2.5587,-2.554,-2.5297,0.0,0.0,0.0,0.0,0.0,0.0,0.0,0.0,0.0,0.0,0.0,0.0,-2.2192,-2.2136,-2.2124,-2.2192,-2.2248,-2.2286,-2.2303,-2.1535,-2.1049,-2.0995,-2.0166,0.0,-1.9755,-1.9151,-1.9719,-2.1498,-2.0676,-2.1162,-2.279,-2.2579,-2.246,-2.2439,-2.3288,-2.3285,-2.2763,-2.3507,-2.3431,-2.2816,-2.2816,-2.2781,-2.2626,-2.1915,-2.1122,-2.0267,-1.9585,-1.8861,-1.8164,-1.8186,-1.8218,-1.829,0.0,-1.8187,-1.8187,0.0,0.0,0.0,-1.5984,-1.5494,-1.4908,-1.312,-1.2692,-1.2689,0.0,0.0,0.0,0.0,0.0,0.0,0.0,0.0,0.0,0.0,0.0,0.0,0.0,0.0,0.0,0.0,0.0,0.0,0.0,0.0,0.0,0.0,0.0,-1.8419,-1.8893,-1.893,-1.9169,-1.969,-1.969,-1.9711,-1.9711,-1.9711,-1.969,-1.969,-1.969,-1.969,-1.9705,-2.0363,-2.0722,-2.0857,-2.1554,-2.2093,-2.2599,-2.3902,-2.3943,-2.3343,-2.467,-2.4782,-2.4249,-2.4981,-2.5221,-2.5221,0.0,0.0,0.0,0.0,0.0,0.0,0.0,0.0,0.0,0.0,0.0,0.0,0.0,-2.2089,-2.2106,-2.2242,-2.2282,-2.2349,-2.2394,-2.1583,-2.1036,-2.0954,-2.0171,-1.9924,-2.0323,-1.9848,-2.0374,-2.1956,-2.131,-2.1559,-2.2605,-2.2432,-2.2366,-2.2338,-2.276,-2.2781,-2.2532,-2.2924,-2.29,-2.2685,-2.2738,-2.247,-2.2047,-2.2203,-2.1773,-2.0993,-2.0159,0.0,0.0,0.0,0.0,0.0,0.0,0.0,-1.8095,-1.8197,-1.807,-1.7743,-1.7266,-1.6366,-1.5415,-1.4758,-1.415,-1.3712,-1.3684,-1.3489,-1.3584,0.0,0.0,0.0,0.0,0.0,0.0,0.0,0.0,0.0,0.0,0.0,0.0,0.0,0.0,0.0,0.0,0.0,0.0,0.0,0.0,0.0,-1.838,-1.838,-1.8458,-1.865,-1.9006,-1.9369,-1.969,-1.969,-1.969,-1.969,-1.969,-1.969,-1.969,-1.9944,-2.0049,-2.0094,-2.0767,-2.1407,-2.2039,-2.2935,-2.3107,-2.2915,-2.3805,-2.4004,-2.3836,-2.4458,-2.4471,-2.4266,0.0,0.0,0.0,0.0,0.0,0.0,0.0,0.0,0.0,-2.2878,0.0,0.0,0.0,0.0,-2.2015,-2.2185,-2.2225,-2.2282,-2.2366,-2.1775,-2.1378,-2.1278,-2.07,-2.06,-2.0999,-2.0494,-2.0884,-2.2237,-2.1613,-2.1701,-2.246,-2.2338,-2.2271,-2.2254,-2.2377,-2.2405,-2.2422,-2.2743,-2.2764,-2.2569,-2.2605,-2.2366,-2.1953,-2.1844,-2.1322,-2.0506,0.0,0.0,0.0,0.0,0.0,0.0,0.0,0.0,-1.8074,-1.8151,-1.8113,-1.807,-1.8087,-1.7255,-1.6285,-1.5868,-1.5308,-1.4754,-1.4292,0.0,-1.3393,0.0,0.0,0.0,0.0,0.0,0.0,0.0,0.0,0.0,0.0,0.0,0.0,0.0,0.0,0.0,0.0,0.0,0.0,0.0,0.0,0.0,-1.7827,-1.7827,-1.7907,-1.8106,-1.8458,-1.8893,-1.9442,-1.9244,-1.9332,-1.969,-1.953,-1.953,-1.969,-1.969,-1.969,-1.9705,-2.0168,-2.0617,-2.1111,-2.2259,-2.2413,-2.2113,-2.3191,-2.3475,-2.3353,-2.3914,-2.3921,-2.3724,0.0,0.0,0.0,0.0,0.0,0.0,0.0,0.0,-2.4339,-2.4193,0.0,0.0,0.0,0.0,0.0,-2.2168,-2.2185,-2.2225,-2.2282,-2.2282,-2.2192,-2.1998,-2.1869,-2.1797,-2.1797,-2.1089,-2.1244,-2.2304,-2.1522,-2.1566,-2.2377,-2.2254,-2.2214,-2.2247,-2.2288,-2.2389,-2.2524,-2.3187,-2.3096,-2.2504,-2.2453,-2.2473,-2.2424,-2.0721,-1.9565,0.0,-1.6636,-1.5667,0.0,-1.4259,0.0,0.0,0.0,0.0,-1.8205,-1.8117,-1.8159,-1.8205,0.0,0.0,0.0,-1.6308,-1.6014,-1.5658,-1.4206,0.0,-1.2826,0.0,0.0,0.0,0.0,0.0,0.0,0.0,0.0,0.0,0.0,0.0,0.0,0.0,0.0,0.0,0.0,0.0,0.0,0.0,0.0,-1.671,-1.7229,-1.7271,-1.7504,-1.8066,-1.8066,-1.8341,-1.8855,-1.838,-1.8612,-1.9639,-1.9132,-1.9169,-1.9639,-1.9639,-1.9639,-1.9639,-1.9639,-1.9639,-1.9803,-2.1799,-2.1859,-2.0863,-2.2775,-2.3191,-2.2727,-2.334,-2.3565,-2.3565,0.0,0.0,0.0,0.0,0.0,0.0,-2.312,-2.3725,-2.4163,0.0,0.0,0.0,-2.3539,-2.2992,-2.2438,-2.1936,-2.2003,-2.2044,-2.2073,-2.2061,-2.1928,-2.1797,-2.1694,-2.1603,-2.1433,-2.1343,-2.1507,-2.2015,-2.1786,-2.1888,-2.2248,-2.2118,-2.2362,-2.2945,-2.2988,-2.3363,-2.3875,-2.3153,-2.2982,-2.2999,-2.1094,-2.0471,-2.0385,-1.785,0.0,0.0,0.0,-1.4239,-1.418,0.0,-1.3947,-1.6159,0.0,0.0,-1.8149,-1.8284,-1.8365,-1.8406,-1.8363,0.0,0.0,0.0,0.0,0.0,-1.5959,-1.5277,-1.4511,0.0,0.0,0.0,0.0,0.0,0.0,0.0,0.0,0.0,0.0,0.0,0.0,0.0,0.0,0.0,0.0,0.0,0.0,0.0,-1.6522,-1.6552,-1.671,-1.671,-1.6951,-1.7504,-1.7504,-1.7787,-1.8341,-1.8185,-1.8263,-1.8535,-1.838,-1.8419,-1.8535,-1.8535,-1.8535,-1.8535,-1.8535,-1.8535,-1.8644,-2.0067,-2.0458,-2.0269,-2.1768,-2.2212,-2.2054,-2.2697,-2.2936,-2.2936,0.0,0.0,-2.1655,-2.2042,0.0,-2.3533,-2.38,-2.4448,-2.4895,0.0,0.0,0.0,-2.3735,-2.3441,-2.3077,-2.2648,-2.2457,-2.2365,-2.2378,-2.2036,-2.1797,-2.1664,-2.1573,-2.145,-2.1309,-2.134,-2.1509,-2.1768,-2.1768,-2.1857,-2.1991,-2.1928,-2.2328,-2.3079,-2.3201,-2.3695,-2.4411,-2.3726,-2.3038,-2.2389,-2.1814,-2.114,0.0,-1.7631,-1.6699,0.0,0.0,0.0,-1.2859,-1.1588,-1.2496,0.0,0.0,0.0,0.0,0.0,0.0,-1.8325,-1.8322,-1.8243,-1.818,-1.8095,0.0,0.0,-1.7101,-1.6346,-1.5439,0.0,0.0,0.0,0.0,0.0,0.0,0.0,0.0,0.0,0.0,0.0,0.0,0.0,0.0,0.0,0.0,0.0,0.0,-1.6158,-1.5723,-1.5615,-1.5849,-1.6028,-1.6398,-1.6951,-1.6951,-1.7229,-1.7747,-1.7544,-1.7666,-1.8106,-1.7867,-1.7867,-1.8106,-1.8106,-1.8106,-1.8106,-1.8106,-1.7987,-1.7814,-1.8547,-1.8941,-1.9268,-2.0613,-2.0924,-2.0695,-2.1349,-2.1639,-2.1682,0.0,0.0,-2.1472,-2.2264,-2.3194,-2.4082,-2.4773,-2.5513,-2.5974,0.0,-2.5343,-2.4601,-2.3865,-2.3799,-2.38,-2.3769,-2.3243,-2.2928,-2.2992,-2.228,-2.184,-2.1735,-2.1513,-2.1355,-2.1309,-2.123,-2.1341,-2.1589,-2.1589,-2.1603,-2.1694,-2.1768,-2.2195,-2.2891,-2.3109,-2.367,-2.4488,-2.4644,-2.3374,-2.1465,-2.3078,-2.2442,0.0,0.0,-1.7198,-1.6706,-1.2399,-1.1131,-1.1404,-1.1064,-1.1461,0.0,0.0,0.0,0.0,0.0,-1.7805,-1.8134,-1.8172,-1.8243,-1.827,0.0,-1.8197,0.0,-1.7664,-1.6851,-1.5991,-1.5097,0.0,0.0,0.0,0.0,0.0,0.0,0.0,0.0,0.0,0.0,0.0,0.0,0.0,0.0,0.0,-1.4588,-1.5117,-1.5567,-1.4667,-1.4337,-1.4887,-1.5207,-1.5656,-1.6281,-1.6318,-1.6604,-1.7092,-1.671,-1.6993,-1.7907,-1.7422,-1.7422,-1.78,-1.7894,-1.7894,-1.7854,-1.7894,-1.7666,-1.7188,-1.7188,-1.7544,-1.8137,-1.939,-1.9544,-1.9058,-1.9739,-1.9975,-2.0131,-2.0652,-2.0909,-2.1247,-2.21,-2.3044,-2.3896,-2.4547,-2.537,-2.5881,-2.5775,-2.5566,-2.5151,-2.4424,-2.4395,-2.4218,-2.3666,-2.3554,-2.3556,-2.3605,-2.2866,-2.2456,-2.2489,-2.1774,-2.1355,-2.1309,-2.123,-2.1341,-2.1589,-2.145,-2.1481,-2.1694,-2.1708,-2.2134,-2.2891,-2.2984,-2.3779,-2.5046,-2.5227,-2.4276,-2.2412,-1.9878,-1.7437,-1.5002,-1.2295,-1.1072,-1.0725,-1.0108,-0.9916,-1.053,-1.3806,-1.3607,-1.2749,0.0,0.0,0.0,-1.6314,0.0,0.0,0.0,0.0,0.0,0.0,0.0,0.0,-1.7289,-1.7462,-1.721,0.0,0.0,0.0,0.0,0.0,0.0,0.0,0.0,0.0,0.0,0.0,0.0,0.0,0.0,0.0,0.0,-1.4588,-1.4953,-1.5067,-1.4447,-1.4134,-1.4261,-1.3987,-1.4181,-1.5039,-1.5195,-1.5484,-1.5928,-1.6324,-1.6595,-1.6795,-1.671,-1.6441,-1.6089,-1.66,-1.6557,-1.6089,-1.66,-1.6752,-1.668,-1.668,-1.6951,-1.7543,-1.8321,-1.8534,-1.8394,-1.9045,-1.9322,-1.9336,-2.0465,-2.0695,-2.1159,-2.2327,-2.2962,-2.3681,-2.4818,-2.5341,-2.5584,-2.5551,-2.547,-2.5303,-2.5008,-2.4959,-2.4903,-2.4635,-2.4281,-2.4123,-2.4158,-2.347,-2.3046,-2.3112,-2.2605,-2.2183,-2.1811,-2.1697,-2.1553,-2.1404,-2.1278,-2.1294,-2.1511,-2.1871,-2.249,-2.326,-2.3818,-2.4663,-2.5677,-2.5023,-2.3487,-2.1402,-2.0736,0.0,-1.6595,-1.3822,-1.2496,-1.199,-1.0741,-1.0139,-1.0416,-1.3471,-1.3674,0.0,0.0,-1.6457,-1.6371,0.0,-1.6954,-1.8035,0.0,0.0,0.0,-1.8215,0.0,0.0,0.0,-1.7898,-1.792,0.0,0.0,0.0,0.0,0.0,0.0,0.0,0.0,0.0,0.0,0.0,0.0,0.0,0.0,0.0,0.0,-1.3667,-1.3506,-1.2992,-1.318,-1.3219,-1.2993,-1.2951,-1.3408,-1.4362,-1.4497,-1.4731,-1.5141,-1.5466,-1.5611,-1.5611,-1.5611,-1.5421,-1.5141,-1.5466,-1.5421,-1.5186,-1.5466,-1.5611,-1.5611,-1.5611,-1.594,-1.6514,-1.7162,-1.7366,-1.7378,-1.8014,-1.8041,-1.7993,-2.0439,-2.0534,-2.1083,-2.2571,-2.29,-2.3506,-2.5077,-2.5317,-2.5333,-2.5378,-2.5317,-2.523,-2.5016,-2.5221,-2.5329,-2.5163,-2.4895,-2.4709,-2.4657,-2.4061,-2.3689,-2.3689,-2.3423,-2.2969,-2.2293,-2.2194,-2.1841,-2.1215,-2.1295,-2.1392,-2.1535,-2.2297,-2.2963,-2.365,-2.4478,-2.5089,-2.5389,-2.4245,-2.2378,-2.0302,0.0,-2.1121,-1.8956,-1.6295,-1.5207,-1.4768,-1.1901,-1.0616,-1.0594,-1.251,-1.3004,-1.3106,-1.4684,-1.5898,0.0,0.0,0.0,0.0,0.0,0.0,0.0,0.0,0.0,-1.8304,0.0,0.0,0.0,0.0,0.0,0.0,0.0,0.0,0.0,0.0,0.0,0.0,0.0,0.0,0.0,0.0,0.0,0.0,0.0,-1.2849,-1.2138,-1.1207,-1.1792,-1.2046,-1.1642,-1.1902,-1.2605,-1.3707,-1.3761,-1.4027,-1.4514,-1.4652,-1.4698,-1.4698,-1.4698,-1.4652,-1.4514,-1.4663,-1.4652,-1.4514,-1.4652,-1.4698,-1.4698,-1.4698,-1.505,-1.5644,-1.6262,-1.6542,-1.6748,-1.7338,-1.725,-1.7125,-2.0843,-2.0635,-2.0841,-2.2389,-2.2771,-2.3412,-2.4923,-2.524,-2.5294,-2.5333,-2.5294,-2.483,-2.3592,-2.4617,-2.4875,-2.3576,-2.4684,-2.5433,-2.5303,-2.4675,-2.4289,-2.4289,-2.3661,-2.2953,-2.2245,-2.2311,-2.2005,-2.1294,-2.1924,-2.2247,-2.228,-2.3094,-2.3536,-2.3719,-2.3885,-2.358,-2.2912,-2.2941,-2.2263,0.0,-1.9508,-1.7911,0.0,-1.3881,-1.3631,-1.424,-1.1441,-1.0399,-1.0673,0.0,-1.2648,-1.1813,0.0,-1.632,-1.6075,-1.6473,0.0,0.0,0.0,0.0,0.0,0.0,-1.8078,0.0,0.0,0.0,0.0,-1.8229,0.0,0.0,0.0,0.0,0.0,0.0,0.0,0.0,0.0,0.0,0.0,0.0,0.0,0.0,0.0,0.0,-1.2282,-1.1737,-1.1378,-1.1139,-1.1012,-1.0716,-1.1101,-1.2371,-1.2567,-1.3063,-1.3899,-1.4422,-1.4698,-1.4698,-1.4698,-1.4422,-1.3909,-1.4468,-1.4422,-1.3909,-1.4468,-1.4698,-1.4698,-1.4698,-1.505,-1.5623,-1.619,-1.6773,-1.735,-1.7903,-1.8078,-1.8041,-2.0842,-2.0859,-2.127,-2.2847,-2.3217,-2.3698,-2.4847,-2.5433,-2.5703,-2.5703,-2.5703,-2.5174,-2.3721,-2.4527,-2.4129,-2.1499,-2.3036,-2.3608,0.0,0.0,-2.3351,-2.2532,-2.3749,-2.3729,-2.216,-2.3067,-2.3181,-2.2439,-2.278,-2.2975,-2.3041,-2.3738,-2.4078,-2.4078,-2.3767,-2.3375,-2.2869,0.0,-2.0842,0.0,0.0,0.0,0.0,-1.5286,-1.37,-1.3167,-1.137,-1.0572,-1.0439,0.0,-1.2173,0.0,0.0,0.0,0.0,0.0,0.0,0.0,0.0,0.0,0.0,0.0,0.0,0.0,-1.8017,0.0,-1.8388,0.0,0.0,0.0,0.0,0.0,0.0,0.0,0.0,0.0,0.0,0.0,0.0,0.0,0.0,0.0,0.0,0.0,0.0,0.0,0.0,-1.2298,-1.2289,-1.1015,-1.0762,-1.1807,-1.1914,-1.2422,-1.3276,-1.3515,-1.3658,-1.3658,-1.3658,-1.3515,-1.3286,-1.3515,-1.3525,-1.3286,-1.3573,-1.3836,-1.419,-1.419,-1.4732,-1.5635,-1.6204,-1.6812,-1.7488,-1.8355,-1.848,-1.8292,-2.1263,-2.1296,-2.1728,-2.3156,-2.346,-2.3897,-2.5028,-2.5677,-2.6072,-2.6277,-2.6309,-2.554,-2.356,-2.4033,-2.3113,-1.9721,-2.0983,-2.1413,0.0,0.0,-2.235,0.0,0.0,0.0,0.0,-2.3174,-2.359,-2.3256,-2.35,-2.3648,-2.3751,-2.441,-2.4749,-2.4749,-2.4302,-2.3599,-2.2583,0.0,-1.9719,-1.9938,-1.87,-1.8962,-1.9832,-1.694,-1.466,-1.2872,-1.1828,-1.1208,-1.0891,-1.0716,-1.1893,0.0,-1.235,0.0,0.0,0.0,0.0,0.0,-1.7296,0.0,0.0,0.0,0.0,0.0,0.0,0.0,0.0,0.0,0.0,0.0,0.0,0.0,0.0,0.0,0.0,0.0,0.0,0.0,0.0,0.0,0.0,0.0,0.0,0.0,0.0,0.0,0.0,0.0,-1.3397,-1.2076,-1.1428,-1.1577,-1.1724,-1.2109,-1.2871,-1.2881,-1.2881,-1.2881,-1.2881,-1.2881,-1.2881,-1.2881,-1.2968,-1.3152,-1.3152,-1.342,-1.3815,-1.3815,-1.4411,-1.5424,-1.5928,-1.6674,-1.7513,-1.8618,-1.8869,-1.8731,-2.2488,-2.2149,-2.2082,-2.305,-2.3277,-2.3869,-2.5519,-2.5894,-2.6261,-2.6972,-2.7067,-2.5845,-2.2609,0.0,0.0,0.0,0.0,-1.9455,-1.978,0.0,-2.173,0.0,0.0,-2.2714,0.0,0.0,-2.2487,-2.3131,-2.3959,-2.4386,-2.4402,-2.5169,-2.5605,-2.5668,-2.5652,-2.3995,-2.1247,-2.1163,-1.9404,-1.6645,-1.659,-1.6633,-1.6791,0.0,-1.6467,-1.3923,-1.2922,0.0,0.0,-1.1794,-1.1903,0.0,0.0,0.0,0.0,0.0,0.0,0.0,0.0,0.0,0.0,-1.5518,0.0,0.0,0.0,0.0,-1.8229,0.0,0.0,0.0,0.0,0.0,0.0,-1.8385,0.0,0.0,0.0,0.0,0.0,0.0,0.0,0.0,0.0,0.0,0.0,0.0,0.0,0.0,-1.3607,-1.3816,-1.3242,-1.163,-1.1982,-1.2422,-1.2881,-1.2881,-1.2881,-1.2881,-1.2881,-1.2881,-1.2881,-1.2881,-1.3238,-1.3768,-1.3768,-1.3768,-1.3815,-1.3815,-1.419,-1.4789,-1.5342,-1.6303,-1.7513,-1.8618,-1.9334,-1.9685,-2.2962,-2.2988,-2.3125,-2.3671,-2.4348,-2.5133,-2.6221,-2.6751,0.0,0.0,-2.6047,0.0,0.0,-2.1527,-2.0433,0.0,0.0,-1.8243,-1.7111,-1.8663,0.0,0.0,0.0,-2.1469,0.0,0.0,0.0,0.0,-2.4836,-2.5078,-2.5078,-2.5411,-2.5562,-2.546,-2.4474,-2.29,0.0,0.0,0.0,0.0,0.0,-1.8933,-1.9922,0.0,0.0,-1.4605,-1.3879,-1.3385,0.0,-1.2394,-1.2463,-1.2887,-1.3115,-1.4072,-1.5199,-1.541,-1.6187,0.0,0.0,0.0,-1.5547,-1.4651,0.0,0.0,0.0,0.0,0.0,0.0,0.0,0.0,0.0,0.0,-1.8502,-1.8307,-1.8328,0.0,0.0,0.0,0.0,0.0,0.0,0.0,0.0,0.0,0.0,0.0,0.0,0.0,0.0,-1.4771,-1.3462,-1.2085,-1.2163,-1.2441,-1.2881,-1.2881,-1.2881,-1.2881,-1.3286,-1.3286,-1.2929,-1.3752,-1.3967,-1.3815,-1.3815,-1.4272,-1.4949,-1.4133,-1.4641,-1.5856,-1.5655,-1.6532,-1.8016,-1.8756,-1.8907,-1.8818,-2.3187,-2.36,-2.3909,-2.3997,-2.4829,-2.583,0.0,0.0,0.0,0.0,-2.5699,0.0,-2.1701,0.0,-1.9416,0.0,-1.665,-1.6798,-1.5963,-1.7293,0.0,-1.628,-1.8877,0.0,0.0,0.0,0.0,0.0,0.0,-2.5926,-2.5702,-2.5873,-2.5728,-2.5362,-2.4428,-2.3286,-2.1951,-2.0172,-1.9336,0.0,0.0,-2.0006,0.0,0.0,-1.6654,-1.6528,0.0,-1.4193,-1.3792,-1.2979,-1.2878,-1.2983,-1.2589,-1.33,-1.4337,-1.4337,-1.4942,-1.5464,-1.4541,-1.4643,0.0,-1.3872,-1.4996,0.0,-1.6744,0.0,0.0,0.0,0.0,0.0,0.0,0.0,0.0,-1.8365,-1.8348,-1.8345,0.0,-1.8287,0.0,0.0,0.0,0.0,0.0,0.0,0.0,0.0,0.0,0.0,0.0,0.0,-1.4738,-1.2383,-1.2619,-1.2815,-1.2881,-1.2881,-1.3017,-1.3238,-1.3589,-1.3684,-1.3563,-1.4107,-1.4422,-1.4411,-1.4226,-1.4549,-1.5231,-1.4675,-1.5005,-1.5832,-1.5676,-1.6435,-1.7702,-1.8455,-1.8631,-1.8616,-2.3257,-2.397,-2.4477,-2.4038,-2.4866,0.0,0.0,0.0,-2.6316,0.0,-2.606,-2.4226,-2.3554,-2.1096,-1.8818,-1.6972,-1.5575,-1.5269,-1.6347,-1.7187,0.0,0.0,-1.8083,-1.8528,-1.8573,0.0,0.0,0.0,0.0,-2.6856,-2.6204,-2.6431,-2.6124,-2.5464,-2.5394,0.0,-2.4102,-2.1966,-2.05,-1.9683,-1.9571,-1.9628,-1.9713,-1.9571,0.0,-1.9439,-1.6191,-1.4916,-1.4631,-1.3509,-1.3073,-1.302,-1.2926,-1.2881,-1.2881,-1.2881,-1.2881,-1.2881,-1.2881,-1.3799,-1.4405,-1.3218,0.0,0.0,0.0,0.0,-1.5651,0.0,0.0,0.0,0.0,0.0,0.0,-1.854,-1.8426,-1.8391,0.0,0.0,0.0,0.0,0.0,0.0,0.0,0.0,0.0,0.0,0.0,0.0,0.0,0.0,-1.6959,-1.2616,-1.3331,-1.3505,-1.2929,-1.2929,-1.3238,-1.3815,-1.3815,-1.4143,-1.4698,-1.4143,-1.4503,-1.5543,-1.4971,-1.4744,-1.4789,-1.532,-1.5231,-1.4835,-1.5365,-1.5988,-1.6722,-1.7777,-1.8543,-1.9133,-2.4125,-2.4758,-2.5357,0.0,-2.6458,-2.7103,0.0,0.0,0.0,0.0,-2.5027,-2.3331,-2.1824,-1.9798,-1.8191,-1.7335,-1.6495,0.0,0.0,0.0,0.0,-1.6094,-1.6981,-1.7639,-1.7935,-2.0773,0.0,-2.3918,0.0,0.0,-2.6204,-2.6431,-2.6398,-2.6188,-2.5596,-2.5282,-2.5082,-2.3595,-2.1643,-1.9425,-1.7931,-1.8336,0.0,0.0,-1.8092,-1.8831,-1.6342,-1.5133,-1.4609,-1.3868,-1.359,-1.3528,-1.3025,-1.2881,-1.2881,-1.2881,-1.2881,-1.2881,-1.2881,-1.3132,-1.3304,-1.2968,-1.4135,-1.529,0.0,0.0,0.0,0.0,0.0,0.0,0.0,0.0,0.0,0.0,-1.8385,0.0,0.0,0.0,0.0,-1.8659,0.0,0.0,0.0,0.0,0.0,0.0,0.0,0.0,0.0,0.0,0.0,-1.4804,-1.415,-1.3505,-1.2929,-1.3324,-1.3637,-1.3826,-1.4236,-1.456,-1.4698,-1.5005,-1.505,-1.4971,-1.5231,-1.5365,-1.5365,-1.5062,-1.5377,-1.602,-1.572,-1.6495,-1.7752,-1.7639,-1.8442,-1.9712,-2.4476,-2.515,0.0,-2.6965,0.0,0.0,-2.7293,-2.6932,0.0,-2.548,-2.3634,0.0,-2.1741,-1.9832,-1.8442,-1.8129,-1.7363,0.0,-1.7237,0.0,0.0,-1.6374,-1.6669,-1.6921,-1.7148,-1.9816,0.0,-2.3317,0.0,0.0,-2.6941,-2.7137,-2.7086,-2.6864,-2.6439,-2.6411,-2.6608,-2.4303,-2.2352,-2.0698,-1.8688,0.0,0.0,-1.8389,-1.7567,-1.6917,-1.5631,-1.4824,-1.4236,-1.3909,-1.3637,-1.3324,-1.3017,-1.2881,-1.2881,-1.2881,-1.2881,-1.2881,-1.2881,-1.2881,-1.2881,-1.2881,-1.3538,-1.4222,-1.4507,-1.5326,-1.5973,0.0,0.0,0.0,0.0,0.0,0.0,0.0,0.0,0.0,0.0,0.0,0.0,0.0,-1.8565,0.0,0.0,0.0,0.0,0.0,0.0,0.0,0.0,0.0,0.0,-1.5734,-1.5181,-1.5008,-1.5132,-1.4255,-1.4125,-1.4834,-1.5005,-1.5096,-1.5096,-1.5454,-1.5555,-1.5478,-1.5555,-1.5588,-1.5588,-1.5511,-1.5744,-1.6132,-1.632,-1.714,-1.8191,-1.8129,-1.8819,-1.9902,-2.4747,-2.5445,0.0,0.0,0.0,0.0,0.0,-2.5274,0.0,-2.4676,0.0,-2.136,-2.2471,-2.045,-1.8983,-1.8983,0.0,-1.7689,-1.8179,-1.7287,-1.6961,-1.7463,-1.6936,-1.6635,-1.6635,-1.8648,-2.0645,0.0,0.0,0.0,-2.7886,-2.805,-2.791,-2.7492,-2.7412,0.0,0.0,-2.4267,-2.2568,-2.201,-2.0048,-1.9276,-1.9276,-1.9276,-1.7371,-1.4698,-1.4698,-1.4236,-1.3684,-1.3684,-1.3324,-1.2881,-1.2881,-1.2881,-1.2881,-1.2881,-1.2881,-1.2881,-1.2881,-1.2881,-1.2881,-1.2881,-1.2881,-1.3065,-1.3552,-1.342,-1.3238,-1.3732,-1.4525,0.0,0.0,0.0,0.0,0.0,0.0,0.0,0.0,0.0,0.0,0.0,0.0,0.0,0.0,0.0,0.0,0.0,0.0,0.0,0.0,0.0,0.0,-1.6437,-1.6451,0.0,-1.7895,0.0,-1.4699,-1.6216,-1.5648,-1.5499,-1.572,-1.5543,-1.582,-1.638,-1.5908,-1.5676,-1.5632,-1.6238,-1.6231,-1.5933,-1.7144,-1.789,-1.838,-1.8932,-1.946,-2.0055,-2.5661,-2.6136,0.0,0.0,0.0,-2.7045,-2.4245,-2.5303,-2.6175,-2.5464,-2.3555,-2.2352,-2.2564,-2.045,-1.8983,-1.8983,-1.843,0.0,0.0,0.0,0.0,-1.8053,-1.7526,-1.7225,-1.7225,-1.8742,-2.0526,0.0,0.0,0.0,-2.7886,-2.805,-2.8136,-2.814,-2.7519,0.0,-2.5314,-2.3674,0.0,-1.9874,-1.7874,-1.7046,-1.7046,-1.7046,-1.6066,-1.4698,-1.4698,-1.3978,-1.3065,-1.3065,-1.2968,-1.2881,-1.2881,-1.2881,-1.2881,-1.2881,-1.2881,-1.2881,-1.2881,-1.2881,-1.2881,-1.2881,-1.2881,-1.2929,-1.3017,-1.3742,-1.4294,-1.3862,-1.5093,-1.5939,-1.5049,0.0,0.0,0.0,0.0,0.0,0.0,0.0,0.0,0.0,0.0,0.0,0.0,0.0,0.0,0.0,0.0,0.0,0.0,0.0,0.0,0.0,0.0,0.0,0.0,0.0,0.0,-1.6341,-1.4855,-1.4915,-1.6293,-1.5287,-1.5197,-1.5776,-1.6194,-1.6051,-1.5632,-1.6238,-1.6754,-1.7177,-1.8294,-1.8794,-1.8895,-1.9472,-2.0067,-2.0696,0.0,0.0,-2.6828,0.0,0.0,0.0,0.0,-2.5379,0.0,-2.3683,-2.2607,-2.1947,-2.165,-2.027,-1.9434,-1.9434,-1.8945,-1.8631,-1.8631,-1.8355,-1.8204,-1.8204,-1.7953,-1.7802,-1.7802,-1.8493,-2.0205,-2.2958,0.0,0.0,0.0,0.0,0.0,-2.878,0.0,-2.6205,0.0,0.0,0.0,-1.931,-1.7329,-1.6522,-1.6522,-1.6522,-1.5964,-1.5186,-1.5186,-1.4376,-1.3324,-1.3017,-1.2881,-1.2881,-1.2881,-1.2881,-1.2881,-1.2881,-1.2881,-1.2881,-1.2881,-1.2881,-1.2881,-1.2881,-1.2881,-1.2881,-1.2881,-1.361,-1.4143,-1.3862,-1.4744,-1.5429,-1.5045,-1.5721,0.0,0.0,0.0,0.0,0.0,0.0,0.0,0.0,0.0,0.0,0.0,0.0,0.0,0.0,0.0,0.0,0.0,0.0,0.0,0.0,0.0,0.0,0.0,0.0,0.0,-1.7625,-1.5983,-1.5499,-1.6008,-1.5744,-1.5945,-1.6524,-1.6504,-1.666,-1.6953,-1.7252,-1.7551,-1.789,-1.8706,-1.8983,-1.9033,-1.961,-2.0194,-2.0894,0.0,-2.637,0.0,0.0,-2.7297,0.0,-2.6018,-2.5502,-2.4359,-2.1983,-2.1556,-2.128,-2.0781,-2.015,-1.9798,-1.9798,-1.9434,-1.9196,-1.9196,-1.8781,-1.8543,-1.8543,-1.8442,-1.838,-1.838,-1.8267,-1.9716,0.0,0.0,0.0,0.0,0.0,0.0,0.0,0.0,0.0,0.0,0.0,-1.9547,-1.8897,-1.7204,-1.6522,-1.6522,-1.6522,-1.6151,-1.5588,-1.5588,-1.4812,-1.3732,-1.3238,-1.3017,-1.2881,-1.2881,-1.2881,-1.2881,-1.2881,-1.2881,-1.2881,-1.2881,-1.2881,-1.2881,-1.2881,-1.2881,-1.2881,-1.2881,-1.3467,-1.3956,-1.3815,-1.419,-1.462,-1.5031,-1.5064,0.0,0.0,0.0,0.0,0.0,0.0,0.0,0.0,0.0,0.0,0.0,0.0,0.0,0.0,0.0,0.0,0.0,0.0,0.0,0.0,0.0,-2.0078,-2.1334,0.0,-1.6811,0.0,-1.6889,-1.6008,-1.582,-1.6262,-1.6803,-1.7363,-1.7024,-1.7375,-1.8216,-1.8329,-1.838,-1.843,-1.8982,-1.9196,-1.9246,-1.98,-2.0446,-2.1064,0.0,0.0,0.0,0.0,0.0,0.0,-2.6038,-2.5756,-2.4896,-2.2506,-2.1794,-2.128,-2.0781,-2.015,-1.9798,-1.9798,-1.9761,-1.9736,-1.9736,-1.9685,-1.9648,-1.9648,-1.9196,-1.8908,-1.8908,-1.8455,-1.9201,0.0,0.0,0.0,0.0,0.0,0.0,0.0,0.0,0.0,0.0,-2.0803,-1.9303,-1.7523,-1.6816,-1.6522,-1.6522,-1.6522,-1.6151,-1.5588,-1.5588,-1.4812,-1.3779,-1.3732,-1.3324,-1.2881,-1.2881,-1.2881,-1.2881,-1.2881,-1.2881,-1.2881,-1.2881,-1.2881,-1.2881,-1.2881,-1.2881,-1.2881,-1.2881,-1.3789,-1.4468,-1.3909,-1.3815,-1.4215,-1.536,-1.5306,-1.5477,0.0,0.0,0.0,0.0,0.0,0.0,-1.755,0.0,0.0,0.0,0.0,0.0,0.0,0.0,0.0,0.0,0.0,0.0,-2.1292,0.0,-2.1039,-2.0798,-1.831,0.0,-1.7492,-1.5723,-1.5421,-1.6405,-1.6405,-1.6776,-1.74,-1.7852,-1.8103,-1.8242,-1.8695,-1.8908,-1.8958,-1.9522,-1.9736,-1.9787,-2.0484,-2.1113,-2.171,0.0,0.0,0.0,0.0,0.0,0.0,0.0,-2.5344,-2.4251,-2.2937,-2.2033,-2.128,-2.0781,-2.015,-1.9798,-1.9798,-1.9798,-1.9798,-1.9798,-1.9798,-1.9798,-1.9798,-1.9597,-1.9497,-1.9497,-1.9271,-1.9962,0.0,0.0,0.0,0.0,0.0,0.0,0.0,0.0,-2.2507,-2.0704,-1.9265,-1.7958,-1.6848,-1.6609,-1.6522,-1.6522,-1.6522,-1.6337,-1.6139,-1.6139,-1.5599,-1.4858,-1.4858,-1.4014,-1.2881,-1.2881,-1.2881,-1.2881,-1.2881,-1.2881,-1.2881,-1.2881,-1.2881,-1.2881,-1.2881,-1.2881,-1.2881,-1.2881,-1.3836,-1.4606,-1.4376,-1.4915,-1.5242,-1.463,-1.4722,-1.5022,0.0,0.0,0.0,0.0,0.0,0.0,0.0,0.0,-1.6957,0.0,0.0,0.0,0.0,0.0,0.0,0.0,0.0,0.0,-2.0448,0.0,-1.9993,-1.9205,-1.8229,-1.7773,-1.7881,-1.6798,-1.6565,-1.7061,-1.7359,-1.7619,-1.7928,-1.8794,-1.8982,-1.8744,-1.9271,-1.9698,-2.0024,-2.0238,-2.0526,-2.0923,-2.1629,-2.2288,-2.2942,-2.5756,0.0,-2.7039,0.0,-2.6505,-2.6052,-2.6181,-2.4963,-2.3791,-2.3153,-2.2309,-2.1518,-2.0966,-2.0401,-2.0049,-2.0049,-1.9899,-1.9798,-1.9798,-1.9798,-1.9798,-1.9798,-1.9798,0.0,-1.9798,-1.9798,-2.0284,-2.1338,-2.3152,0.0,0.0,0.0,0.0,0.0,-2.2255,-2.1089,-2.0178,-1.8559,-1.7539,-1.6999,-1.6835,-1.6672,-1.6522,-1.6522,-1.6522,-1.6522,-1.6522,-1.6095,-1.5588,-1.5588,-1.4641,-1.343,-1.343,-1.32,-1.292,-1.3104,-1.3065,-1.2881,-1.2881,-1.2881,-1.2881,-1.2881,-1.2881,-1.2881,-1.2881,-1.3836,-1.4789,-1.5152,-1.5788,-1.582,-1.4538,-1.4376,-1.4607,-1.5056,0.0,0.0,0.0,0.0,0.0,0.0,-1.7844,-1.7382,-1.8029,0.0,0.0,0.0,0.0,0.0,0.0,0.0,0.0,0.0,0.0,0.0,0.0,-1.8573,-1.8359,-1.7963,-1.7596,-1.7463,-1.7639,-1.8191,-1.853,-1.8719,-1.9472,-1.9597,-1.9284,-1.9648,-2.015,-2.0718,-2.0718,-2.1004,-2.1592,-2.2268,-2.3002,-2.3677,-2.5665,-2.6496,-2.7284,-2.7284,-2.7271,-2.6894,-2.5892,-2.4708,-2.3791,-2.3153,-2.2648,-2.2096,-2.1543,-2.0991,-2.0706,-2.0706,-2.0125,-1.9798,-1.9798,-1.9798,-1.9798,0.0,0.0,-1.9798,-1.9798,-1.9798,-1.9811,-1.9811,0.0,0.0,-2.2287,0.0,-2.3724,-2.221,-2.2196,-2.1284,-1.9761,-1.9233,-1.8694,-1.8141,-1.7589,-1.7024,-1.6522,-1.6522,-1.6522,-1.6522,-1.6522,-1.6095,-1.5588,-1.5588,-1.5186,-1.4663,-1.4663,-1.3836,-1.3017,-1.3589,-1.3372,-1.2881,-1.2881,-1.2881,-1.2881,-1.2881,-1.2881,-1.2881,-1.2881,-1.3836,-1.5028,-1.6238,-1.6008,-1.5588,-1.5588,-1.4595,-1.4286,-1.5639,0.0,0.0,0.0,0.0,0.0,0.0,-1.8627,-1.846,-1.9218,0.0,0.0,0.0,0.0,0.0,0.0,0.0,0.0,-2.1292,-2.2307,0.0,-1.9718,-1.9611,-1.8865,-1.7408,-1.742,-1.7664,-1.8216,-1.8769,-1.9296,-1.9786,-1.9798,-1.9798,-1.9798,-1.9798,-2.015,-2.0718,-2.0718,-2.1004,-2.1592,-2.2159,-2.2897,-2.3608,-2.6257,-2.6531,-2.6782,-2.6782,-2.6384,-2.6003,-2.5714,-2.4697,-2.3929,-2.3753,-2.3226,-2.2811,-2.2636,-2.1782,-2.123,0.0,-2.1054,-2.0953,0.0,-2.0602,-2.0388,-2.0388,-2.0012,-1.9798,-1.9798,-1.9798,-1.9987,-2.0388,0.0,0.0,0.0,-2.2114,-2.1446,-2.054,-2.054,-2.0105,-1.9258,-1.9046,-1.8706,-1.8191,-1.8016,-1.7601,-1.7149,-1.7526,-1.7187,-1.6572,-1.6974,-1.6716,-1.6194,-1.6194,-1.582,-1.5365,-1.5788,-1.5107,-1.4154,-1.4376,-1.4014,-1.3505,-1.3505,-1.341,-1.3242,-1.2959,-1.3096,-1.3232,-1.2939,-1.3836,-1.5017,-1.625,-1.6337,-1.6095,-1.5676,-1.5276,-1.533,-1.6291,0.0,0.0,0.0,0.0,0.0,0.0,-1.8939,-1.8673,0.0,-1.9084,0.0,0.0,0.0,0.0,0.0,0.0,0.0,0.0,-1.9436,0.0,-1.7545,-1.8604,-1.8522,-1.7388,-1.8141,-1.8781,-1.9296,-1.9472,-1.9861,-2.0388,-2.0388,-2.0388,-2.0426,-2.079,-2.084,-2.0794,-2.1493,-2.1895,-2.221,-2.3311,-2.4173,-2.4912,-2.6533,-2.6533,-2.6458,-2.6176,-2.5837,-2.546,-2.5059,-2.4431,-2.3916,-2.3703,-2.3364,-2.3078,-2.3078,-2.2523,0.0,-2.182,-2.1606,-2.1493,-2.1493,-2.1167,-2.0978,-2.0978,-2.0627,-2.0439,-2.0439,0.0,0.0,-2.0718,-2.134,-2.1655,-2.1642,-2.0754,-2.015,-1.9798,-1.9798,-1.9623,-1.9321,-1.9321,-1.9007,-1.8518,-1.8518,-1.8179,-1.7727,-1.8078,-1.7765,-1.72,-1.7564,-1.7463,-1.7124,-1.6911,-1.6603,-1.6276,-1.6442,-1.5976,-1.5299,-1.4835,-1.46,-1.4318,-1.38,-1.3891,-1.3982,-1.3322,-1.3311,-1.349,-1.357,-1.4154,-1.5017,-1.625,-1.6522,-1.638,-1.6008,-1.5764,-1.574,-1.6225,-1.5374,-1.5484,-1.7717,0.0,0.0,0.0,0.0,0.0,0.0,-1.8117,0.0,0.0,0.0,0.0,0.0,0.0,0.0,-1.8993,-1.9008,0.0,-1.7692,-1.8696,-1.8819,-1.8003,-1.8894,-1.9497,-1.9811,-2.0024,-2.0326,-2.0718,-2.0718,-2.0832,-2.0991,-2.1129,-2.1217,-2.1355,-2.2046,-2.2435,-2.272,-2.3521,-2.4509,-2.5425,-2.6533,-2.6533,0.0,0.0,-2.5649,0.0,-2.4268,-2.4079,-2.3853,-2.3215,-2.3103,-2.3078,-2.3078,-2.3078,-2.2924,-2.241,0.0,0.0,0.0,-2.1568,-2.1543,-2.1543,-2.1506,-2.1493,-2.1493,-2.1493,-2.1242,-2.0781,-2.0225,-1.9936,-1.9861,-1.9861,-1.9836,-1.9798,-1.9798,-1.9798,-1.9798,-1.9798,-1.9522,-1.9083,-1.9083,-1.8744,-1.8267,-1.8304,-1.8267,-1.8204,-1.8242,-1.8242,-1.8129,-1.7564,-1.7388,-1.7275,-1.6697,-1.6522,-1.6306,-1.5153,-1.5173,-1.5293,-1.4033,-1.445,-1.4977,-1.3899,-1.3596,-1.3771,-1.454,-1.4754,-1.5062,-1.625,-1.6522,-1.6522,-1.6522,-1.6051,-1.5676,-1.5676,-1.5186,-1.5297,-1.6709,0.0,0.0,0.0,0.0,0.0,0.0,-1.6855,-1.7127,0.0,0.0,0.0,0.0,0.0,-1.9732,-2.0176,-2.0363,-2.0152,-1.9576,-1.9631,-1.9455,-1.9096,-1.9623,-1.9874,-1.9936,-2.0476,-2.0794,-2.0832,-2.0832,-2.1066,-2.1506,-2.1041,-2.138,-2.2209,-2.2322,-2.2636,-2.3025,-2.3173,-2.4092,-2.5315,0.0,0.0,-2.6483,-2.6276,-2.6319,-2.6025,-2.5322,-2.4883,-2.4418,-2.3866,-2.3414,-2.3078,-2.3078,-2.3078,-2.3027,-2.289,-2.2824,-2.2749,-2.2749,-2.2347,-2.2121,-2.2121,-2.1707,-2.1493,-2.1493,-2.1493,-2.143,-2.1292,-2.1581,-2.1292,-2.0517,-2.0517,-2.0225,-1.9798,-1.9798,-1.9798,-1.9798,-1.9798,-1.9736,-1.9623,-1.9623,-1.9309,-1.8882,-1.9271,-1.892,-1.8254,-1.8681,-1.8555,-1.8129,-1.7564,-1.7388,-1.7275,-1.6697,-1.6522,-1.6424,-1.6019,-1.6057,-1.6079,-1.5648,-1.5635,-1.5605,-1.4935,-1.4385,-1.417,-1.4974,-1.5152,-1.5416,-1.6324,-1.6522,-1.6522,-1.6522,-1.638,-1.6281,-1.6281,-1.6151,-1.6492,-1.7609,-1.7297,0.0,0.0,-1.758,-1.6889,-1.6009,-1.6305,-1.6747,0.0,0.0,0.0,0.0,0.0,-1.8014,-1.8117,-1.8552,-1.8689,-1.8562,-1.8986,-1.957,-2.0275,-2.0401,-2.0677,-2.1091,-2.123,-2.1518,-2.192,-2.192,-2.1995,-2.2133,-2.2435,-2.1958,-2.1179,-2.2447,-2.2498,-2.204,-2.3515,-2.461,-2.5439,-2.6533,-2.6533,-2.6533,-2.6533,-2.6533,-2.6332,-2.5686,-2.5159,-2.4619,-2.4067,-2.3489,-2.3078,-2.3078,-2.3078,-2.3078,-2.3078,-2.3078,-2.3078,-2.3078,-2.2862,-2.2686,-2.2686,-2.2397,-2.2234,-2.2234,-2.2234,-2.2121,-2.187,-2.1907,-2.1631,-2.1041,-2.1041,-2.074,-2.02,-2.02,-2.0049,-1.9798,-1.9798,-1.9798,-1.9798,-1.9798,-1.9635,-1.9409,-1.9698,-1.9447,-1.8982,-1.9271,-1.9196,-1.8857,-1.8317,-1.8129,-1.8041,-1.7476,-1.7287,-1.7252,-1.7063,-1.7135,-1.7111,-1.6683,-1.6596,-1.6417,-1.5316,-1.4526,-1.4225,-1.4754,-1.5066,-1.5279,-1.5631,-1.6082,-1.6325,-1.6144,-1.6324,-1.6522,-1.6522,-1.7012,-1.757,-1.8044,-1.7794,0.0,-1.7681,-1.6847,-1.6089,-1.562,-1.5644,-1.5971,-1.6667,0.0,0.0,-1.8796,-1.8733,-1.8702,-1.8806,-1.863,-1.8694,-1.8932,-1.9233,-1.9811,-2.0718,-2.0718,-2.0953,-2.1493,-2.1744,-2.2033,-2.2309,-2.2309,-2.2447,-2.2686,-2.2736,-2.2372,-2.1882,-2.2786,-2.2774,-2.2425,-2.3767,-2.4794,-2.5508,-2.6533,-2.6533,-2.6533,-2.6533,-2.6389,-2.6189,-2.5787,-2.5146,-2.4556,-2.4167,-2.354,-2.3078,-2.3078,-2.3078,-2.3115,-2.3263,-2.3128,-2.3078,-2.3078,-2.3078,-2.3078,-2.3078,-2.3078,-2.3078,-2.3078,-2.3078,-2.2912,-2.2435,-2.197,-2.1694,-2.1606,-2.1606,-2.1317,-2.0844,-2.0844,-2.0476,-1.9936,-1.9936,-1.9874,-1.9798,-1.9798,-1.9798,-1.9798,-1.9798,-1.9798,-1.9798,-1.9798,-1.9798,-1.9723,-1.9196,-1.8983,-1.8932,-1.838,-1.8204,-1.8161,-1.8101,-1.8216,-1.8141,-1.7468,-1.7427,-1.7203,-1.5457,-1.4655,-1.437,-1.4562,-1.4883,-1.5141,-1.4923,-1.5694,-1.6267,-1.5813,-1.623,-1.6647,-1.6721,-1.7682,-1.8412,-1.8332,0.0,-1.7593,-1.7339,-1.5942,-1.5152,-1.5543,-1.5312,-1.5494,-1.6417,-1.7213,0.0,0.0,-1.9219,-2.0181,-2.0601,-1.9636,-1.9359,-1.9798,-1.9886,-2.0225,-2.0844,-2.092,-2.1204,-2.1757,-2.2221,-2.2435,-2.2435,-2.2435,-2.2698,-2.304,-2.2636,-2.2661,-2.2965,-2.304,-2.3027,-2.3072,-2.4079,-2.4851,-2.5508,-2.6533,-2.6533,-2.6533,-2.6533,-2.605,-2.5862,-2.6332,-2.5071,-2.4268,-2.4644,-2.3791,-2.3078,-2.3078,-2.3078,-2.3339,-2.3828,-2.3414,-2.3078,-2.3078,-2.3078,-2.3078,-2.3078,-2.3078,-2.3078,-2.3078,-2.3078,-2.3027,-2.3012,-2.2865,-2.2636,-2.2184,-2.2184,-2.1895,-2.1355,-2.1355,-2.1054,-2.058,-2.058,-2.025,-1.9798,-1.9798,-1.9798,-1.9798,-1.9798,-1.9798,-1.9798,-1.9798,-1.9798,-1.9723,-1.9196,-1.8983,-1.8932,-1.838,-1.8204,-1.8269,-1.8709,-1.8858,-1.8809,-1.8517,-1.8012,-1.739,-1.6444,-1.5713,-1.5268,-1.5427,-1.5538,-1.5648,-1.5752,-1.6443,-1.6799,-1.6291,-1.6773,-1.7403,-1.7791,-1.803,-1.8472,-1.9344,0.0,-1.7983,-1.7996,-1.6954,-1.6064,-1.5632,-1.6435,-1.6806,-1.6438,-1.7471,-1.8686,-1.9965,-1.9499,-1.9798,-2.1125,-2.0178,-1.9723,-1.9798,-2.0288,-2.0803,-2.1368,-2.1832,-2.2347,-2.2874,-2.2915,-2.3012,-2.3012,-2.3012,-2.299,-2.3065,-2.2977,-2.2786,-2.2485,-2.289,-2.2849,-2.266,-2.4536,-2.5287,-2.5618,-2.6533,-2.6533,-2.6533,-2.6533,-2.6239,-2.6151,-2.6483,-2.5548,-2.4946,-2.5209,-2.428,-2.3602,-2.3602,-2.3265,-2.3364,-2.3954,-2.3753,-2.3728,-2.4029,-2.3766,-2.3602,-2.3602,-2.3602,-2.3452,-2.3078,-2.3078,-2.3078,-2.3078,-2.3078,-2.294,-2.2761,-2.2761,-2.246,-2.1933,-2.1933,-2.1631,-2.1091,-2.0844,-2.069,-2.0652,-2.0049,-1.9987,-2.0238,-1.9924,-1.9798,-1.9798,-1.9798,-1.9798,-1.9761,-1.9522,-1.9447,-1.9397,-1.9145,-1.9058,-1.9108,-1.9371,-1.9447,-1.9332,-1.8814,-1.8447,-1.7907,-1.6754,-1.6255,-1.5867,-1.531,-1.5391,-1.5356,-1.479,-1.5536,-1.6129,-1.5426,-1.582,-1.675,-1.8253,-1.7784,0.0,0.0,-1.8653,-1.7795,-1.7619,-1.6954,-1.6504,-1.6569,-1.6769,-1.6993,-1.7333,-1.786,-1.8609,-1.9625,-1.952,-1.9737,-2.0481,-2.0029,-1.9949,-2.0263,-2.0539,-2.1091,-2.1933,-2.2184,-2.2598,-2.3078,-2.3078,-2.3078,-2.3078,-2.3078,-2.3078,-2.3078,-2.3078,-2.2927,-2.2786,-2.2977,-2.2975,-2.2951,-2.473,-2.5398,-2.5618,-2.6533,-2.6533,-2.6533,-2.6533,-2.6352,-2.637,-2.6508,-2.5862,-2.546,-2.5573,-2.477,-2.4192,-2.4192,-2.3791,-2.3753,-2.4318,-2.4255,-2.4418,-2.4971,-2.4607,-2.4255,-2.4004,-2.3866,-2.359,-2.3078,-2.3078,-2.3078,-2.3078,-2.3078,-2.3078,-2.3078,-2.3078,-2.2852,-2.2498,-2.2498,-2.2196,-2.1656,-2.123,-2.1217,-2.1405,-2.0401,-2.0338,-2.0832,-2.0075,-1.9886,-1.9987,-1.9849,-1.9798,-1.9798,-1.9798,-1.9798,-1.9798,-1.9798,-1.9798,-1.9798,-1.9798,-1.9798,-1.9695,-1.9097,-1.8821,-1.8447,-1.7302,-1.6765,-1.6285,-1.5385,-1.529,-1.5137,-1.415,-1.5006,-1.5654,-1.482,-1.5217,-1.6249,-1.8081,0.0,0.0,0.0,-1.8485,-1.7758,-1.7488,-1.7092,-1.7087,-1.7526,-1.7223,-1.7408,-1.8319,-1.8474,-1.8718,-1.9158,-1.9585,-1.9861,-1.9999,-1.9874,-2.0075,-2.0706,-2.0844,-2.1343,-2.2309,-2.2447,-2.2723,-2.3078,-2.3078,-2.3078,-2.3078,-2.3078,-2.3078,-2.3078,-2.3078,-2.3078,-2.3078,-2.3078,-2.3078,-2.3245,-2.461,-2.5231,-2.5563,-2.6533,-2.6533,-2.6533,-2.6533,-2.6013,-2.5837,-2.6377,-2.5561,-2.5059,-2.5536,-2.5109,-2.4757,-2.4757,-2.472,-2.4908,-2.5435,-2.5046,-2.4983,-2.5498,-2.5498,-2.5034,-2.4042,-2.3489,-2.3175,-2.3078,-2.3078,-2.3078,-2.3078,-2.3078,-2.3078,-2.3078,-2.3078,-2.3053,-2.3015,-2.3015,-2.2761,-2.2246,-2.2209,-2.192,-2.1443,-2.084,-2.0941,-2.1305,-2.0213,-2.0137,-2.058,-1.9987,-1.9798,-1.9798,-1.9798,-1.9798,-1.9798,-1.9798,-1.9798,-1.9798,-1.9798,-1.9798,-1.9798,-1.9747,-1.9202,-1.8661,-1.8555,-1.7523,-1.6482,-1.6394,-1.5843,-1.5381,-1.5293,-1.5887,-1.6283,-1.5683,-1.6223,-1.6791,-1.6973,0.0,0.0,-1.8097,-1.8409,-1.8521,-1.8191,-1.8103,-1.8091,-1.8141,-1.8557,-1.887,-1.8908,-1.9396,-1.9684,-1.9748,-1.9786,-2.0049,-2.0643,-2.0075,-2.0075,-2.0706,-2.1179,-2.1732,-2.2322,-2.2824,-2.3027,-2.3078,-2.3078,-2.3078,-2.3078,-2.3078,-2.3078,-2.3078,-2.3078,-2.3078,-2.3078,-2.3078,-2.3078,-2.3185,-2.406,-2.4794,-2.5508,-2.6383,-2.6533,-2.6533,-2.6533,-2.6276,-2.6214,-2.6496,-2.6101,-2.5912,-2.6101,-2.5649,-2.531,-2.531,-2.5008,-2.5034,-2.5548,-2.541,-2.5536,-2.6101,-2.6138,-2.5649,-2.4556,-2.4305,-2.3853,-2.309,-2.3078,-2.3078,-2.3078,-2.3078,-2.3078,-2.3078,-2.3078,-2.3078,-2.3078,-2.3078,-2.2965,-2.2799,-2.246,-2.2385,-2.2435,-2.1543,-2.1771,-2.26,-2.1849,-2.172,-2.1934,-2.1693,-2.1309,-2.0988,-2.0988,-2.0988,-2.089,-2.0534,-2.0396,-2.0359,-1.9901,-2.0062,-2.0338,-2.0338,-1.9853,-1.9254,-1.8821,-1.8286,-1.7731,-1.7302,-1.6585,-1.6012,-1.5772,-1.5776,-1.5676,-1.5245,-1.5375,-1.6213,-1.8125,0.0,-1.6843,-1.8809,-1.8363,-1.7788,-1.7654,-1.7941,-1.8342,-1.8681,-1.8907,-1.9171,-1.9484,-1.9685,-1.9798,-1.9798,-2.0137,-2.0439,-2.0706,-2.079,-2.1117,-2.1681,-2.1895,-2.2284,-2.2824,-2.2977,-2.3078,-2.3078,-2.3078,-2.3078,-2.3078,-2.3078,-2.3078,-2.3078,-2.3078,-2.3078,-2.3078,-2.3078,-2.3078,-2.3198,-2.4002,-2.4794,-2.5508,-2.6314,-2.6533,-2.6533,-2.6533,-2.6533,-2.6533,-2.6533,-2.6533,-2.6533,-2.6533,-2.6113,-2.5862,-2.5862,-2.5548,-2.5473,-2.5837,-2.5862,-2.6038,-2.6496,-2.6533,-2.605,-2.5109,-2.4908,-2.4381,-2.3427,-2.3401,-2.3314,-2.3078,-2.3078,-2.3078,-2.3078,-2.3078,-2.3078,-2.3078,-2.3078,-2.3245,-2.3458,-2.2783,-2.2905,-2.3408,-2.2236,-2.24,-2.3241,-2.2499,-2.2538,-2.2883,-2.2743,-2.2501,-2.2325,-2.2325,-2.2325,-2.2242,-2.1812,-2.1539,-2.1208,-2.0321,-2.0476,-2.097,-2.097,-2.0639,-2.0182,-1.9507,-1.9258,-1.901,-1.8139,-1.7656,-1.7234,-1.6806,-1.6701,-1.6526,-1.6285,-1.6224,-1.686,-1.8834,-1.7654,-1.7185,-1.9248,-1.8797,-1.8253,-1.8116,-1.8598,-1.9058,-1.9246,-1.9434,-1.9698,-2.0037,-2.0075,-2.0075,-2.0075,-2.0504,-2.0869,-2.1167,-2.1543,-2.202,-2.2573,-2.2397,-2.2585,-2.3078,-2.3314,-2.3401,-2.3414,-2.359,-2.3565,-2.3414,-2.359,-2.3403,-2.309,-2.3265,-2.3301,-2.3078,-2.3078,-2.3078,-2.321,-2.3927,-2.4847,-2.5827,-2.6314,-2.6533,-2.6533,-2.6533,-2.6533,-2.6533,-2.6533,-2.6533,-2.6533,-2.6533,-2.6533,-2.6533,-2.6533,-2.6533,-2.6533,-2.6533,-2.6533,-2.6533,-2.6546,-2.6546,-2.6214,-2.5636,-2.5109,-2.4569,-2.4017,-2.4004,-2.3715,-2.3078,-2.3078,-2.3078,-2.3078,-2.3078,-2.3078,-2.3078,-2.3078,-2.3531,-2.4234,-2.3424,-2.3543,-2.4182,-2.2814,-2.2648,-2.3012,-2.192,-2.2313,-2.3358,-2.2789,-2.3094,-2.3701,-2.3701,-2.3701,-2.3701,-2.3701,-2.3185,-2.2352,-2.1085,-2.1066,-2.1493,-2.1493,-2.1493,-2.1368,-2.0869,-2.0569,-2.0091,-1.8964,-1.9031,-1.9177,-1.8622,-1.8904,-1.9313,-1.9313,-1.9313,-1.9132,-1.8714,-1.902,-1.9194,-1.8947,-1.9765,-2.0266,-1.9833,-2.0326,-2.0439,-1.9861,-2.0326,-2.0718,-2.0731,-2.0731,-2.0731,-2.0731,-2.0731,-2.1179,-2.2284,-2.2322,-2.2585,-2.3078,-2.2585,-2.2598,-2.309,-2.3715,-2.4004,-2.4017,-2.4569,-2.4519,-2.4029,-2.4582,-2.4192,-2.3128,-2.3766,-2.3665,-2.309,-2.309,-2.309,-2.3165,-2.3791,-2.5043,-2.645,-2.6314,-2.6533,-2.6533,-2.6533,-2.6533,-2.6533,-2.6533,-2.6533,-2.6533,-2.6533,-2.6804,-2.6892,-2.6571,-2.6804,-2.6879,-2.6559,-2.6816,-2.7205,-2.7595,-2.7607,-2.7356,-2.6804,-2.5875,-2.5121,-2.4594,-2.4192,-2.3916,-2.374,-2.3339,-2.3078,-2.3078,-2.3078,-2.3078,-2.3078,-2.3078,-2.3245,-2.3424,-2.3198,-2.3245,-2.3399,-2.3009,-2.3272,-2.3904,-2.3566,-2.3705,-2.4163,-2.4515,-2.4473,-2.4319,-2.4839,-2.5047,-2.4936,-2.4531,-2.3547,-2.2538,-2.2153,-2.2052,-2.2071,-2.2071,-2.2347,-2.2422,-2.1481,-2.1244,-2.1101,-2.0711,-2.0378,-2.0029,-1.9876,-1.9552,-1.9313,-1.9313,-1.9313,-1.9433,-1.9795,-1.9959,-2.0201,-2.0631,-2.0977,-2.0983,-2.0489,-2.0618,-2.0655,-2.0426,-2.0618,-2.0882,-2.1217,-2.1242,-2.1242,-2.1242,-2.1606,-2.197,-2.2297,-2.2686,-2.3163,-2.374,-2.3175,-2.3175,-2.374,-2.3916,-2.4205,-2.4582,-2.4745,-2.4732,-2.4582,-2.4745,-2.4632,-2.433,-2.4506,-2.4469,-2.4318,-2.4318,-2.4318,-2.4343,-2.4506,-2.5213,-2.6156,-2.6914,-2.6929,-2.6854,-2.7067,-2.6929,-2.6854,-2.708,-2.7105,-2.7105,-2.7105,-2.7406,-2.7482,-2.7155,-2.7406,-2.7469,-2.7143,-2.7419,-2.7745,-2.8084,-2.8109,-2.7959,-2.762,-2.6741,-2.59,-2.5146,-2.4808,-2.4531,-2.433,-2.3979,-2.3803,-2.3803,-2.3803,-2.369,-2.3489,-2.3703,-2.3788,-2.3888,-2.3826,-2.3963,-2.4182,-2.3914,-2.391,-2.4261,-2.4827,-2.474,-2.4532,-2.581,-2.5877,-2.5394,-2.612,-2.6378,-2.6236,-2.534,-2.4451,-2.3595,-2.3096,-2.2786,-2.2636,-2.2636,-2.2874,-2.2915,-2.2297,-2.2133,-2.202,-2.1594,-2.1465,-2.1409,-2.1202,-2.096,-2.0807,-2.0807,-2.0972,-2.1236,-2.1448,-2.1665,-2.1829,-2.1825,-2.1995,-2.1857,-2.1091,-2.0991,-2.0991,-2.0991,-2.0991,-2.1217,-2.1782,-2.182,-2.1907,-2.2133,-2.246,-2.2836,-2.3288,-2.3627,-2.3979,-2.4318,-2.3979,-2.3979,-2.433,-2.4531,-2.4808,-2.5134,-2.536,-2.5347,-2.5146,-2.5372,-2.5222,-2.4845,-2.5046,-2.5008,-2.482,-2.482,-2.482,-2.4845,-2.5059,-2.5614,-2.6413,-2.7851,-2.7708,-2.7519,-2.8009,-2.7695,-2.7532,-2.8034,-2.8109,-2.8109,-2.8109,-2.8147,-2.816,-2.8109,-2.8147,-2.816,-2.8109,-2.8147,-2.8197,-2.8247,-2.826,-2.8235,-2.8185,-2.7657,-2.6879,-2.5837,-2.5674,-2.536,-2.4895,-2.4845,-2.482,-2.482,-2.482,-2.4556,-2.4092,-2.4594,-2.4899,-2.5088,-2.4912,-2.5167,-2.5733,-2.5052,-2.4519,-2.418,-2.5527,-2.5274,-2.4553,-2.661,-2.6952,-2.6582,-2.7446,-2.7715,-2.7494,-2.6177,-2.5668,-2.537,-2.4133,-2.3534,-2.3273,-2.3324,-2.3311,-2.3165,-2.3215,-2.3228,-2.3,-2.1882,-2.241,-2.2927,-2.2485,-2.2786,-2.309,-2.314,-2.364,-2.3841,-2.3303,-2.369,-2.364,-2.2611,-2.2849,-2.2736,-2.1681,-2.1612,-2.1668,-2.1668,-2.1774,-2.2002,-2.2463,-2.2501,-2.2657,-2.3113,-2.3128,-2.369,-2.472,-2.4795,-2.4845,-2.4895,-2.4895,-2.4895,-2.4895,-2.5372,-2.5624,-2.5686,-2.6214,-2.6176,-2.5699,-2.6226,-2.5887,-2.5008,-2.5473,-2.5398,-2.4971,-2.4971,-2.4971,-2.5021,-2.5498,-2.6191,-2.6959,-2.7999,-2.8009,-2.7959,-2.8084,-2.8009,-2.7971,-2.8084,-2.8109,-2.8109,-2.8109,-2.8486,-2.8586,-2.816,-2.8486,-2.8574,-2.8147,-2.8499,-2.895,-2.9402,-2.9428,-2.9227,-2.8775,-2.8222,-2.7808,-2.757,-2.6276,-2.5536,-2.5423,-2.5021,-2.482,-2.482,-2.482,-2.4757,-2.4644,-2.477,-2.4809,-2.4887,-2.4834,-2.4872,-2.4988,-2.4872,-2.4745,-2.4657,-2.495,-2.4633,-2.4236,-2.5707,-2.6308,-2.661,-2.7918,-2.8368,-2.8263,-2.7408,-2.7097,-2.6997,-2.6676,-2.575,-2.4852,-2.5323,-2.4664,-2.3916,-2.4356,-2.4456,-2.4167,-2.3037,-2.2902,-2.304,-2.2975,-2.299,-2.3215,-2.3728,-2.3916,-2.4092,-2.4406,-2.4205,-2.3916,-2.3665,-2.3339,-2.2887,-2.2209,-2.2665,-2.2988,-2.2988,-2.3955,-2.4345,-2.3922,-2.3877,-2.3638,-2.3125,-2.3565,-2.3929,-2.4167,-2.4594,-2.5021,-2.5423,-2.5423,-2.5423,-2.5435,-2.5536,-2.5837,-2.6276,-2.6471,-2.6458,-2.6276,-2.6471,-2.6395,-2.6113,-2.6226,-2.6214,-2.6101,-2.6101,-2.6101,-2.6113,-2.6226,-2.64,-2.6806,-2.885,-2.8687,-2.8586,-2.8863,-2.8687,-2.8586,-2.8875,-2.8913,-2.8913,-2.8913,-2.9164,-2.9227,-2.8938,-2.9164,-2.9227,-2.8938,-2.9176,-2.9465,-2.9779,-2.9792,-2.9654,-2.9352,-2.88,-2.8499,-2.8499,-2.7381,-2.6666,-2.6402,-2.5862,-2.5598,-2.5598,-2.5598,-2.546,-2.5197,-2.5473,-2.5448,-2.5209,-2.5485,-2.5598,-2.5598,-2.5598,-2.5435,-2.5275,-2.5934,-2.5396,-2.457,-2.6317,-2.6802,-2.6942,-2.8542,-2.8773,-2.8483,-2.8517,-2.8248,-2.7864,-2.7485,-2.6548,-2.572,-2.5977,-2.5265,-2.4583,-2.523,-2.5116,-2.4669,-2.4079,-2.3941,-2.3941,-2.3941,-2.3941,-2.4029,-2.433,-2.4594,-2.477,-2.482,-2.4795,-2.4582,-2.4067,-2.374,-2.3339,-2.2774,-2.3114,-2.3548,-2.3919,-2.4806,-2.5231,-2.4851,-2.4718,-2.4642,-2.442,-2.4621,-2.4883,-2.5159,-2.5448,-2.5737,-2.6,-2.6013,-2.6013,-2.6013,-2.6013,-2.6422,-2.704,-2.6658,-2.6714,-2.704,-2.6658,-2.6533,-2.6533,-2.6533,-2.6533,-2.6533,-2.6533,-2.6533,-2.6533,-2.6533,-2.6533,-2.6714,-2.9691,-2.9402,-2.9227,-2.9704,-2.9402,-2.9239,-2.9716,-2.9792,-2.9792,-2.9792,-2.9792,-2.9792,-2.9792,-2.9792,-2.9792,-2.9792,-2.9792,-2.9792,-2.9792,-2.9792,-2.9792,-2.9792,-2.9239,-2.8976,-2.9076,-2.8436,-2.7833,-2.7281,-2.6816,-2.6622,-2.6533,-2.6533,-2.6201,-2.5774,-2.6319,-2.6189,-2.5774,-2.6319,-2.6533,-2.6533,-2.6533,-2.6176,-2.5854,-2.7035,-2.6451,-2.5203,-2.7053,-2.7482,-2.7396,-2.8995,-2.8966,-2.8412,-2.9142,-2.892,-2.8211,-2.7523,-2.6816,-2.6241,-2.6334,-2.5691,-2.5152,-2.5983,-2.5653,-2.5121,-2.5222,-2.5021,-2.482,-2.482,-2.482,-2.4845,-2.4933,-2.531,-2.5485,-2.5159,-2.5385,-2.5285,-2.4393,-2.4117,-2.3816,-2.3339,-2.3566,-2.4068,-2.4931,-2.5558,-2.5827,-2.555,-2.5482,-2.5554,-2.5707,-2.5664,-2.5812,-2.6302,-2.6483,-2.6533,-2.6533,-2.6533,-2.6533,-2.6533,-2.6533,-2.685,-2.7484,-2.6782,-2.685,-2.7484,-2.6782,-2.6589,-2.6714,-2.6589,-2.6589,-2.6714,-2.6521,-2.6533,-2.6521,-2.6658,-2.6714,-2.6973,-2.9779,-2.9729,-2.9691,-2.9779,-2.9729,-2.9704,-2.9779,-2.9792,-2.9792,-2.9792,-2.9792,-2.9792,-2.9792,-2.9792,-2.9792,-2.9792,-2.9792,-2.9792,-2.9792,-2.9792,-2.9792,-2.9792,-2.9239,-2.9164,-2.9666,-2.8649,-2.7833,-2.7281,-2.7205,-2.6929,-2.6533,-2.6533,-2.6483,-2.6352,-2.6496,-2.6483,-2.6352,-2.6496,-2.6533,-2.6533,-2.6533,-2.6483,-2.642,-2.6552,-2.6186,-2.5627,-2.6396,-2.7128,-2.7795,-2.8947,-2.8777,-2.8066,-2.8383,-2.8278,-2.8028,-2.7919,-2.7363,-2.6865,-2.7367,-2.649,-2.5678,-2.6304,-2.6375,-2.6364,-2.6841,-2.585,-2.482,-2.482,-2.482,-2.4958,-2.541,-2.5548,-2.5737,-2.6163,-2.5875,-2.5548,-2.5398,-2.4582,-2.3966,-2.3891,-2.4633,-2.5642,-2.7056,-2.778,-2.7603,-2.6185,-2.662,-2.6344,-2.4988,-2.5375,-2.5636,-2.5711,-2.6201,-2.6533,-2.6533,-2.6533,-2.6533,-2.6533,-2.6533,-2.6589,-2.6658,-2.6521,-2.6589,-2.6658,-2.6521,-2.6905,-2.7484,-2.6782,-2.6905,-2.7484,-2.6782,-2.6533,-2.6589,-2.7297,-2.7537,-2.7802,-2.9792,-2.9792,-2.9792,-2.9792,-2.9792,-2.9792,-2.9792,-2.9792,-2.9792,-2.9792,-2.9792,-2.9792,-2.9792,-2.9792,-2.9792,-2.9792,-2.9792,-2.9792,-2.9792,-2.9792,-2.9792,-2.9792,-2.9553,-2.9528,-2.9779,-2.9302,-2.8775,-2.8197,-2.7582,-2.7155,-2.6917,-2.6603,-2.6533,-2.6533,-2.6533,-2.6533,-2.6533,-2.6533,-2.6533,-2.6533,-2.6533,-2.6533,-2.6533,-2.6533,-2.6302,-2.6181,-2.6938,-2.7095,-2.7258,-2.8636,-2.8539,-2.7931,-2.853,-2.8641,-2.8477,-2.7985,-2.76,-2.7472,-2.7973,-2.7365,-2.6728,-2.7413,-2.7538,-2.7369,-2.7293,-2.6954,-2.6565,-2.6264,-2.595,-2.5799,-2.6038,-2.6076,-2.6163,-2.6483,-2.6319,-2.5963,-2.5636,-2.5184,-2.4963,-2.506,-2.5275,-2.5869,-2.7156,-2.7625,-2.7506,-2.6693,-2.6803,-2.6582,-2.5923,-2.6029,-2.6076,-2.6076,-2.6327,-2.6533,-2.6533,-2.6533,-2.6533,-2.6533,-2.6533,-2.6714,-2.7162,-2.6714,-2.6878,-2.7588,-2.6853,-2.6891,-2.7421,-2.6784,-2.6714,-2.6973,-2.6658,-2.6782,-2.7229,-2.7537,-2.767,-2.792]},{"header":{"parameterUnit":"m.s-1","parameterCategory":1,"la1":30.6,"la2":28.766,"lo1":-90.7593,"lo2":-88.6598,"dy":0.0162,"dx":0.0183,"nx":116,"ny":114,"refTime":"2024-03-16T06:00:00:Z","depth":0,"parameterNumber":3,"parameterNumberName":"V-component_of_WINDS"},"data":[0.0,0.0,0.0,0.0,0.0,0.0,0.0,0.0,0.0,0.0,0.0,0.0,0.0,0.0,0.0,0.0,0.0,0.0,0.0,0.0,0.0,0.0,0.0,0.0,0.0,0.0,0.0,0.0,0.0,0.0,0.0,0.0,0.0,0.0,0.0,0.0,0.0,0.0,0.0,0.0,0.0,0.0,0.0,0.0,0.0,0.0,0.0,0.0,0.0,0.0,0.0,0.0,0.0,0.0,0.0,0.0,0.0,0.0,0.0,0.0,0.0,0.0,0.0,0.0,0.0,0.0,0.0,0.0,0.0,0.0,0.0,0.0,0.0,0.0,0.0,0.0,0.0,0.0,0.0,0.0,0.0,0.0,0.0,0.0,0.0,0.0,0.0,0.0,0.0,0.0,0.0,0.0,0.0,0.0,0.0,0.0,0.0,0.0,0.0,0.0,0.0,0.0,0.0,0.0,0.0,0.0,0.0,0.0,0.0,0.0,0.0,0.0,0.0,0.0,0.0,0.0,0.0,0.0,0.0,0.0,0.0,0.0,0.0,0.0,0.0,0.0,0.0,0.0,0.0,0.0,0.0,0.0,0.0,0.0,0.0,0.0,0.0,0.0,0.0,0.0,0.0,0.0,0.0,0.0,0.0,0.0,0.0,0.0,0.0,0.0,0.0,0.0,0.0,0.0,0.0,0.0,0.0,0.0,0.0,0.0,0.0,0.0,0.0,0.0,0.0,0.0,0.0,0.0,0.0,0.0,0.0,0.0,0.0,0.0,0.0,0.0,0.0,0.0,0.0,0.0,0.0,0.0,0.0,0.0,0.0,0.0,0.0,0.0,0.0,0.0,0.0,0.0,0.0,0.0,0.0,0.0,0.0,0.0,0.0,0.0,0.0,0.0,0.0,0.0,0.0,0.0,0.0,0.0,0.0,0.0,0.0,0.0,0.0,0.0,0.0,0.0,0.0,0.0,0.0,0.0,0.0,0.0,0.0,0.0,0.0,0.0,0.0,0.0,0.0,0.0,0.0,0.0,0.0,0.0,0.0,0.0,0.0,0.0,0.0,0.0,0.0,0.0,0.0,0.0,0.0,0.0,0.0,0.0,0.0,0.0,0.0,0.0,0.0,0.0,0.0,0.0,0.0,0.0,0.0,0.0,0.0,0.0,0.0,0.0,0.0,0.0,0.0,0.0,0.0,0.0,0.0,0.0,0.0,0.0,0.0,0.0,0.0,0.0,0.0,0.0,0.0,0.0,0.0,0.0,0.0,0.0,0.0,0.0,0.0,0.0,0.0,0.0,0.0,0.0,0.0,0.0,0.0,0.0,0.0,0.0,0.0,0.0,0.0,0.0,0.0,0.0,0.0,0.0,0.0,0.0,0.0,0.0,0.0,0.0,0.0,0.0,0.0,0.0,0.0,0.0,0.0,0.0,0.0,0.0,0.0,0.0,0.0,0.0,0.0,0.0,0.0,0.0,0.0,0.0,0.0,0.0,0.0,0.0,0.0,0.0,0.0,0.0,0.0,0.0,0.0,0.0,0.0,0.0,0.0,0.0,0.0,0.0,0.0,0.0,0.0,0.0,0.0,0.0,0.0,0.0,0.0,0.0,0.0,0.0,0.0,0.0,0.0,0.0,0.0,0.0,0.0,0.0,0.0,0.0,0.0,0.0,0.0,0.0,0.0,0.0,0.0,0.0,0.0,0.0,0.0,0.0,0.0,0.0,0.0,0.0,0.0,0.0,0.0,0.0,0.0,0.0,0.0,0.0,0.0,0.0,0.0,0.0,0.0,0.0,0.0,0.0,0.0,0.0,0.0,0.0,0.0,0.0,0.0,0.0,0.0,0.0,0.0,0.0,0.0,0.0,0.0,0.0,0.0,0.0,0.0,0.0,0.0,0.0,0.0,0.0,0.0,0.0,0.0,0.0,0.0,0.0,0.0,0.0,0.0,0.0,0.0,0.0,0.0,0.0,0.0,0.0,0.0,0.0,0.0,0.0,0.0,0.0,0.0,0.0,0.0,0.0,0.0,0.0,0.0,0.0,0.0,0.0,0.0,0.0,0.0,0.0,0.0,0.0,0.0,0.0,0.0,0.0,0.0,0.0,0.0,0.0,0.0,0.0,0.0,0.0,0.0,0.0,0.0,0.0,0.0,0.0,0.0,0.0,0.0,0.0,0.0,0.0,0.0,0.0,0.0,0.0,0.0,0.0,0.0,0.0,0.0,0.0,0.0,0.0,0.0,0.0,0.0,0.0,0.0,0.0,0.0,0.0,0.0,0.0,0.0,0.0,0.0,0.0,0.0,0.0,0.0,0.0,0.0,0.0,0.0,0.0,0.0,0.0,0.0,0.0,0.0,0.0,0.0,0.0,0.0,0.0,0.0,0.0,0.0,0.0,0.0,0.0,0.0,0.0,0.0,0.0,0.0,0.0,0.0,0.0,0.0,0.0,0.0,0.0,0.0,0.0,0.0,0.0,0.0,0.0,0.0,0.0,0.0,0.0,0.0,0.0,0.0,0.0,0.0,0.0,0.0,0.0,0.0,0.0,0.0,0.0,0.0,0.0,0.0,0.0,0.0,0.0,0.0,0.0,0.0,0.0,0.0,0.0,0.0,0.0,0.0,0.0,0.0,0.0,0.0,0.0,0.0,0.0,0.0,0.0,0.0,0.0,0.0,0.0,0.0,0.0,0.0,0.0,0.0,0.0,0.0,0.0,0.0,0.0,0.0,0.0,0.0,0.0,0.0,0.0,0.0,0.0,0.0,0.0,0.0,0.0,0.0,0.0,0.0,0.0,0.0,0.0,0.0,0.0,0.0,0.0,0.0,0.0,0.0,0.0,0.0,0.0,0.0,0.0,0.0,0.0,0.0,0.0,0.0,0.0,0.0,0.0,0.0,0.0,0.0,0.0,0.0,0.0,0.0,0.0,0.0,0.0,0.0,0.0,0.0,0.0,0.0,0.0,0.0,0.0,0.0,0.0,0.0,0.0,0.0,0.0,0.0,0.0,0.0,0.0,0.0,0.0,0.0,0.0,0.0,0.0,0.0,0.0,0.0,0.0,0.0,0.0,0.0,0.0,0.0,0.0,0.0,0.0,0.0,0.0,0.0,0.0,0.0,0.0,0.0,0.0,0.0,0.0,0.0,0.0,0.0,0.0,0.0,0.0,0.0,0.0,0.0,0.0,0.0,0.0,0.0,0.0,0.0,0.0,0.0,0.0,0.0,0.0,0.0,0.0,0.0,0.0,0.0,0.0,0.0,0.0,0.0,0.0,0.0,0.0,0.0,0.0,0.0,0.0,0.0,0.0,0.0,0.0,0.0,0.0,0.0,0.0,0.0,0.0,0.0,0.0,0.0,0.0,0.0,0.0,0.0,0.0,0.0,0.0,0.0,0.0,0.0,0.0,0.0,0.0,0.0,0.0,0.0,0.0,0.0,0.0,0.0,0.0,0.0,0.0,0.0,0.0,0.0,0.0,0.0,0.0,0.0,0.0,0.0,0.0,0.0,0.0,0.0,0.0,0.0,0.0,0.0,0.0,0.0,0.0,0.0,0.0,0.0,0.0,0.0,0.0,0.0,0.0,0.0,0.0,0.0,0.0,0.0,0.0,0.0,0.0,0.0,0.0,0.0,0.0,0.0,0.0,0.0,0.0,0.0,0.0,0.0,0.0,0.0,0.0,0.0,0.0,0.0,0.0,0.0,0.0,0.0,0.0,0.0,0.0,0.0,0.0,0.0,0.0,0.0,0.0,0.0,0.0,0.0,0.0,0.0,0.0,0.0,0.0,0.0,0.0,0.0,0.0,0.0,0.0,0.0,0.0,0.0,0.0,0.0,0.0,0.0,0.0,0.0,0.0,0.0,0.0,0.0,0.0,0.0,0.0,0.0,0.0,0.0,0.0,0.0,0.0,0.0,0.0,0.0,0.0,0.0,0.0,0.0,0.0,0.0,0.0,0.0,0.0,0.0,0.0,0.0,0.0,0.0,0.0,0.0,0.0,0.0,0.0,0.0,0.0,0.0,0.0,0.0,0.0,0.0,0.0,0.0,0.0,0.0,0.0,0.0,0.0,0.0,0.0,0.0,0.0,0.0,0.0,0.0,0.0,0.0,0.0,0.0,0.0,0.0,0.0,0.0,0.0,0.0,0.0,0.0,0.0,0.0,0.0,0.0,0.0,0.0,0.0,0.0,0.0,0.0,0.0,0.0,0.0,0.0,0.0,0.0,0.0,0.0,0.0,0.0,0.0,0.0,0.0,0.0,0.0,0.0,0.0,0.0,0.0,0.0,0.0,0.0,0.0,0.0,0.0,0.0,0.0,0.0,0.0,0.0,0.0,0.0,0.0,0.0,0.0,0.0,0.0,0.0,0.0,0.0,0.0,0.0,0.0,0.0,0.0,0.0,0.0,0.0,0.0,0.0,0.0,0.0,0.0,0.0,0.0,0.0,0.0,0.0,0.0,0.0,0.0,0.0,0.0,0.0,0.0,0.0,0.0,0.0,0.0,0.0,0.0,0.0,0.0,0.0,0.0,0.0,0.0,0.0,0.0,0.0,0.0,0.0,0.0,0.0,0.0,0.0,0.0,0.0,0.0,0.0,0.0,0.0,0.0,0.0,0.0,0.0,0.0,0.0,0.0,0.0,0.0,0.0,0.0,0.0,0.0,0.0,0.0,0.0,0.0,0.0,0.0,0.0,0.0,0.0,0.0,0.0,0.0,0.0,0.0,0.0,0.0,0.0,0.0,0.0,0.0,0.0,0.0,0.0,0.0,0.0,0.0,0.0,0.0,0.0,0.0,0.0,0.0,0.0,0.0,0.0,0.0,0.0,0.0,0.0,0.0,0.0,0.0,0.0,0.0,0.0,0.0,0.0,0.0,0.0,0.0,0.0,0.0,0.0,0.0,0.0,0.0,0.0,0.0,0.0,0.0,0.0,0.0,0.0,0.0,0.0,0.0,0.0,0.0,0.0,0.0,0.0,0.0,0.0,0.0,0.0,0.0,0.0,0.0,0.0,0.0,0.0,0.0,0.0,0.0,0.0,0.0,0.0,0.0,0.0,0.0,0.0,0.0,0.0,0.0,0.0,0.0,0.0,0.0,0.0,0.0,0.0,0.0,0.0,0.0,0.0,0.0,0.0,0.0,0.0,0.0,0.0,0.0,0.0,0.0,0.0,0.0,0.0,0.0,0.0,0.0,0.0,0.0,0.0,0.0,0.0,0.0,0.0,0.0,0.0,0.0,0.0,0.0,0.0,0.0,0.0,0.0,0.0,0.0,0.0,0.0,0.0,0.0,0.0,0.0,0.0,0.0,0.0,0.0,0.0,0.0,0.0,0.0,0.0,0.0,0.0,0.0,0.0,0.0,0.0,0.0,0.0,0.0,0.0,0.0,0.0,0.0,0.0,0.0,0.0,0.0,0.0,0.0,0.0,0.0,0.0,0.0,0.0,0.0,0.0,0.0,0.0,0.0,0.0,0.0,0.0,0.0,0.0,0.0,0.0,0.0,0.0,0.0,0.0,0.0,0.0,0.0,0.0,0.0,0.0,0.0,0.0,0.0,0.0,0.0,0.0,0.0,0.0,0.0,0.0,0.0,0.0,0.0,0.0,0.0,0.0,0.0,0.0,0.0,0.0,0.0,0.0,0.0,0.0,0.0,0.0,0.0,0.0,0.0,0.0,0.0,0.0,0.0,0.0,0.0,0.0,0.0,0.0,0.0,0.0,0.0,0.0,0.0,0.0,0.0,0.0,0.0,0.0,0.0,0.0,0.0,0.0,0.0,0.0,0.0,0.0,0.0,0.0,0.0,0.0,0.0,0.0,0.0,0.0,0.0,0.0,0.0,0.0,0.0,0.0,0.0,0.0,0.0,0.0,0.0,0.0,0.0,0.0,0.0,0.0,0.0,0.0,0.0,0.0,0.0,0.0,0.0,0.0,0.0,0.0,0.0,0.0,0.0,0.0,0.0,0.0,0.0,0.0,0.0,0.0,0.0,0.0,0.0,0.0,0.0,0.0,0.0,0.0,0.0,0.0,0.0,0.0,0.0,0.0,0.0,0.0,0.0,0.0,0.0,0.0,0.0,0.0,0.0,0.0,0.0,0.0,0.0,0.0,0.0,-0.4493,0.0,0.0,0.0,0.0,0.0,0.0,0.0,0.0,0.0,0.0,0.0,0.0,0.0,0.0,0.0,0.0,0.0,0.0,0.0,0.0,0.0,0.0,0.0,0.0,0.0,0.0,0.0,0.8572,0.8488,0.8319,0.8319,0.8205,0.8004,0.7994,0.7927,0.7792,0.801,0.8135,0.8096,0.8107,0.8198,0.8424,0.8227,0.785,0.7243,0.0,0.0,0.0,0.0,0.0,0.0,0.0,0.0,0.0,0.0,0.0,0.0,0.0,0.0,0.0,0.0,0.0,0.0,0.0,0.0,0.0,0.0,0.0,0.0,0.0,0.0,0.0,0.0,0.0,0.0,0.0,0.0,0.0,0.0,0.0,0.0,0.0,0.0,0.0,0.0,0.0,0.0,0.0,0.0,0.0,0.0,0.0,0.0,0.0,0.0,0.0,0.0,0.0,0.0,0.0,0.0,0.0,0.0,0.0,0.0,0.0,0.0,0.0,0.0,0.0,0.0,0.0,0.0,0.0,0.0,0.0,-0.4653,0.0,0.0,0.0,0.0,0.0,0.0,0.0,0.0,0.0,0.0,0.0,0.0,0.0,0.0,0.0,0.0,0.0,0.0,0.0,0.0,0.0,0.0,0.0,0.9217,0.8967,0.8783,0.8635,0.8534,0.8521,0.8375,0.8198,0.8019,0.8069,0.8039,0.7891,0.8428,0.8567,0.8277,0.8376,0.8709,0.9273,0.9151,0.8575,0.7627,0.7872,0.0,0.0,0.0,0.0,0.0,0.0,0.0,0.0,0.0,0.0,0.0,0.0,0.0,0.0,0.0,0.0,0.0,0.0,0.0,0.0,0.0,0.0,0.0,0.0,0.0,0.0,0.0,0.0,0.0,0.0,0.0,0.0,0.0,0.0,0.0,0.0,0.0,0.0,0.0,0.0,0.0,0.0,0.0,0.0,0.0,0.0,0.0,0.0,0.0,0.0,0.0,0.0,0.0,0.0,0.0,0.0,0.0,0.0,0.0,0.0,0.0,0.0,0.0,-0.32,-0.3397,-0.3746,-0.3628,-0.3489,-0.3424,-0.4141,-0.4126,-0.3665,0.0,0.0,0.0,0.0,0.0,0.0,0.0,0.0,0.0,0.0,0.0,0.0,0.0,0.0,0.0,0.0,0.0,0.0,0.0,0.0,0.0,0.0,0.9003,0.8883,0.9028,0.8878,0.8932,0.9303,0.917,0.9027,0.8918,0.8951,0.8838,0.8654,0.8965,0.8973,0.8652,0.853,0.8837,0.9538,0.9017,0.8944,0.9264,0.9142,0.9021,0.8876,0.0,0.0,0.0,0.0,0.0,0.0,0.0,0.0,0.0,0.0,0.0,0.0,0.0,0.0,0.0,0.0,0.0,0.0,0.0,0.0,0.0,0.0,0.0,0.0,0.0,0.0,0.0,0.0,0.0,0.0,0.0,0.0,0.0,0.0,0.0,0.0,0.0,0.0,0.0,0.0,0.0,-0.0532,-0.3263,0.0,0.0,0.0,0.0,0.0,0.0,0.0,0.0,0.0,0.0,0.0,0.0,0.0,0.0,-0.1949,-0.1903,-0.2238,-0.2955,-0.2849,-0.2932,-0.3203,-0.2783,-0.2572,-0.255,-0.2311,0.0,-0.3342,-0.3129,0.0,0.0,0.0,0.0,0.0,0.0,0.0,0.0,0.0,0.0,0.0,0.0,0.0,0.0,0.0,0.0,0.0,0.0,0.0,0.0,0.0,0.9332,0.9473,0.9428,0.9893,1.0133,1.0015,0.9903,0.9681,0.9376,0.9231,0.9117,0.9026,0.9405,0.9587,0.9586,0.9655,0.9916,1.0371,0.9722,1.0045,1.1094,1.0524,1.0085,0.982,0.9309,0.0,0.0,0.0,0.0,0.0,0.0,0.0,0.0,0.0,0.0,0.0,0.0,0.0,0.0,0.0,0.0,0.0,0.0,0.0,0.0,0.0,0.0,0.0,0.0,0.0,0.0,0.0,0.0,0.0,0.0,0.0,0.0,0.0,0.0,0.0,0.0,0.0,0.0,0.0,0.0524,-0.17,-0.3526,-0.2772,-0.1828,0.0,0.0,0.0,0.0,0.0,0.0,0.0,0.0,0.0,-0.0925,-0.1076,-0.1359,-0.1717,-0.1659,-0.192,-0.2503,-0.2458,-0.248,-0.2586,-0.2136,-0.1951,-0.1917,-0.1494,-0.1555,-0.2004,-0.2531,-0.3001,-0.3371,0.0,0.0,0.0,0.0,0.0,-0.4068,0.0,0.0,0.0,0.0,0.0,0.0,0.0,0.0,0.0,0.0,0.0,0.0,0.9397,0.9731,0.9991,1.0081,1.0747,1.102,1.0649,1.0419,1.0188,0.987,0.9642,0.9497,0.9411,0.9758,1.0236,1.0822,1.0504,1.058,1.1049,1.0218,1.0545,1.1873,1.1201,1.0918,1.0861,0.9969,0.9573,0.9425,0.0,0.0,0.0,0.0,0.0,0.0,0.0,0.0,0.0,0.0,0.0,0.0,0.0,0.0,0.0,0.0,0.0,0.0,0.0,0.0,0.0,0.0,0.0,0.0,0.0,0.0,0.0,0.0,0.0,0.0,0.0,0.0,0.0,0.0,0.0,0.0,0.0,0.0028,-0.2017,-0.3103,-0.2658,-0.2157,0.0,0.0,0.0,0.0,0.0,0.0,-0.0755,-0.0677,-0.0659,-0.0694,-0.0745,-0.0962,-0.1374,-0.1481,-0.173,-0.2147,-0.2263,-0.2321,-0.2321,-0.1759,-0.1511,-0.1494,-0.093,-0.0663,-0.0763,-0.1812,-0.2397,-0.269,-0.3072,-0.3464,-0.3765,-0.378,-0.3877,-0.4068,0.0,0.0,0.0,0.0,0.0,0.0,0.0,0.0,0.0,0.0,0.0,0.9323,0.9978,0.9953,1.024,1.1065,1.092,1.093,1.1136,1.0636,1.037,1.056,1.0397,1.0236,1.0077,1.0026,1.0744,1.2276,1.0449,1.0132,1.1255,0.9883,0.9792,1.077,1.0733,1.1181,1.1943,1.1093,1.0233,0.9493,0.9498,0.0,0.0,0.0,0.0,0.0,0.0,0.0,0.0,0.0,0.0,0.0,0.0,0.0,0.0,0.0,0.0,0.0,0.0,0.0,0.0,0.0,0.0,0.0,0.0,0.0,0.0,0.0,0.0,0.0,0.0,0.0,0.0,0.0,0.0,0.0,0.0,0.0,0.0,-0.2043,-0.3296,0.0,0.0,0.0,0.0,0.03,0.0843,0.0542,-0.0653,-0.0242,-0.0168,-0.067,-0.0507,-0.0522,-0.0735,-0.1131,-0.1561,-0.2032,-0.2458,-0.2692,-0.2659,-0.1725,-0.1308,-0.1272,-0.0418,-0.0052,-0.009,-0.074,-0.1472,-0.2218,-0.2058,-0.2571,-0.3436,-0.3636,-0.3765,-0.3855,0.0,0.0,0.0,0.0,0.0,0.0,0.0,0.0,1.0467,1.0637,1.0343,1.0347,1.0985,1.1462,1.1908,1.2387,1.2745,1.2827,1.2623,1.2037,1.1619,1.1364,1.1043,1.0884,1.095,1.0985,1.1595,1.2694,1.1859,1.1609,1.2028,1.1573,1.1697,1.2198,1.2431,1.3057,1.3665,1.1286,1.0346,1.0333,0.9094,0.9116,0.0,0.0,0.0,0.0,0.0,0.0,0.0,0.0,0.0,0.0,0.0,0.0,0.0,0.0,0.0,0.0,0.0,0.0,0.0,0.0,0.0,0.0,0.0,0.0,0.0,0.0,0.0,0.0,0.0,0.0,0.0,0.0,0.0,0.0,0.0,0.0,0.0,-0.1992,-0.1804,0.0,-0.0632,0.0,0.061,0.1124,0.1144,0.076,-0.0076,0.0337,0.0366,-0.0248,-0.0174,-0.0338,-0.0685,-0.1094,-0.154,-0.2014,-0.248,-0.2712,-0.2676,-0.1738,-0.1301,-0.1248,-0.0374,0.0,-0.0022,-0.0224,-0.0839,-0.1639,-0.1775,-0.2297,-0.299,-0.3232,-0.3323,-0.3423,0.0,0.0,0.0,0.0,0.0,0.0,0.0,0.0,1.0507,1.0649,1.0694,1.1002,1.1675,1.2487,1.3037,1.3216,1.3501,1.3462,1.296,1.229,1.1775,1.1583,1.1298,1.1378,1.193,1.1999,1.2432,1.3301,1.2893,1.2768,1.2821,1.2655,1.2788,1.3235,1.3348,1.3781,1.4225,1.1862,1.1089,1.1269,0.9848,0.9896,1.0703,0.0,0.0,0.0,0.0,0.0,0.0,0.0,0.0,0.0,0.0,0.0,0.0,0.0,0.0,0.0,0.0,0.0,0.0,0.0,0.0,0.0,0.0,0.0,0.0,0.0,0.0,0.0,0.0,0.0,0.0,0.0,0.0,0.0,0.0,0.0,-0.137,-0.1603,-0.079,-0.0063,0.0346,0.1142,0.1677,0.1666,0.1475,0.1157,0.0759,0.1039,0.0907,0.0306,0.0296,0.0072,-0.0449,-0.088,-0.1241,-0.1577,-0.2181,-0.2377,-0.2206,-0.1575,-0.1224,-0.1061,-0.0324,0.0,0.0,-0.0091,-0.0535,-0.1198,-0.151,-0.2062,-0.274,-0.3004,-0.3153,-0.3287,0.0,0.0,0.0,0.0,0.0,0.0,0.0,1.0399,1.0354,1.023,1.0601,1.1168,1.2056,1.2994,1.3525,1.3545,1.3135,1.2661,1.2064,1.1216,1.0833,1.1103,1.1196,1.179,1.2977,1.2939,1.3311,1.4077,1.3485,1.3304,1.3579,1.2946,1.3049,1.3647,1.3227,1.333,1.3614,1.2965,1.2538,1.2266,1.1841,1.1571,1.1257,0.0,0.0,0.0,0.0,0.0,0.0,0.0,0.0,0.0,0.0,0.0,0.0,0.0,0.0,0.0,0.0,0.0,0.0,0.0,0.0,0.0,0.0,0.0,0.0,0.0,0.0,0.0,0.0,0.0,0.0,0.0,0.0,0.0,-0.2199,-0.219,-0.1685,-0.0846,-0.0394,0.0165,0.1073,0.1573,0.1898,0.1907,0.1877,0.1884,0.1842,0.1842,0.155,0.0964,0.092,0.0619,0.0036,-0.045,-0.0708,-0.0706,-0.1577,-0.1742,-0.1305,-0.1303,-0.1071,-0.0675,-0.0202,0.0,-0.0025,-0.03,-0.0601,-0.0936,-0.1198,-0.188,-0.2719,-0.3004,-0.3266,-0.3506,0.0,0.0,0.0,0.0,0.0,0.0,0.0,1.0161,1.0272,1.0797,1.133,1.2061,1.3093,1.3621,1.4092,1.4404,1.3486,1.2918,1.2943,1.1909,1.1395,1.1604,1.1938,1.2463,1.3142,1.3273,1.3603,1.4077,1.4279,1.4091,1.3636,1.4331,1.4621,1.4533,1.4694,1.498,1.5397,1.4871,1.4449,1.3902,1.2081,1.1807,1.2473,0.0,0.0,0.0,0.0,0.0,0.0,0.0,0.0,0.0,0.0,0.0,0.0,0.0,0.0,0.0,0.0,0.0,0.0,0.0,0.0,0.0,0.0,0.0,0.0,0.0,0.0,0.0,0.0,0.0,0.0,0.0,-0.2216,-0.2837,-0.2912,-0.2387,-0.1945,-0.1813,-0.0371,0.0964,0.1967,0.2968,0.3711,0.4142,0.3864,0.3487,0.3051,0.2667,0.2158,0.1591,0.1145,0.082,0.0654,-0.0251,-0.07,-0.0706,-0.1239,-0.144,-0.1303,-0.0995,-0.0813,-0.0674,-0.041,-0.0282,-0.0325,-0.0623,-0.0936,-0.1227,-0.1538,-0.1931,-0.2389,-0.2918,-0.3266,-0.3506,0.0,0.0,0.0,0.0,0.0,0.0,0.0,0.9982,1.0094,1.0626,1.1605,1.2446,1.2949,1.3659,1.397,1.374,1.2968,1.2453,1.2361,1.1871,1.1964,1.2733,1.2711,1.3055,1.3858,1.3969,1.4248,1.4668,1.4922,1.4811,1.4343,1.5061,1.5504,1.5688,1.5699,1.6035,1.6572,1.5947,1.5547,1.5195,1.3399,1.3058,1.3452,1.2824,1.2829,1.3152,1.294,1.3252,1.3537,1.2106,0.0,0.0,0.0,0.0,0.0,0.0,0.0,0.0,0.0,0.0,0.0,0.0,0.0,0.0,0.0,0.0,0.0,0.0,0.0,0.0,0.0,0.0,0.0,0.0,-0.3135,-0.4108,-0.3876,-0.3183,-0.2487,-0.1907,0.0079,0.1765,0.2783,0.395,0.4824,0.5147,0.4928,0.4517,0.3898,0.3595,0.3034,0.219,0.1604,0.1173,0.09,0.0037,-0.039,-0.0403,-0.0839,-0.0938,-0.077,-0.0714,-0.0703,0.0,-0.0576,-0.0595,-0.0732,-0.1065,-0.1311,0.0,0.0,0.0,0.0,0.0,-0.3287,-0.333,0.0,0.0,0.0,0.0,0.0,0.0,0.0,0.9828,0.9836,1.0008,1.1438,1.234,1.2008,1.3056,1.3357,1.2278,1.2003,1.1655,1.1107,1.1648,1.2562,1.3961,1.3476,1.3716,1.4766,1.4834,1.501,1.5342,1.5391,1.5391,1.5342,1.5391,1.5889,1.6709,1.626,1.6553,1.7324,1.6498,1.6125,1.6056,1.5176,1.4655,1.4284,1.381,1.4161,1.4866,1.4327,1.4421,1.4689,1.3721,0.0,0.0,0.0,0.0,0.0,0.0,0.0,0.0,0.0,0.0,0.0,0.0,0.0,0.0,0.0,0.0,0.0,0.0,0.0,0.0,0.0,0.0,0.0,0.0,-0.3175,-0.4688,-0.4859,-0.4125,-0.302,-0.145,0.0705,0.2492,0.3484,0.4787,0.5588,0.5604,0.5583,0.5323,0.4735,0.0,0.0,0.0,0.0,0.1526,0.1024,0.0341,0.0,0.0,-0.0407,-0.0406,0.0,-0.0471,-0.0706,-0.0704,-0.079,-0.0951,-0.1169,-0.1499,-0.1747,-0.1913,-0.1935,-0.2285,-0.281,-0.3309,-0.3351,0.0,0.0,0.0,0.0,0.0,0.0,0.0,0.0,0.9632,0.9619,0.9544,1.0697,1.1323,1.0725,1.1494,1.21,1.2171,1.1518,1.1259,1.1633,1.25,1.3118,1.3382,1.4066,1.4586,1.4775,1.5117,1.5166,1.4902,1.5244,1.5234,1.4912,1.5254,1.5889,1.6709,1.626,1.6553,1.7324,1.6498,1.6125,1.6076,1.5498,1.5039,1.4755,1.5415,1.5775,1.6002,1.6505,1.7012,1.7189,1.5338,1.4994,1.5007,1.3556,1.244,0.0,0.0,0.0,0.0,0.0,0.0,0.0,0.0,0.0,0.0,0.0,0.0,0.0,0.0,0.0,0.0,0.0,0.0,0.0,-0.257,-0.3909,-0.4801,-0.4754,-0.3686,-0.2425,-0.1136,0.1134,0.3023,0.4101,0.6002,0.7198,0.7377,0.7258,0.6967,0.6531,0.5158,0.0,0.4081,0.2605,0.1728,0.161,0.0534,0.0,0.0,0.0,0.0,0.0,-0.0471,-0.0706,-0.0737,-0.1324,-0.1541,-0.1524,-0.1809,-0.2153,-0.2546,-0.2762,-0.2918,-0.3068,-0.3372,-0.3464,-0.3421,0.0,0.0,0.0,0.0,0.0,0.0,0.0,0.9499,0.9517,0.9541,1.072,1.1233,1.0419,1.148,1.2016,1.1491,1.1302,1.1632,1.2696,1.3104,1.3537,1.4143,1.4596,1.4883,1.5098,1.5303,1.5312,1.5098,1.5312,1.5303,1.5107,1.5312,1.5762,1.6387,1.6162,1.6553,1.7324,1.6498,1.6318,1.665,1.5762,1.5642,1.6032,1.6351,1.6899,1.7489,1.7735,1.7978,1.7981,1.6678,1.6077,1.5664,1.4599,1.3553,1.2651,0.0,0.0,0.0,0.0,0.0,0.0,0.0,0.0,0.0,0.0,0.0,0.0,0.0,0.0,0.2033,0.0722,0.0,-0.2667,-0.2963,-0.4337,-0.5233,-0.4836,-0.3662,-0.2314,-0.1066,0.1617,0.3688,0.4549,0.682,0.8281,0.8408,0.8414,0.8106,0.7337,0.6288,0.5288,0.443,0.3284,0.2396,0.1798,0.0922,0.0284,0.0,0.0,0.0,0.0,-0.0238,-0.0604,-0.1037,-0.1398,-0.1735,-0.2096,-0.2473,-0.271,-0.2866,-0.3501,-0.3479,-0.3111,-0.3245,-0.3223,-0.3089,0.0,0.0,0.0,0.0,0.0,0.0,0.0,0.9354,0.94,0.9475,1.0586,1.1018,1.0093,1.1234,1.1697,1.0749,1.1365,1.23,1.3549,1.3542,1.3942,1.5098,1.5074,1.5234,1.5654,1.5664,1.5664,1.5664,1.5664,1.5625,1.5537,1.5625,1.5811,1.6125,1.6152,1.6641,1.7334,1.6533,1.6602,1.7158,1.6006,1.6155,1.7011,1.6754,1.7406,1.8505,1.8412,1.8106,1.7663,1.7363,1.6491,1.5483,1.5166,1.4457,1.361,1.28,1.2394,0.0,0.0,0.0,0.0,0.0,0.0,0.0,0.0,0.7824,0.6539,0.3774,0.247,0.1432,0.0049,-0.1778,-0.2988,-0.2752,-0.3886,-0.4636,-0.4186,-0.296,-0.1673,-0.0495,0.2246,0.426,0.4969,0.7543,0.9136,0.9067,0.9453,0.9281,0.8261,0.7709,0.6686,0.5091,0.424,0.3246,0.2156,0.1315,0.0665,0.0159,0.0038,0.0,0.0,-0.0105,-0.0509,-0.1204,-0.1324,-0.1827,-0.2529,-0.2994,-0.3045,-0.2941,-0.3805,-0.3681,-0.3034,-0.3175,-0.2995,-0.2707,0.0,0.0,0.0,0.0,0.0,0.0,0.0,0.0,0.9135,0.8676,0.9296,0.9473,0.8699,0.9116,0.9755,1.0544,1.1955,1.2996,1.3422,1.379,1.4429,1.5349,1.5743,1.6133,1.6582,1.6519,1.6519,1.6519,1.6519,1.6377,1.6056,1.6396,1.6396,1.6145,1.6484,1.6934,1.7353,1.6865,1.6719,1.6758,1.6211,1.6256,1.657,1.6145,1.681,1.8064,1.871,1.7684,1.6146,1.6492,1.5929,1.512,1.5496,1.5258,1.4718,1.4086,1.326,1.2273,1.0995,1.0062,0.9675,1.0576,0.9956,0.9016,0.0,0.7528,0.5893,0.3391,0.1451,-0.0098,-0.1196,-0.2254,-0.2739,-0.2202,-0.1635,-0.1312,-0.1358,-0.0197,0.0893,0.1589,0.3036,0.4445,0.5489,0.8435,1.0039,0.9628,1.06,1.0948,1.0463,0.9465,0.8386,0.728,0.5655,0.4353,0.3302,0.1725,0.087,0.0791,0.0249,0.0,0.0,-0.0435,-0.0669,-0.0803,-0.1462,-0.2037,-0.2502,-0.2681,-0.2742,-0.2769,-0.3122,-0.304,-0.2812,-0.3404,-0.3241,-0.2706,0.0,0.0,0.0,0.0,0.0,0.0,0.0,0.0,0.0,0.8717,0.9236,0.9417,0.8923,0.9681,1.0541,1.1355,1.215,1.2742,1.3108,1.3527,1.415,1.501,1.5703,1.6279,1.6719,1.6665,1.6665,1.6665,1.6665,1.6306,1.5657,1.5663,1.5349,1.4824,1.4762,1.5021,1.5432,1.4967,1.5251,1.5935,1.527,1.5606,1.644,1.6069,1.5697,1.5554,1.6916,1.6634,0.0,1.5483,1.5187,1.4809,1.4373,1.4342,1.4261,1.3452,1.2927,1.2262,1.0733,1.0318,1.0303,1.0166,1.0364,1.0258,0.9009,0.7976,0.6303,0.3016,0.1354,0.0,-0.1669,-0.19,-0.1766,0.0,-0.0805,-0.016,0.0215,0.0963,0.1887,0.2893,0.434,0.5467,0.5966,0.8304,0.9979,1.0311,1.0941,1.1258,1.1141,1.0479,0.9588,0.852,0.7186,0.5834,0.4406,0.3087,0.1897,0.0914,0.0637,0.033,0.0,-0.0193,-0.0451,-0.0734,-0.1287,-0.1764,-0.2225,-0.2572,-0.2846,-0.3094,-0.3463,-0.3333,-0.2954,-0.306,-0.2934,-0.2699,0.0,0.0,0.0,0.0,0.0,0.0,0.0,0.0,0.0,0.0,0.9095,0.9356,0.931,1.0486,1.1427,1.1832,1.2164,1.2476,1.2782,1.3179,1.3821,1.4746,1.5605,1.6328,1.6894,1.6754,1.6812,1.709,1.6542,1.5946,1.5321,1.5014,1.4405,1.3655,1.3484,1.3621,1.3917,1.3589,1.4018,1.4818,1.4196,1.4531,1.534,1.4684,1.3926,1.339,1.5146,1.513,1.4189,1.4078,1.405,1.3928,1.3356,1.3588,1.3893,1.3043,1.2538,1.1996,1.0923,1.0605,1.051,1.0205,1.0572,1.0567,0.9124,0.8178,0.6589,0.3059,0.1599,0.0432,-0.1277,-0.1168,-0.0666,-0.0277,0.0607,0.1484,0.2184,0.2682,0.332,0.4344,0.5562,0.6389,0.6537,0.8369,0.9853,1.0746,1.1164,1.1495,1.1798,1.1519,1.0867,0.9747,0.8769,0.741,0.5731,0.4389,0.3052,0.1604,0.1125,0.068,0.0252,0.008,-0.0274,-0.0702,-0.1016,-0.1407,-0.1844,-0.234,-0.2719,-0.3029,-0.3552,-0.3474,-0.3078,-0.2881,-0.2714,-0.2562,0.0,0.0,0.0,0.0,0.0,0.0,0.0,0.0,0.0,0.0,0.0,0.0,0.0,1.0828,1.1645,1.1635,1.2079,1.2476,1.2605,1.3006,1.371,1.4727,1.5605,1.6475,1.7344,1.6906,1.7033,1.7969,1.6123,1.5317,1.5459,1.4958,1.4098,1.305,1.3451,1.3609,1.3617,1.36,1.3472,1.3285,1.326,1.3015,1.2486,1.1239,1.1274,1.2294,1.4115,1.3032,1.0938,1.2161,1.2395,1.2292,1.2926,1.3658,1.4155,1.3475,1.2328,1.1416,1.2138,1.0811,0.9644,1.1156,1.0311,0.9005,0.8605,0.781,0.6412,0.3776,0.2099,0.0833,0.0056,-0.0056,0.0444,0.1882,0.3317,0.4529,0.5279,0.5664,0.6002,0.6263,0.649,0.6813,0.0,0.8892,1.0049,1.0762,1.1408,1.211,1.2813,1.2842,1.2388,1.1369,1.034,0.9099,0.7548,0.543,0.4038,0.3409,0.1692,0.0874,0.0837,0.0281,-0.0274,-0.0703,-0.0702,-0.0936,-0.1366,-0.1984,-0.2214,-0.2291,-0.2911,-0.3103,-0.31,-0.3093,-0.273,-0.2231,0.0,0.0,0.0,0.0,0.0,0.0,0.0,0.0,0.0,0.0,0.0,0.0,0.0,0.0,0.0,0.0,1.1483,1.1644,1.1962,1.1782,1.2044,1.2814,1.3763,1.4415,1.4737,1.5196,1.553,1.5526,1.4669,1.3737,1.268,1.2168,1.1213,0.9926,0.9894,0.9951,1.0034,1.0372,1.0479,1.0451,1.1123,1.1469,1.1486,1.1353,1.094,1.0565,0.0,1.166,1.1116,1.099,1.1378,1.1772,1.1075,1.1659,1.2483,1.164,1.1113,1.0614,0.9497,0.9189,0.9064,0.886,0.8834,0.8635,0.8063,0.6907,0.5483,0.3663,0.2887,0.2311,0.1458,0.2613,0.3799,0.4187,0.5136,0.6131,0.6832,0.6897,0.7091,0.7633,0.7789,0.0,0.0,0.0,0.0,1.0746,1.1416,1.2129,1.2871,1.2881,1.2754,1.2407,1.1434,1.0238,0.8877,0.7531,0.6108,0.4683,0.3215,0.2143,0.1488,0.0961,0.0588,0.0343,-0.0044,-0.0485,-0.0898,-0.1119,-0.1352,-0.1634,-0.182,-0.2146,-0.2498,-0.2498,-0.2358,-0.2253,0.0,0.0,0.0,0.0,0.0,0.0,0.0,0.0,0.0,0.0,0.0,0.0,0.0,0.0,0.0,0.0,0.0,1.1193,1.1223,1.1074,1.1135,1.1542,1.2489,1.3131,1.3345,1.3852,1.4174,1.4294,1.2989,1.1875,1.1124,0.9959,0.8895,0.7907,0.7788,0.7775,0.7891,0.8201,0.844,0.8658,0.9172,0.9864,1.0497,1.0356,1.0005,0.0,0.9747,1.0123,1.0476,1.0009,1.0356,1.0895,1.0099,1.0557,1.1302,1.0446,1.0202,0.9888,0.8497,0.8322,0.8326,0.7458,0.7524,0.7537,0.648,0.5534,0.4523,0.339,0.3182,0.3083,0.2787,0.4105,0.5321,0.5387,0.6234,0.7155,0.7792,0.7852,0.808,0.8765,0.8751,0.8822,0.0,0.0,0.0,1.0754,1.1416,1.2129,1.2871,1.2881,1.2881,1.2881,1.2101,1.1219,1.0179,0.8986,0.7358,0.53,0.4179,0.3163,0.2328,0.177,0.1423,0.1309,0.0664,0.0237,-0.0093,-0.0581,-0.0931,-0.1166,-0.1395,-0.1723,-0.2062,-0.2071,-0.2059,-0.2121,0.0,0.0,0.0,0.0,0.0,0.0,0.0,0.0,0.0,0.0,0.0,0.0,0.0,0.0,0.0,0.0,0.0,0.0,1.0292,1.0685,1.091,1.0791,1.1762,1.2546,1.3001,1.2752,1.3059,1.4072,1.1066,0.9953,1.0623,0.8502,0.7345,0.7084,0.7202,0.7258,0.7253,0.7177,0.7452,0.7893,0.7573,0.8306,0.9476,0.8245,0.8553,0.9538,0.8602,0.8626,0.9134,0.9177,0.9335,0.9628,0.9927,1.0327,1.0527,0.9866,0.9386,0.9006,0.8854,0.8051,0.7196,0.6865,0.64,0.5569,0.4076,0.3736,0.3618,0.3014,0.2968,0.3279,0.3939,0.4599,0.514,0.5524,0.6661,0.7637,0.807,0.8517,0.901,0.0,0.0,0.0,0.0,0.0,0.0,1.0826,0.0,1.2187,1.291,1.2891,1.2881,1.2881,1.248,1.1958,1.1405,0.9829,0.7802,0.5459,0.4747,0.4098,0.3439,0.2668,0.2323,0.2259,0.1509,0.1127,0.1009,-0.0291,-0.0832,-0.091,-0.1461,-0.1709,-0.1752,-0.1738,-0.1761,-0.1781,0.0,0.0,0.0,0.0,0.0,0.0,0.0,0.0,0.0,0.0,0.0,0.0,0.0,0.0,0.0,0.0,0.0,0.0,0.9301,0.9217,0.9101,0.8901,0.9666,1.0163,1.0217,1.0778,1.1099,1.1162,1.0174,0.9489,0.912,0.8104,0.7369,0.68,0.6629,0.6651,0.6796,0.723,0.7224,0.7036,0.7662,0.8155,0.8521,0.8507,0.8909,0.9349,0.9115,0.9073,0.9122,0.8915,0.8888,0.9035,0.9326,0.9261,0.9001,0.8383,0.7516,0.6541,0.554,0.4839,0.419,0.3583,0.3332,0.3126,0.2707,0.2961,0.3162,0.2822,0.4123,0.5349,0.5222,0.6021,0.6732,0.6801,0.6848,0.0,0.7217,0.7977,0.0,0.8969,0.0,1.0067,1.0602,1.093,0.0,0.0,1.2026,1.285,1.333,1.3047,1.2881,1.2881,1.2773,1.2397,1.171,1.0771,0.9437,0.7678,0.7575,0.6811,0.5424,0.432,0.3783,0.3605,0.2419,0.1595,0.1047,0.0726,0.026,-0.0262,-0.0408,-0.0757,-0.1108,-0.1146,-0.1142,-0.1137,0.0,0.0,0.0,0.0,0.0,0.0,0.0,0.0,0.0,0.0,0.0,0.0,0.0,0.0,0.0,0.0,0.0,0.0,0.0,0.872,0.8625,0.8495,0.9011,0.9283,0.9234,0.9846,1.0052,0.988,0.9302,0.8792,0.8321,0.7548,0.6929,0.643,0.6359,0.6387,0.6455,0.673,0.6911,0.0,0.0,0.8019,0.8611,0.8649,0.8883,0.9185,0.9013,0.8717,0.8382,0.828,0.8354,0.8468,0.8479,0.8476,0.8313,0.7721,0.6482,0.5175,0.4406,0.3559,0.2777,0.1945,0.1788,0.1852,0.2074,0.2335,0.2774,0.3661,0.4841,0.5805,0.6014,0.6482,0.6751,0.0,0.0,0.0,0.6601,0.744,0.8353,0.0,0.9695,0.0,1.1444,1.1544,1.1643,0.0,1.2253,1.2434,1.2541,1.2605,1.2551,1.2403,1.2715,1.2403,1.1366,1.1266,1.0354,0.8619,0.8664,0.8055,0.6833,0.581,0.5148,0.4713,0.0,0.2769,0.2057,0.1387,0.0857,0.0434,0.0107,-0.0212,-0.0528,-0.0519,-0.0516,-0.0516,0.0,0.0,0.0,0.0,0.0,0.0,0.0,0.0,0.0,0.0,0.0,0.0,0.0,0.0,0.0,0.0,0.0,0.0,0.0,0.0,0.8847,0.8751,0.9084,0.9248,0.9279,0.9506,0.9616,0.954,0.8674,0.822,0.8146,0.7224,0.6639,0.6446,0.6548,0.6562,0.6416,0.6318,0.6791,0.7656,0.7242,0.7929,0.9137,0.0,0.8723,0.8958,0.8634,0.8055,0.7422,0.7632,0.7821,0.7898,0.7613,0.7767,0.7967,0.7315,0.5761,0.4271,0.418,0.3177,0.1954,0.1184,0.1016,0.1256,0.1849,0.205,0.27,0.4861,0.5375,0.57,0.6527,0.6432,0.6028,0.5526,0.0,0.6179,0.6054,0.693,0.7992,0.9259,0.9708,1.0641,1.2279,1.2195,1.2312,1.31,1.2202,1.1543,1.1423,1.1911,1.2016,1.1755,1.233,1.2109,1.0902,1.1462,1.0785,0.9017,0.8883,0.8488,0.783,0.7074,0.6416,0.5747,0.0,0.0,0.3445,0.1999,0.136,0.1174,0.0448,0.0168,0.0112,0.0054,0.0,0.0,0.0,0.0,0.0,0.0,0.0,0.0,0.0,0.0,0.0,0.0,0.9408,0.9941,0.0,0.0,0.0,0.0,0.0,0.0,0.0,0.0,0.0,0.8019,0.8613,0.9065,0.9279,0.9297,0.9297,0.9359,0.9191,0.907,0.907,0.8456,0.817,0.8211,0.7824,0.7644,0.7672,0.7655,0.7844,0.8071,0.7998,0.8193,0.8543,0.8438,0.0,0.0,0.8676,0.8143,0.7361,0.7632,0.7687,0.7575,0.7111,0.6918,0.6773,0.6244,0.4428,0.263,0.2777,0.1653,0.0367,0.0237,0.0232,0.0507,0.1612,0.2783,0.3961,0.5086,0.6281,0.7046,0.6633,0.6342,0.5972,0.5276,0.5238,0.5297,0.5171,0.6113,0.7114,0.0,0.9253,1.0563,1.1071,1.1585,0.0,0.0,0.0,1.1447,1.215,1.1759,1.1447,1.1372,1.1538,1.1576,1.154,1.1416,1.0958,1.0063,0.9731,0.9249,0.8593,0.783,0.745,0.723,0.0,0.0,0.4155,0.3317,0.2607,0.1952,0.1174,0.0895,0.0838,0.0223,0.0,0.0,0.0,0.0,0.0,0.0,0.0,0.0,0.0,0.8283,0.8242,0.8406,0.8886,0.9248,0.9328,0.9433,0.9272,0.0,0.0,0.0,0.0,0.0,0.0,0.0,0.0,0.0,0.8785,0.8755,0.8858,0.9105,0.0,0.9047,0.8878,0.8675,0.8561,0.8447,0.8167,0.7995,0.7946,0.7979,0.807,0.8216,0.8299,0.8414,0.857,0.0,0.0,0.0,0.857,0.8143,0.7602,0.785,0.7882,0.7615,0.6771,0.6444,0.6375,0.6157,0.4254,0.23,0.2792,0.1474,0.0,0.0,0.0172,0.0817,0.2645,0.3664,0.4681,0.625,0.6933,0.7086,0.6784,0.6358,0.5955,0.5724,0.5358,0.5105,0.51,0.5542,0.6388,0.7784,0.9035,1.0216,1.144,1.1879,1.1971,0.0,0.0,1.1214,1.1226,1.105,1.1154,1.1475,1.1529,1.1391,1.1174,1.1277,1.0786,0.9721,0.9768,0.9465,0.8804,0.8427,0.8049,0.761,0.6524,0.0,0.4875,0.3782,0.3121,0.2732,0.1953,0.1675,0.1619,0.1284,0.0895,0.056,0.0,0.0,0.0,0.0,0.0,0.0,0.0,0.8085,0.8044,0.825,0.8447,0.8513,0.8553,0.8859,0.8894,0.0,0.0,0.0,0.0,0.0,0.0,0.0,0.0,0.0,0.0,0.0,0.0,0.883,0.8862,0.0,0.0,0.0,0.0,0.0,0.8085,0.7953,0.7829,0.7946,0.8036,0.0,0.0,0.8447,0.0,0.0,0.0,0.0,0.0,0.811,0.778,0.7908,0.7852,0.7523,0.6451,0.6285,0.6452,0.6204,0.4391,0.2534,0.2993,0.1602,0.0062,0.0185,0.0517,0.1389,0.3848,0.4396,0.5067,0.7264,0.7234,0.6806,0.6823,0.639,0.6096,0.6159,0.5827,0.5498,0.5437,0.554,0.633,0.8043,0.8902,0.0,1.1822,1.215,0.0,0.0,0.0,0.0,1.016,1.0411,1.084,1.1339,1.1339,1.1119,1.0559,1.0846,1.0374,0.9183,0.9457,0.9316,0.8804,0.8804,0.848,0.7883,0.7182,0.0,0.0,0.4333,0.3729,0.3569,0.2788,0.2454,0.2397,0.223,0.1842,0.134,0.0,0.0,0.0,0.0,0.0,0.0,0.0,0.8258,0.8134,0.7961,0.7953,0.7995,0.8062,0.8347,0.8447,0.0,0.0,0.0,0.0,0.0,0.0,0.0,0.0,0.0,0.0,0.0,0.0,0.8521,0.8561,0.0,0.0,0.0,0.0,0.0,0.0,0.7565,0.7565,0.7787,0.0,0.0,0.0,0.0,0.0,0.0,0.0,0.0,0.0,0.7931,0.7479,0.7266,0.7166,0.6932,0.6025,0.6558,0.7206,0.5752,0.431,0.3128,0.2706,0.132,0.0185,0.0862,0.0918,0.1592,0.4365,0.4767,0.5129,0.7122,0.7186,0.6832,0.6599,0.6611,0.6526,0.6247,0.6601,0.6643,0.5857,0.6741,0.7404,0.7238,0.0,0.0,1.0908,1.1768,0.0,0.0,0.0,0.0,1.0147,1.0147,1.0194,1.0248,1.0248,1.0187,1.0134,0.9962,0.9613,0.9183,0.8998,0.8857,0.8804,0.8804,0.8752,0.8646,0.0,0.0,0.0,0.5651,0.4944,0.4349,0.3566,0.3234,0.3121,0.2454,0.2174,0.212,0.0,0.0,0.0,0.0,0.0,0.0,0.8423,0.8299,0.8175,0.8093,0.8167,0.8209,0.8242,0.8479,0.8461,0.8071,0.0,0.0,0.0,0.0,0.0,0.0,0.0,0.0,0.0,0.0,0.8159,0.8447,0.8447,0.0,0.0,0.0,0.0,0.0,0.0,0.0,0.7523,0.7821,0.0,0.0,0.0,0.0,0.0,0.0,0.0,0.0,0.0,0.0,0.7792,0.7762,0.7676,0.7495,0.6963,0.7281,0.7667,0.6718,0.5186,0.3707,0.3754,0.2222,0.0719,0.1018,0.1205,0.2067,0.4846,0.543,0.5997,0.8004,0.7907,0.7499,0.7721,0.7345,0.7025,0.7106,0.71,0.6939,0.6519,0.6859,0.7527,0.8468,0.9395,0.0,0.0,0.0,0.0,0.0,0.0,0.0,1.0929,1.0742,1.0561,1.0388,1.0555,1.0561,1.0388,0.992,0.9626,0.9499,0.9031,0.8804,0.8811,0.8985,0.8971,0.8765,0.0,0.0,0.0,0.5814,0.5109,0.446,0.4181,0.407,0.4012,0.368,0.3289,0.2899,0.0,0.0,0.0,0.0,0.0,0.8551,0.8488,0.8455,0.8381,0.8291,0.8455,0.8545,0.8545,0.8651,0.8553,0.8152,0.8283,0.0,0.0,0.0,0.0,0.0,0.0,0.0,0.0,0.0,0.7887,0.8209,0.825,0.8152,0.0,0.0,0.0,0.0,0.0,0.0,0.0,0.0,0.0,0.0,0.0,0.0,0.0,0.0,0.0,0.0,0.0,0.0,0.0,0.0,0.0,0.7814,0.7565,0.7638,0.7704,0.7121,0.5812,0.4535,0.4408,0.303,0.157,0.1573,0.1928,0.2939,0.5414,0.6199,0.6907,0.8497,0.829,0.7931,0.8216,0.7658,0.7296,0.7676,0.7512,0.7246,0.7154,0.7339,0.7977,0.9351,0.0,1.059,0.0,0.0,0.0,0.0,0.0,0.0,0.0,1.1363,1.1076,1.0701,1.0882,1.0808,1.0434,1.002,0.9773,0.9679,0.9265,0.9065,0.9072,0.9279,0.9259,0.9017,0.0,0.0,0.0,0.6509,0.5703,0.4791,0.4894,0.4775,0.4519,0.4519,0.4181,0.3735,0.0,0.0,0.0,0.0,0.0,0.0,0.8756,0.8822,0.879,0.8521,0.8741,0.8879,0.8879,0.8773,0.8602,0.8414,0.8414,0.0,0.0,0.0,0.0,0.0,0.0,0.0,0.0,0.0,0.7829,0.7719,0.7904,0.7987,0.7919,0.7987,0.7814,0.7523,0.0,0.0,0.0,0.0,0.0,0.0,0.0,0.0,0.0,0.0,0.0,0.0,0.0,0.0,0.0,0.0,0.0,0.0,0.0,0.7419,0.7264,0.6439,0.606,0.5585,0.4175,0.3289,0.2747,0.2711,0.3351,0.4428,0.6207,0.7074,0.7693,0.8381,0.8193,0.7802,0.7484,0.7242,0.7278,0.7811,0.7783,0.7717,0.767,0.8433,0.9086,0.0,0.0,1.0974,1.1995,0.0,0.0,0.0,0.0,0.0,0.0,1.1864,1.159,1.1009,1.0995,1.0708,1.0127,1.0114,0.9967,0.9686,0.9679,0.9679,0.9679,0.9679,0.9679,0.0,0.0,0.0,0.0,0.8161,0.7107,0.5504,0.5858,0.5373,0.4519,0.4519,0.4519,0.4463,0.0,0.0,0.0,0.0,0.0,0.0,0.0,0.8773,0.8732,0.8643,0.8724,0.8814,0.8943,0.9016,0.8935,0.8643,0.8316,0.0,0.0,0.0,0.0,0.0,0.0,0.0,0.0,0.0,0.7704,0.7572,0.7821,0.787,0.7753,0.8044,0.7995,0.7787,0.8002,0.0,0.0,0.0,0.0,0.0,0.0,0.0,0.0,0.0,0.0,0.0,0.0,0.0,0.0,0.0,0.0,0.0,0.0,0.0,0.0,0.7092,0.6696,0.6241,0.5668,0.4841,0.4168,0.427,0.4421,0.5144,0.7185,0.7783,0.8134,0.8951,0.8822,0.842,0.7828,0.7633,0.7478,0.7344,0.7723,0.7996,0.0,0.0,0.0,1.019,1.1731,1.2832,0.0,0.0,0.0,0.0,0.0,0.0,0.0,1.2164,1.1804,1.1015,1.1182,1.1009,1.0428,1.0214,1.0067,0.9973,0.978,0.9686,0.9693,0.9886,0.0,0.0,0.0,0.0,0.0,0.83,0.7549,0.6519,0.5879,0.5483,0.5124,0.4745,0.4551,0.4532,0.0,0.0,0.0,0.0,0.0,0.0,0.0,0.8967,0.8918,0.8918,0.8918,0.8967,0.9056,0.9177,0.9128,0.8846,0.8472,0.0,0.0,0.0,0.0,0.0,0.0,0.0,0.7245,0.7454,0.7496,0.7314,0.7663,0.7753,0.7621,0.8002,0.8093,0.7912,0.8209,0.8242,0.0,0.0,0.0,0.0,0.0,0.0,0.8021,0.0,0.0,0.0,0.0,0.0,0.0,0.0,0.0,0.0,0.0,0.0,0.0,0.0,0.7364,0.6993,0.6655,0.6197,0.5818,0.5591,0.579,0.6372,0.7732,0.8243,0.8594,0.9055,0.8827,0.8336,0.7769,0.7605,0.7486,0.7234,0.7617,0.8002,0.0,0.0,0.0,1.0955,0.0,0.0,0.0,0.0,0.0,0.0,0.0,0.0,0.0,1.2519,1.1997,1.1343,1.1496,1.1369,1.0895,1.0701,1.0555,1.0448,1.0267,1.012,1.002,1.02,0.0,0.0,0.0,0.0,0.0,0.8995,0.8398,0.7548,0.6653,0.6043,0.5605,0.4937,0.4629,0.4562,0.0,0.0,0.0,0.0,0.0,0.0,0.0,0.9319,0.9279,0.9279,0.9279,0.9288,0.9217,0.9248,0.9199,0.9016,0.0,0.0,0.0,0.0,0.0,0.0,0.0,0.0,0.7027,0.7286,0.7286,0.7021,0.7454,0.7621,0.7523,0.7953,0.8085,0.7953,0.8316,0.848,0.8414,0.8643,0.8635,0.8521,0.8521,0.8316,0.0,0.0,0.0,0.0,0.0,0.0,0.0,0.0,0.0,0.0,0.0,0.0,0.0,0.0,0.0,0.0,0.0,0.7418,0.75,0.6768,0.7284,0.7959,0.7989,0.8539,0.0,0.8751,0.8285,0.7781,0.7301,0.7285,0.7334,0.7277,0.7448,0.7889,0.0,0.8911,0.0,0.0,1.3841,0.0,0.0,0.0,0.0,0.0,0.0,0.0,0.0,1.2945,1.2396,1.2118,1.2104,1.1884,1.143,1.1423,1.1283,1.0995,1.0995,1.0842,1.0624,1.0624,0.0,0.0,0.0,0.0,0.0,1.0127,0.9528,0.8634,0.7903,0.6993,0.6015,0.5118,0.4766,0.4694,0.0,0.0,0.0,0.0,0.0,0.0,0.0,0.0,0.0,0.0,0.9217,0.9217,0.9217,0.9248,0.9199,0.0,0.0,0.0,0.0,0.0,0.0,0.0,0.0,0.0,0.7167,0.7328,0.7328,0.7167,0.7405,0.7523,0.7523,0.7855,0.8077,0.8134,0.8406,0.8561,0.8643,0.8854,0.8805,0.8675,0.8781,0.8537,0.0,0.0,0.0,0.0,0.8446,0.8461,0.0,0.0,0.0,0.0,0.0,0.0,0.0,0.0,0.8818,0.9119,0.8878,0.0,0.8172,0.8289,0.8373,0.8586,0.0,0.9038,0.8904,0.8838,0.8459,0.7924,0.731,0.7426,0.7506,0.7182,0.7737,0.8315,0.8626,0.0,0.0,1.1598,0.0,0.0,0.0,0.0,0.0,0.0,0.0,0.0,0.0,1.4665,1.4482,1.4403,1.4395,1.3482,1.143,1.1423,1.1283,1.0995,1.0995,1.0842,1.0624,1.0624,0.0,0.0,0.0,0.0,1.0441,1.0207,0.9953,0.9627,0.8687,0.7795,0.6934,0.6263,0.5423,0.4721,0.0,0.0,0.0,0.0,0.0,0.0,0.0,0.0,0.0,0.0,0.0,0.9346,0.9346,0.9328,0.0,0.0,0.0,0.0,0.0,0.0,0.0,0.0,0.0,0.737,0.7216,0.7251,0.7251,0.7118,0.7363,0.7595,0.7816,0.8014,0.8245,0.8527,0.8651,0.8732,0.8846,0.8935,0.8935,0.8814,0.8871,0.0,0.0,0.0,0.0,0.0,0.8488,0.8482,0.0,0.8503,0.8473,0.8353,0.0,0.0,0.0,0.0,0.8875,0.9136,0.9089,0.9056,0.9031,0.9085,0.9237,0.9299,0.9145,0.9063,0.8908,0.866,0.8278,0.782,0.7398,0.7808,0.807,0.7685,0.8313,0.0,0.0,0.0,1.2563,1.2991,0.0,0.0,0.0,0.0,0.0,0.0,0.0,0.0,0.0,1.5438,1.5234,1.5234,1.5234,1.434,1.2452,1.2452,1.202,1.1189,1.1189,1.0969,1.0624,1.0624,0.0,0.0,0.0,0.0,1.0598,1.0241,1.02,1.0226,0.9198,0.8483,0.8007,0.7269,0.638,0.5517,0.0,0.0,0.0,0.0,0.0,0.0,0.0,0.0,0.0,0.0,0.0,0.0,0.0,0.0,0.0,0.0,0.0,0.0,0.0,0.0,0.0,0.0,0.7663,0.7335,0.7251,0.7209,0.7125,0.7027,0.7405,0.7774,0.8202,0.825,0.8503,0.8896,0.8931,0.8943,0.9016,0.9016,0.8984,0.8911,0.8911,0.0,0.0,0.0,0.0,0.0,0.0,0.0,0.0,0.8271,0.8245,0.8253,0.837,0.0,0.0,0.0,0.0,0.0,0.8829,0.9415,0.989,0.9513,0.9822,0.995,0.8937,0.889,0.8944,0.845,0.8032,0.7739,0.7722,0.8341,0.8756,0.0,0.0,0.0,1.0903,1.2209,1.3486,0.0,0.0,0.0,0.0,0.0,0.0,0.0,0.0,0.0,0.0,1.6079,1.5658,1.5658,1.5658,1.5163,1.4163,1.4027,1.3133,1.1628,1.1628,1.1256,1.0624,1.0744,1.0807,0.0,0.0,0.0,1.0724,1.0349,1.0327,1.0534,0.9587,0.918,0.8933,0.8234,0.7404,0.6572,0.0,0.0,0.0,0.0,0.0,0.0,0.0,0.0,0.0,0.0,0.0,0.0,0.0,0.0,0.0,0.0,0.0,0.0,0.0,0.0,0.0,0.8594,0.7821,0.737,0.7377,0.7251,0.7174,0.7167,0.7673,0.8034,0.8209,0.8486,0.8741,0.8914,0.909,0.9105,0.9016,0.9136,0.9096,0.8984,0.8984,0.0,0.0,0.0,0.0,0.0,0.0,0.0,0.0,0.8536,0.8507,0.8325,0.8456,0.0,0.0,0.0,0.0,0.0,0.9554,1.0068,1.0485,0.9807,0.993,1.0124,0.9771,0.9265,0.8837,0.8749,0.8263,0.8035,0.8653,0.8837,0.9126,0.0,0.0,1.222,0.0,0.0,0.0,0.0,0.0,0.0,0.0,0.0,0.0,0.0,0.0,0.0,0.0,0.0,1.7579,1.7579,1.7579,1.7079,1.614,1.5376,1.4182,1.2639,1.2639,1.1911,1.0624,1.1288,1.1648,0.0,0.0,1.1542,1.1586,1.0815,1.0521,1.0555,1.0445,0.9914,0.9209,0.9082,0.8422,0.7494,0.0,0.0,0.0,0.0,0.0,0.0,0.0,0.0,0.0,0.0,0.0,0.0,0.0,0.0,0.0,0.0,0.0,0.0,0.0,0.0,0.8602,0.8675,0.8062,0.7697,0.7663,0.7545,0.7539,0.7615,0.7938,0.8408,0.898,0.9126,0.9063,0.8822,0.9016,0.9016,0.8846,0.8984,0.8943,0.8846,0.0,0.0,0.0,0.0,0.0,0.0,0.0,0.0,0.0,0.0,0.8442,0.8357,0.8434,0.0,0.0,0.0,0.0,0.0,0.9478,1.0029,1.0468,0.9856,1.0486,1.1055,1.0128,1.0109,1.0165,0.9603,0.9497,0.9514,0.9598,1.0056,1.0739,1.1667,0.0,1.3283,0.0,0.0,0.0,0.0,0.0,0.0,0.0,0.0,0.0,0.0,0.0,0.0,0.0,0.0,1.7559,1.7324,1.7324,1.7108,1.6628,1.6221,1.5158,1.3561,1.3304,1.2693,1.1911,1.2266,1.2451,1.2443,0.0,1.2337,1.2373,1.1402,1.1069,1.1233,1.0744,1.0371,0.9913,0.9466,0.8995,0.8507,0.0,0.0,0.0,0.0,0.0,0.0,0.0,0.0,0.0,0.0,0.0,0.0,0.0,0.0,0.0,0.0,0.0,0.0,0.0,0.0,0.8683,0.8765,0.8357,0.8066,0.8074,0.7832,0.7859,0.8155,0.8304,0.8791,0.9626,0.9727,0.9473,0.8837,0.8975,0.8975,0.8805,0.8871,0.8862,0.8765,0.0,0.0,0.0,0.0,0.0,0.0,0.0,0.0,0.0,0.0,0.0,0.0,0.0,0.0,0.0,0.9096,0.9096,0.9145,0.9288,0.9989,1.056,0.9954,1.0872,1.1601,1.0327,1.0732,1.1122,1.0452,1.0554,1.0684,1.0503,1.1357,0.0,1.3399,1.3847,0.0,0.0,0.0,0.0,0.0,0.0,0.0,0.0,0.0,0.0,0.0,0.0,0.0,0.0,0.0,1.708,1.6685,1.6665,1.6665,1.6665,1.6631,1.5787,1.4284,1.3933,1.348,1.3009,1.3191,1.3312,1.3295,1.3076,1.311,1.3226,1.2158,1.1843,1.202,1.1413,1.1052,1.08,0.9913,0.9594,0.953,0.0,0.0,0.0,0.0,0.0,0.0,0.0,0.0,0.0,0.0,0.0,0.0,0.0,0.0,0.0,0.0,0.0,0.0,0.0,0.0,0.8643,0.8975,0.8578,0.844,0.8545,0.7992,0.8012,0.8665,0.8781,0.9128,0.9676,0.9972,0.977,0.9239,0.9217,0.9177,0.9136,0.8992,0.8952,0.8975,0.9136,0.0,0.0,0.0,0.0,0.0,0.0,0.0,0.0,0.0,0.0,0.0,0.0,0.0,0.9056,0.9368,0.9457,0.9475,0.9475,1.0345,1.1063,1.0249,1.0572,1.0988,1.0653,1.0536,1.0624,1.0792,1.0732,1.0804,1.1482,1.2569,1.3646,1.4528,1.5391,0.0,0.0,0.0,0.0,0.0,0.0,0.0,0.0,0.0,0.0,0.0,0.0,0.0,0.0,0.0,0.0,1.6665,1.6665,1.6665,1.6665,1.6318,1.5727,1.4853,1.4826,1.4162,1.3009,1.3786,1.4085,1.4085,1.4118,1.4127,1.4025,1.3218,1.2923,1.2887,1.2826,1.2389,1.1648,1.08,1.0498,1.0498,0.0,0.0,0.0,0.0,0.0,0.0,0.0,0.0,0.0,0.0,0.0,0.0,0.0,0.0,0.0,0.0,0.0,0.0,0.0,0.9079,0.9047,0.9136,0.8895,0.8888,0.9154,0.8276,0.826,0.9123,0.9404,0.9369,0.9125,0.9531,0.9427,0.8918,0.9159,0.9047,0.8741,0.8984,0.8935,0.8724,0.9056,0.9016,0.0,0.0,0.0,0.0,0.0,0.0,0.0,0.0,0.9039,0.9079,0.9469,0.9607,0.9655,0.9774,0.9823,0.9793,0.9704,1.015,1.0517,1.0117,1.0709,1.1372,1.1309,1.1727,1.2027,1.1774,1.2063,1.2396,1.2445,0.0,1.4092,1.4687,0.0,0.0,0.0,0.0,0.0,0.0,0.0,0.0,0.0,0.0,0.0,0.0,0.0,0.0,0.0,0.0,0.0,1.5537,1.5771,1.5654,1.506,1.5478,1.54,1.4849,1.5105,1.4965,1.451,1.4815,1.4932,1.4932,1.4932,1.4932,1.4874,1.4085,1.3734,1.3726,1.3191,1.2826,1.2512,1.2212,1.1787,1.1413,0.0,0.0,0.0,0.0,0.0,0.0,0.0,0.0,0.0,0.0,0.0,0.0,0.0,0.0,0.0,0.0,0.0,0.0,0.9368,0.9288,0.9248,0.9217,0.9056,0.9065,0.9321,0.8411,0.8408,0.9415,0.9694,0.9581,0.9225,0.9542,0.941,0.8975,0.9199,0.9088,0.8781,0.9065,0.9016,0.8797,0.9136,0.9136,0.0,0.0,0.0,0.0,0.0,0.0,0.0,0.0,0.9288,0.9439,0.9785,1.0,1.0098,1.0176,1.0205,1.0234,1.0291,1.0368,1.0386,1.0326,1.091,1.1562,1.159,1.241,1.3007,1.2602,1.3057,1.3508,1.3581,1.3896,0.0,0.0,0.0,0.0,0.0,0.0,0.0,0.0,0.0,0.0,0.0,0.0,0.0,0.0,0.0,0.0,0.0,0.0,0.0,0.0,1.4975,1.4727,1.4087,1.4853,1.5068,1.4785,1.5215,1.541,1.541,1.541,1.541,1.541,1.541,1.541,1.5352,1.4815,1.4569,1.451,1.3666,1.3364,1.3373,1.307,1.2634,1.2266,0.0,0.0,0.0,0.0,0.0,0.0,0.0,0.0,0.0,0.0,0.0,0.0,0.0,0.0,0.0,0.0,0.0,0.0,0.9475,0.9306,0.9217,0.9279,0.9065,0.8915,0.9004,0.8296,0.8408,0.9407,0.9555,0.9755,1.0083,1.0092,0.9874,0.9484,0.9377,0.9377,0.9484,0.9306,0.9248,0.9319,0.9426,0.9426,0.9279,0.0,0.0,0.0,0.0,0.0,0.0,0.0,0.9399,0.9597,0.9961,1.0205,1.0361,1.0544,1.0649,1.0817,1.1266,1.1145,1.0949,1.101,1.1227,1.1416,1.1431,1.2351,1.3184,1.3215,1.3362,1.388,1.4997,1.4631,0.0,0.0,0.0,0.0,0.0,0.0,0.0,0.0,0.0,0.0,0.0,0.0,0.0,0.0,0.0,0.0,0.0,0.0,0.0,0.0,1.445,1.4077,1.4068,1.4561,1.4775,1.4775,1.5205,1.54,1.541,1.541,1.541,1.541,1.541,1.541,1.541,1.541,1.541,1.5294,1.451,1.4204,1.4085,1.3312,1.3009,1.3009,0.0,0.0,0.0,0.0,0.0,0.0,0.0,0.0,0.0,0.0,0.0,0.0,0.0,0.0,0.0,0.0,0.0,0.0,0.9368,0.9386,0.9306,0.9096,0.9234,0.9245,0.9134,0.8821,0.8555,0.8363,0.9097,0.9474,0.9542,0.9838,0.9836,0.9637,0.9712,0.9512,0.9185,0.9435,0.9426,0.9257,0.9515,0.9506,0.9279,0.0,0.0,0.0,0.0,0.0,0.0,0.0,0.0,0.0,1.0603,1.0784,1.0916,1.0878,1.1094,1.1341,1.134,1.142,1.161,1.1905,1.2479,1.2962,1.3034,1.2859,1.2843,1.3328,1.4567,1.5459,1.5114,1.5247,0.0,0.0,0.0,0.0,0.0,0.0,0.0,0.0,0.0,0.0,0.0,0.0,0.0,0.0,0.0,0.0,0.0,0.0,0.0,0.0,1.4749,1.4316,1.3262,1.3965,1.418,1.3887,1.4307,1.4834,1.541,1.541,1.541,1.541,1.541,1.541,1.541,1.541,1.541,1.5352,1.5108,1.505,1.4991,1.4805,1.4332,1.3914,0.0,0.0,0.0,0.0,0.0,0.0,0.0,0.0,0.0,0.0,0.9177,0.931,0.0,0.0,0.0,0.0,0.0,0.0,0.0,0.9426,0.9395,0.9136,0.9297,0.929,0.9056,0.8887,0.8572,0.816,0.8967,0.9476,0.96,0.9969,1.0126,1.0022,1.0153,1.0063,0.9756,1.0067,0.9967,0.9658,0.979,0.969,0.9457,0.0,0.0,0.0,0.0,0.0,0.0,0.0,0.0,0.0,1.0603,1.0926,1.1207,1.1132,1.1457,1.1844,1.1897,1.2065,1.234,1.2749,1.3338,1.3838,1.3963,1.3895,1.4097,1.5037,1.5969,1.661,1.6486,1.6376,0.0,0.0,0.0,0.0,0.0,0.0,0.0,0.0,0.0,0.0,0.0,0.0,0.0,0.0,0.0,0.0,0.0,0.0,0.0,0.0,1.4708,1.4169,1.3296,1.3637,1.376,1.3516,1.3936,1.4492,1.5156,1.5156,1.5254,1.541,1.541,1.541,1.541,1.541,1.541,1.541,1.541,1.541,1.541,1.541,1.5108,1.4756,0.0,0.0,1.1469,1.1179,0.0,0.0,0.0,0.0,0.0,0.0,0.9319,0.9502,0.0,0.0,0.0,1.0092,0.9938,0.9685,0.9399,0.9444,0.9466,0.9319,0.9319,0.9208,0.8895,0.8724,0.8618,0.861,0.9161,0.959,1.0026,1.0393,1.0565,1.0597,1.0687,1.0759,1.0901,1.082,1.0643,1.027,1.0107,0.9922,0.9683,0.9563,0.0,0.0,0.0,0.0,0.0,0.0,0.0,0.0,1.0244,1.0725,1.1234,1.1319,1.1726,1.2267,1.2658,1.2834,1.3035,1.3546,1.4002,1.4364,1.4537,1.5278,1.6244,1.7362,0.0,1.7415,1.8507,1.7792,0.0,0.0,0.0,0.0,0.0,0.0,0.0,0.0,0.0,0.0,0.0,0.0,0.0,0.0,0.0,0.0,0.0,0.0,0.0,0.0,1.4503,1.3862,1.3815,1.3581,1.3447,0.0,1.3838,1.4238,1.4779,1.4857,1.5123,1.5526,1.5526,1.5468,1.541,1.541,1.541,1.541,1.541,1.541,1.541,1.541,1.541,1.541,0.0,0.0,1.1798,1.1345,0.0,0.0,0.0,0.0,0.0,0.0,0.0,0.0,0.0,0.9632,0.0,1.0074,0.968,0.9509,0.9738,0.9686,0.9545,0.9319,0.9496,0.9664,0.9744,0.9616,0.9528,0.9588,0.9461,0.959,0.9989,1.0556,1.091,1.1118,1.093,1.0791,1.0705,1.0397,1.0215,1.0116,0.9767,0.9596,0.9524,0.9515,0.9444,0.0,0.0,0.0,0.0,0.0,0.0,0.0,1.0312,1.0611,1.0905,1.1287,1.1612,1.1961,1.2241,1.262,1.3118,1.4061,1.5147,1.5991,1.6034,1.6552,1.6855,1.6221,1.706,1.8093,1.8481,0.0,0.0,0.0,0.0,0.0,0.0,0.0,0.0,0.0,0.0,0.0,0.0,0.0,0.0,0.0,0.0,0.0,0.0,0.0,0.0,1.5588,1.4869,1.4283,1.3815,1.329,1.3018,0.0,1.3105,1.3601,1.4522,1.5297,1.5877,1.6265,1.6265,1.5921,1.541,1.541,1.541,1.541,1.541,1.541,1.541,1.541,1.541,1.541,0.0,0.0,0.0,0.0,0.0,0.0,0.0,0.0,0.0,0.0,0.0,0.0,0.0,0.9794,0.0,0.0,0.9861,0.9662,0.9638,0.9703,0.9704,0.9655,0.9783,0.9911,0.998,0.9832,0.9866,1.0101,0.9904,0.9994,1.0327,1.0805,1.1223,1.1571,1.1376,1.1261,1.1237,1.0992,1.0749,1.0544,1.015,0.984,0.9571,0.9457,0.9306,0.9194,0.9257,0.0,0.0,0.0,0.0,0.0,0.0,0.0,1.0905,1.1201,1.1686,1.2106,1.2098,1.2876,1.4021,1.5406,1.6269,1.6847,1.7205,1.731,1.7242,1.6898,1.7589,1.8244,0.0,0.0,0.0,0.0,0.0,0.0,0.0,0.0,0.0,0.0,0.0,0.0,0.0,0.0,0.0,0.0,0.0,0.0,0.0,1.6522,1.638,1.6051,1.5466,1.4824,1.4236,1.3931,1.361,1.3324,1.361,1.4296,1.5389,1.6022,1.658,1.7034,1.6652,1.6265,1.5921,1.5526,1.541,1.541,1.541,1.541,1.541,1.541,1.541,1.541,0.0,0.0,0.0,0.0,0.0,0.0,0.0,0.0,0.0,0.0,0.0,0.0,0.0,1.0328,1.0355,0.0,0.0,0.0,0.9771,0.9879,1.0045,1.0164,1.0097,1.0059,1.0059,0.9872,0.9984,1.038,1.0339,1.0545,1.0893,1.1122,1.1477,1.1927,1.1769,1.1778,1.1868,1.1657,1.1345,1.1027,1.0612,1.0224,0.9813,0.9494,0.9273,0.9127,0.9203,0.9136,0.9016,0.8952,0.0,0.0,0.0,0.0,1.0829,1.1029,1.159,1.2141,1.1931,1.3061,1.4647,1.6232,1.6697,1.6958,1.7749,1.7598,1.7449,1.806,1.8016,1.7978,0.0,0.0,0.0,0.0,0.0,0.0,0.0,0.0,0.0,0.0,0.0,0.0,0.0,0.0,0.0,0.0,0.0,0.0,1.6522,1.6522,1.6522,1.6522,1.5908,1.5365,1.488,1.4744,1.4468,1.3956,1.456,1.5418,1.6396,1.6862,1.7251,1.7607,1.7015,1.6634,1.6436,1.5864,1.5477,1.5312,1.5381,1.5371,1.5312,1.5381,1.541,1.541,0.0,0.0,0.0,0.0,0.0,0.0,0.0,0.0,0.0,0.0,1.1175,1.1113,0.0,1.1179,1.1287,1.162,1.1219,1.1135,1.1544,0.0,0.0,1.0953,1.0518,1.0283,1.0351,1.0157,1.0277,1.0748,1.0606,1.0909,1.1548,1.1601,1.1778,1.2076,1.1819,1.1728,1.1701,1.1226,1.0963,1.0885,1.0475,1.0328,1.033,0.995,0.9851,0.9891,0.9452,0.9248,0.9136,0.9024,0.9056,0.0,0.0,0.0,1.0049,1.038,1.0829,1.1237,1.1434,1.2339,1.3512,1.4455,1.506,1.5763,1.6958,1.7167,1.7293,0.0,1.7371,0.0,0.0,0.0,0.0,0.0,0.0,0.0,0.0,0.0,0.0,0.0,0.0,0.0,0.0,0.0,0.0,0.0,0.0,0.0,1.6522,1.6522,1.6522,1.6522,1.5908,1.5543,1.5499,1.4971,1.4663,1.4606,1.5186,1.5816,1.6431,1.7506,1.7982,1.7831,1.7779,1.723,1.6482,1.6379,1.5756,1.4902,1.5264,1.5186,1.4912,1.5273,1.541,1.541,0.0,0.0,0.0,0.0,0.0,0.0,0.0,0.0,0.0,0.0,0.0,1.1309,0.0,1.1309,1.1385,1.154,1.1325,1.1296,1.1595,1.1108,1.0845,1.0991,1.0547,1.0469,1.0785,1.0282,1.0501,1.1489,1.1056,1.1269,1.2026,1.2126,1.2175,1.2175,1.2026,1.1927,1.1909,1.159,1.1372,1.1198,1.0901,1.0565,1.0256,1.0268,1.0108,0.9922,0.9966,0.98,0.9591,0.9407,0.9319,0.9306,0.9368,0.0,0.0,0.0,1.0677,1.1153,1.1885,1.2481,1.3128,1.4256,1.5043,1.5782,1.6656,1.6923,1.7169,1.7847,0.0,0.0,0.0,0.0,0.0,0.0,0.0,0.0,0.0,0.0,0.0,0.0,0.0,0.0,0.0,0.0,0.0,0.0,0.0,1.6522,1.6522,1.6522,1.6522,1.6522,1.6238,1.5952,1.5588,1.5688,1.57,1.57,1.5964,1.623,1.6463,1.7003,1.7703,1.8496,1.8406,1.813,1.7688,1.7302,1.6794,1.6411,1.6557,1.6514,1.6356,1.6126,1.6255,1.6518,0.0,0.0,0.0,0.0,0.0,0.0,0.0,0.0,0.0,0.0,0.0,0.0,0.0,0.0,0.0,0.0,1.1624,1.1624,1.1743,1.1373,1.1165,1.1292,1.0922,1.0914,1.1273,1.0624,1.0784,1.1892,1.1384,1.1463,1.2175,1.2431,1.248,1.2382,1.2327,1.2218,1.2085,1.2086,1.1867,1.1601,1.1367,1.0971,1.0559,1.0694,1.0454,1.0134,1.0374,1.0186,0.9864,0.9679,0.9576,0.9426,0.9368,0.9637,0.0,0.0,0.0,1.11,1.1954,1.2278,1.2622,1.3873,1.4543,1.5168,1.6025,0.0,1.6818,0.0,0.0,0.0,0.0,0.0,0.0,0.0,0.0,0.0,0.0,0.0,0.0,0.0,0.0,0.0,0.0,0.0,0.0,0.0,0.0,1.6837,1.671,1.671,1.6637,1.6522,1.6522,1.6281,1.582,1.6281,1.6522,1.6522,1.6522,1.6522,1.6522,1.6672,1.7426,1.8582,1.8592,1.849,1.8282,1.8009,1.765,1.7286,1.7532,1.7555,1.741,1.6935,1.7146,1.7468,0.0,0.0,0.0,0.0,0.0,0.0,0.0,0.0,0.0,0.0,0.0,0.0,1.2812,1.2909,1.2967,1.2812,1.2716,1.2609,1.2618,1.2308,1.2214,1.2306,1.2057,0.0,1.187,1.1281,1.1156,1.1612,1.1284,1.1371,1.1927,1.2323,1.2578,1.2695,1.2776,1.2577,1.2104,1.2368,1.2262,1.1877,1.1751,1.1733,1.1778,1.1408,1.1113,1.089,1.0468,1.0082,0.9811,0.9771,0.9585,0.9319,0.0,0.9518,0.9518,0.0,0.0,0.0,1.0985,1.1205,1.1595,1.2505,1.2637,1.2969,0.0,0.0,0.0,0.0,0.0,0.0,0.0,0.0,0.0,0.0,0.0,0.0,0.0,0.0,0.0,0.0,0.0,0.0,0.0,0.0,0.0,0.0,0.0,1.7787,1.7312,1.7271,1.7034,1.6522,1.6522,1.6466,1.6466,1.6466,1.6522,1.6522,1.6522,1.6522,1.6534,1.7087,1.7388,1.7501,1.8006,1.7811,1.7262,1.8258,1.7717,1.6345,1.7274,1.7353,1.7059,1.741,1.7578,1.7578,0.0,0.0,0.0,0.0,0.0,0.0,0.0,0.0,0.0,0.0,0.0,0.0,0.0,1.3142,1.3152,1.3036,1.2929,1.2774,1.2735,1.2461,1.2391,1.2528,1.224,1.2269,1.2699,1.1867,1.1704,1.2359,1.1873,1.1827,1.2274,1.2627,1.2783,1.2832,1.2681,1.2563,1.249,1.2382,1.2304,1.2126,1.2026,1.1822,1.1661,1.1868,1.176,1.1517,1.1993,0.0,0.0,0.0,0.0,0.0,0.0,0.0,0.9774,0.9625,0.9862,1.0244,1.0323,1.073,1.1148,1.1375,1.2032,1.2731,1.3215,1.3908,1.4759,0.0,0.0,0.0,0.0,0.0,0.0,0.0,0.0,0.0,0.0,0.0,0.0,0.0,0.0,0.0,0.0,0.0,0.0,0.0,0.0,0.0,1.7827,1.7827,1.7747,1.7544,1.7188,1.6837,1.6522,1.6522,1.6522,1.6522,1.6522,1.6522,1.6522,1.6735,1.6823,1.6861,1.7426,1.7725,1.7847,1.8572,1.8545,1.8065,1.8766,1.8923,1.879,1.8431,1.8608,1.8874,0.0,0.0,0.0,0.0,0.0,0.0,0.0,0.0,0.0,1.3611,0.0,0.0,0.0,0.0,1.3228,1.3133,1.3027,1.2929,1.2783,1.2635,1.2656,1.2785,1.2685,1.281,1.3313,1.2497,1.2302,1.2774,1.229,1.2215,1.2578,1.2832,1.2988,1.2978,1.2725,1.2676,1.2686,1.2672,1.2553,1.2382,1.2274,1.2018,1.1796,1.2359,1.256,1.2628,0.0,0.0,0.0,0.0,0.0,0.0,0.0,0.0,0.9813,0.9753,0.9783,0.9862,0.9872,1.0266,1.0677,1.0703,1.1327,1.1947,1.2046,0.0,1.351,0.0,0.0,0.0,0.0,0.0,0.0,0.0,0.0,0.0,0.0,0.0,0.0,0.0,0.0,0.0,0.0,0.0,0.0,0.0,0.0,0.0,1.838,1.838,1.8302,1.8106,1.7747,1.7312,1.6752,1.6951,1.6879,1.6522,1.668,1.668,1.6522,1.6522,1.6522,1.6534,1.6923,1.73,1.7714,1.8595,1.8807,1.8555,1.9459,1.9698,1.9509,1.9193,1.9371,1.9643,0.0,0.0,0.0,0.0,0.0,0.0,0.0,0.0,1.448,1.4609,0.0,0.0,0.0,0.0,0.0,1.3123,1.3133,1.3027,1.2929,1.2929,1.3007,1.3218,1.3467,1.3621,1.3621,1.3242,1.2955,1.2813,1.2488,1.2451,1.2725,1.2978,1.3085,1.3105,1.2998,1.2861,1.2743,1.3118,1.3001,1.2539,1.251,1.2393,1.2239,1.2948,1.3636,0.0,1.4083,1.4356,0.0,1.4384,0.0,0.0,0.0,0.0,0.9527,0.9734,0.9655,0.9527,0.0,0.0,0.0,1.0389,1.0449,1.0561,1.1099,0.0,1.2332,0.0,0.0,0.0,0.0,0.0,0.0,0.0,0.0,0.0,0.0,0.0,0.0,0.0,0.0,0.0,0.0,0.0,0.0,0.0,0.0,1.9479,1.8968,1.893,1.8688,1.8145,1.8145,1.7867,1.7353,1.7827,1.7585,1.6552,1.7076,1.7034,1.6552,1.6552,1.6552,1.6552,1.6552,1.6552,1.669,1.8292,1.8342,1.7584,1.9195,1.9459,1.907,1.9585,1.9773,1.9773,0.0,0.0,0.0,0.0,0.0,0.0,1.3892,1.4326,1.4734,0.0,0.0,0.0,1.4996,1.4437,1.3885,1.3508,1.3286,1.318,1.3132,1.319,1.3372,1.3621,1.3821,1.3962,1.4186,1.3861,1.357,1.3228,1.3155,1.3022,1.291,1.3094,1.337,1.3651,1.3541,1.3557,1.3646,1.29,1.2805,1.3212,1.3309,1.3231,1.3112,1.3697,0.0,0.0,0.0,1.5136,1.5748,0.0,1.5088,1.3559,0.0,0.0,0.9549,0.9417,0.9257,0.9177,0.9306,0.0,0.0,0.0,0.0,0.0,1.1595,1.1564,1.1751,0.0,0.0,0.0,0.0,0.0,0.0,0.0,0.0,0.0,0.0,0.0,0.0,0.0,0.0,0.0,0.0,0.0,0.0,0.0,1.969,1.9639,1.9479,1.9479,1.9244,1.8688,1.8688,1.8419,1.7867,1.8027,1.7947,1.7666,1.7827,1.7787,1.7666,1.7666,1.7666,1.7666,1.7666,1.7666,1.7693,1.8227,1.826,1.8091,1.9344,1.9223,1.8505,1.9045,1.9246,1.9246,0.0,0.0,1.4063,1.411,0.0,1.4491,1.4728,1.5203,1.5556,0.0,0.0,0.0,1.5414,1.5005,1.4631,1.4359,1.3965,1.3705,1.3646,1.357,1.3621,1.3868,1.401,1.4197,1.4373,1.4326,1.4035,1.3668,1.3668,1.3525,1.3344,1.3372,1.3616,1.4073,1.3872,1.3957,1.4165,1.3355,1.3571,1.4401,1.4031,1.3992,0.0,1.4599,1.4904,0.0,0.0,0.0,1.7065,1.718,1.6359,0.0,0.0,0.0,0.0,0.0,0.0,0.9337,0.9386,0.9496,0.9616,0.9774,0.0,0.0,1.1212,1.1078,1.1114,0.0,0.0,0.0,0.0,0.0,0.0,0.0,0.0,0.0,0.0,0.0,0.0,0.0,0.0,0.0,0.0,0.0,0.0,1.9256,1.9159,1.9197,1.9485,1.9793,1.9717,1.9244,1.9244,1.8968,1.8458,1.865,1.8535,1.8106,1.8341,1.8341,1.8106,1.8106,1.8106,1.8106,1.8106,1.8224,1.8447,1.8466,1.8371,1.8284,1.9391,1.9258,1.8552,1.9139,1.9313,1.9352,0.0,0.0,1.462,1.5017,1.5207,1.5416,1.5858,1.6332,1.6627,0.0,1.638,1.6052,1.5572,1.5529,1.5456,1.5362,1.4879,1.4537,1.4437,1.399,1.3847,1.4047,1.4172,1.4269,1.4373,1.4523,1.4395,1.402,1.402,1.3962,1.3821,1.3668,1.3869,1.4304,1.4023,1.4152,1.4496,1.4228,1.4819,1.5811,1.4702,1.4714,0.0,0.0,1.6038,1.6633,1.7065,1.7641,1.8162,1.7706,1.6912,0.0,0.0,0.0,0.0,0.0,1.0176,0.9744,0.9713,0.9496,0.9359,0.0,0.9625,0.0,1.0457,1.0479,1.0484,1.112,0.0,0.0,0.0,0.0,0.0,0.0,0.0,0.0,0.0,0.0,0.0,0.0,0.0,0.0,0.0,1.7309,1.7936,1.8553,1.8356,1.8516,1.9227,1.9818,2.0039,1.9839,1.9707,1.9441,1.9066,1.9479,1.9207,1.8302,1.8765,1.8765,1.8352,1.8288,1.8288,1.8327,1.8288,1.8535,1.9006,1.9006,1.865,1.8296,1.939,1.9374,1.8893,1.9482,1.9716,1.9697,1.5005,1.4915,1.4877,1.5189,1.5398,1.5667,1.617,1.6554,1.6807,1.6899,1.7002,1.6885,1.632,1.6223,1.603,1.559,1.5369,1.5151,1.5038,1.4708,1.4514,1.4535,1.4344,1.4269,1.4373,1.4523,1.4395,1.402,1.4197,1.415,1.3821,1.3763,1.3966,1.4304,1.4154,1.4501,1.5198,1.4934,1.5765,1.712,1.5954,1.5632,1.5947,1.6316,1.6185,1.5901,1.6575,1.6918,1.6934,1.6308,1.6144,1.5814,0.0,0.0,0.0,1.1637,0.0,0.0,0.0,0.0,0.0,0.0,0.0,0.0,1.0699,1.0338,1.0188,0.0,0.0,0.0,0.0,0.0,0.0,0.0,0.0,0.0,0.0,0.0,0.0,0.0,0.0,0.0,0.0,1.7309,1.7742,1.7876,1.8082,1.8672,1.9719,1.9339,1.9609,2.0699,1.9803,1.9553,2.0024,1.9803,1.9603,1.9406,1.9479,1.9681,1.9869,1.9522,1.9558,1.9869,1.9522,1.9442,1.953,1.953,1.9244,1.8812,1.9475,1.9109,1.8314,1.8879,1.9071,1.9084,1.5421,1.5244,1.5303,1.5853,1.6003,1.6199,1.6819,1.7092,1.7256,1.7234,1.7423,1.739,1.7027,1.6994,1.6798,1.6461,1.6148,1.5891,1.5838,1.5461,1.5254,1.5225,1.5176,1.5033,1.4851,1.4982,1.4813,1.4302,1.4488,1.443,1.4104,1.4339,1.4605,1.4961,1.4883,1.5262,1.5889,1.5865,1.6445,1.7331,1.6128,0.0,1.6523,1.6473,1.6285,1.6129,1.6779,1.7126,1.7165,1.6561,1.6368,0.0,0.0,1.3506,1.2449,0.0,1.101,0.9843,0.0,0.0,0.0,0.9634,0.0,0.0,0.0,0.9972,0.973,0.0,0.0,0.0,0.0,0.0,0.0,0.0,0.0,0.0,0.0,0.0,0.0,0.0,0.0,0.0,0.0,1.6728,1.7133,1.7478,1.8308,1.8879,1.9083,1.9111,1.9509,2.0415,1.9862,1.9908,2.0649,2.0431,2.0345,2.0345,2.0345,2.0465,2.0649,2.0431,2.0465,2.0616,2.0431,2.0345,2.0345,2.0345,2.0039,1.9594,1.9656,1.9371,1.8965,1.9573,1.9602,1.938,1.5969,1.5686,1.5672,1.655,1.6562,1.6689,1.7477,1.7645,1.7656,1.7523,1.7645,1.7667,1.7598,1.7578,1.749,1.7456,1.695,1.6667,1.6709,1.623,1.5978,1.5978,1.6023,1.5786,1.5322,1.5397,1.5152,1.4581,1.4773,1.4771,1.4526,1.4969,1.5343,1.5579,1.5594,1.5907,1.6488,1.6585,1.694,1.734,0.0,1.6428,1.7068,1.6655,1.6451,1.6401,1.6917,1.7409,1.7719,1.7298,1.7102,1.6851,1.5816,1.4567,0.0,0.0,0.0,0.0,0.0,0.0,0.0,0.0,0.0,0.9377,0.0,0.0,0.0,0.0,0.0,0.0,0.0,0.0,0.0,0.0,0.0,0.0,0.0,0.0,0.0,0.0,0.0,0.0,0.0,1.6009,1.6554,1.7175,1.8332,1.8818,1.8451,1.8864,1.9411,2.0132,1.9929,2.022,2.1118,2.1023,2.0991,2.0991,2.0991,2.1023,2.1118,2.1039,2.1023,2.1118,2.1023,2.0991,2.0991,2.0991,2.0715,2.0296,2.0081,1.9978,1.9959,2.0662,2.0557,2.0229,1.6654,1.6194,1.5992,1.6795,1.6773,1.6854,1.7696,1.7755,1.7711,1.7656,1.7711,1.7793,1.8021,1.7721,1.7662,1.8009,1.7526,1.7235,1.739,1.6959,1.6693,1.6693,1.6262,1.5775,1.5289,1.5191,1.4912,1.443,1.4858,1.5077,1.5028,1.5358,1.5504,1.5403,1.529,1.5756,1.6646,1.6439,1.6929,0.0,1.7565,1.7525,0.0,1.7608,1.6833,1.5746,1.6189,1.6969,1.7763,0.0,1.8063,1.8365,0.0,1.5968,1.5122,1.364,0.0,0.0,0.0,0.0,0.0,0.0,0.9765,0.0,0.0,0.0,0.0,0.9439,0.0,0.0,0.0,0.0,0.0,0.0,0.0,0.0,0.0,0.0,0.0,0.0,0.0,0.0,0.0,0.0,1.6448,1.6841,1.7273,1.7913,1.8788,1.8283,1.894,2.1002,2.0014,2.0115,2.1505,2.1181,2.0991,2.0991,2.0991,2.1181,2.1521,2.115,2.1181,2.1521,2.115,2.0991,2.0991,2.0991,2.0715,2.0361,2.091,2.0898,2.0677,2.1335,2.1545,2.15,1.7029,1.6666,1.6618,1.7452,1.7416,1.7456,1.797,1.8225,1.8419,1.8419,1.8419,1.8713,1.9554,1.8566,1.8348,1.9614,1.8571,1.8033,0.0,0.0,1.7596,1.7763,1.7255,1.6848,1.6547,1.6227,1.5857,1.535,1.551,1.557,1.5542,1.6011,1.6241,1.6241,1.6488,1.6905,1.739,0.0,1.788,0.0,0.0,0.0,0.0,1.7741,1.7378,1.6853,1.6856,1.7253,1.7811,0.0,1.7963,0.0,0.0,0.0,0.0,0.0,0.0,0.0,0.0,0.0,0.0,0.0,0.0,0.0,1.0039,0.0,0.9168,0.0,0.0,0.0,0.0,0.0,0.0,0.0,0.0,0.0,0.0,0.0,0.0,0.0,0.0,0.0,0.0,0.0,0.0,0.0,0.0,1.7162,1.7551,1.7714,1.864,2.045,2.0025,2.0471,2.1986,2.184,2.1751,2.1751,2.1751,2.184,2.2003,2.184,2.1857,2.2003,2.1827,2.1615,2.1337,2.1337,2.0943,2.0376,2.1023,2.1042,2.0842,2.1874,2.2024,2.1799,1.7684,1.7399,1.7361,1.801,1.8001,1.8007,1.8351,1.8655,1.8942,1.9091,1.9114,1.9686,2.112,1.9636,1.9309,2.1241,1.9739,1.8861,0.0,0.0,1.8424,0.0,0.0,0.0,0.0,1.7148,1.6672,1.6058,1.6151,1.6177,1.6096,1.662,1.6851,1.6851,1.7255,1.7622,1.8044,0.0,1.8631,1.8512,1.9029,1.8879,1.8253,1.7851,1.7783,1.788,1.7536,1.7593,1.7859,1.8283,1.8313,0.0,1.9017,0.0,0.0,0.0,0.0,0.0,1.4513,0.0,0.0,0.0,0.0,0.0,0.0,0.0,0.0,0.0,0.0,0.0,0.0,0.0,0.0,0.0,0.0,0.0,0.0,0.0,0.0,0.0,0.0,0.0,0.0,0.0,0.0,0.0,0.0,0.0,1.647,1.7247,1.8377,1.9951,2.0204,2.0974,2.2293,2.231,2.231,2.231,2.231,2.231,2.231,2.231,2.2237,2.2106,2.2106,2.1899,2.1582,2.1582,2.1165,2.0561,2.1233,2.1151,2.0872,2.2188,2.2488,2.2323,1.8869,1.8421,1.8042,1.8335,1.8268,1.8398,1.8969,1.8987,1.908,1.9597,1.9666,2.0374,2.2218,0.0,0.0,0.0,0.0,1.9711,1.9608,0.0,1.8973,0.0,0.0,1.8067,0.0,0.0,1.7022,1.6272,1.6621,1.676,1.6771,1.7137,1.719,1.6989,1.6978,1.7514,1.8308,1.8316,1.882,1.9662,1.9683,1.9647,1.9487,0.0,1.7892,1.8145,1.7868,0.0,0.0,1.9436,1.9712,0.0,0.0,0.0,0.0,0.0,0.0,0.0,0.0,0.0,0.0,1.6211,0.0,0.0,0.0,0.0,0.9439,0.0,0.0,0.0,0.0,0.0,0.0,0.9217,0.0,0.0,0.0,0.0,0.0,0.0,0.0,0.0,0.0,0.0,0.0,0.0,0.0,0.0,1.6144,1.691,1.8142,1.9942,2.0754,2.1515,2.231,2.231,2.231,2.231,2.231,2.231,2.231,2.231,2.2032,2.1612,2.1612,2.1612,2.1582,2.1582,2.1337,2.1023,2.1708,2.1439,2.0872,2.2188,2.3041,2.346,1.9698,1.9547,1.9233,1.8998,1.9023,1.9285,1.9759,2.0158,0.0,0.0,2.0811,0.0,0.0,2.1062,2.0612,0.0,0.0,1.9735,2.0035,2.0278,0.0,0.0,0.0,2.002,0.0,0.0,0.0,0.0,1.731,1.7236,1.7236,1.7302,1.7323,1.7335,1.7619,1.8053,0.0,0.0,0.0,0.0,0.0,1.9266,1.9239,0.0,0.0,1.8778,1.8252,1.8255,0.0,1.9361,1.9849,2.0228,2.0685,2.0474,1.9898,1.9287,1.8458,0.0,0.0,0.0,1.8365,1.8419,0.0,0.0,0.0,0.0,0.0,0.0,0.0,0.0,0.0,0.0,0.9024,0.9328,0.9288,0.0,0.0,0.0,0.0,0.0,0.0,0.0,0.0,0.0,0.0,0.0,0.0,0.0,0.0,1.6477,1.8028,1.9624,2.0649,2.1549,2.231,2.231,2.231,2.231,2.2003,2.2003,2.2282,2.1691,2.1507,2.1582,2.1582,2.1259,2.0765,2.1352,2.1007,2.0204,2.068,2.1065,2.147,2.2353,2.2532,2.2327,2.0245,2.0245,2.0062,1.9433,1.9486,1.982,0.0,0.0,0.0,0.0,2.1756,0.0,2.3374,0.0,2.1282,0.0,2.1121,2.0197,2.0617,2.07,0.0,2.0467,2.0691,0.0,0.0,0.0,0.0,0.0,0.0,1.8069,1.7913,1.7699,1.76,1.7512,1.7748,1.8193,1.8748,1.8976,1.9168,0.0,0.0,1.9405,0.0,0.0,1.8907,1.9352,0.0,1.8749,1.907,1.9609,2.0118,2.0676,2.1372,2.1284,2.0861,2.0861,2.0286,1.9793,2.0671,2.0623,0.0,2.0374,1.8768,0.0,1.5751,0.0,0.0,0.0,0.0,0.0,0.0,0.0,0.0,0.9257,0.9248,0.9297,0.0,0.9368,0.0,0.0,0.0,0.0,0.0,0.0,0.0,0.0,0.0,0.0,0.0,0.0,1.7642,1.9437,2.0694,2.1647,2.231,2.231,2.2209,2.2032,2.1748,2.1688,2.1811,2.1415,2.1181,2.1165,2.129,2.107,2.0583,2.0959,2.0748,2.0174,2.0246,2.0569,2.1096,2.1994,2.2203,2.2088,2.0667,2.0654,2.0539,1.9815,1.9691,0.0,0.0,0.0,2.1597,0.0,2.2356,2.299,2.4498,2.2922,2.2327,2.3904,2.2141,2.1015,2.1208,2.0483,0.0,0.0,1.9908,1.944,1.9317,0.0,0.0,0.0,0.0,1.9156,1.8691,1.8336,1.7955,1.7501,1.7534,0.0,1.8831,1.876,1.9284,2.0117,2.009,2.0061,2.006,2.009,0.0,1.9782,1.9381,1.9352,1.9593,2.0313,2.0619,2.0837,2.1945,2.231,2.231,2.231,2.231,2.231,2.231,2.1453,2.0861,2.1998,0.0,0.0,0.0,0.0,1.6137,0.0,0.0,0.0,0.0,0.0,0.0,0.8992,0.9136,0.9119,0.0,0.0,0.0,0.0,0.0,0.0,0.0,0.0,0.0,0.0,0.0,0.0,0.0,0.0,1.6959,1.9334,2.0825,2.1823,2.2282,2.2282,2.2032,2.1582,2.1582,2.1368,2.0991,2.1368,2.1102,2.0348,2.0797,2.0959,2.0926,2.0516,2.0583,2.0894,2.0483,2.01,1.9929,2.1186,2.2099,2.2802,2.201,2.1712,2.1466,0.0,2.1235,2.1271,0.0,0.0,0.0,0.0,2.2933,2.3128,2.3098,2.2279,2.168,2.1599,2.0645,0.0,0.0,0.0,0.0,2.0415,2.1157,2.1021,1.9831,2.0325,0.0,1.9282,0.0,0.0,1.8691,1.8336,1.8143,1.7999,1.7757,1.8201,1.9159,1.9278,1.9659,2.0204,1.9914,1.9835,0.0,0.0,2.0005,2.0282,2.0091,2.0266,2.0671,2.1152,2.1332,2.144,2.2113,2.231,2.231,2.231,2.231,2.231,2.231,2.2073,2.1924,2.2237,2.0857,1.9482,0.0,0.0,0.0,0.0,0.0,0.0,0.0,0.0,0.0,0.0,0.9217,0.0,0.0,0.0,0.0,0.8602,0.0,0.0,0.0,0.0,0.0,0.0,0.0,0.0,0.0,0.0,0.0,1.812,2.0397,2.1823,2.2282,2.1957,2.1718,2.1598,2.1306,2.1086,2.0991,2.0748,2.0715,2.0797,2.0583,2.0483,2.0483,2.0731,2.0499,2.005,2.0212,2.0645,2.1156,2.1021,2.1979,2.3182,2.2724,2.2447,0.0,2.2527,0.0,0.0,2.2499,2.29,0.0,2.3451,2.3737,0.0,2.3416,2.2614,2.1979,2.1605,2.0692,0.0,2.0543,0.0,0.0,2.0492,2.0956,2.0803,1.9901,2.0342,0.0,1.9915,0.0,0.0,1.9574,1.9267,1.8966,1.8636,1.8427,1.8839,1.9599,1.9768,2.0126,2.0429,2.0041,0.0,0.0,1.9893,2.0209,2.0706,2.0649,2.0878,2.1306,2.1521,2.1718,2.1957,2.2209,2.231,2.231,2.231,2.231,2.231,2.231,2.231,2.231,2.231,2.1665,2.0986,2.0719,1.9973,1.9206,0.0,0.0,0.0,0.0,0.0,0.0,0.0,0.0,0.0,0.0,0.0,0.0,0.0,0.8805,0.0,0.0,0.0,0.0,0.0,0.0,0.0,0.0,0.0,0.0,1.6947,1.917,2.0189,1.99,2.1035,2.124,2.0511,2.0652,2.0682,2.0682,2.0416,2.0364,2.0447,2.0364,2.0314,2.0314,2.0398,2.0243,2.001,2.0335,2.0978,2.168,2.1605,2.2428,2.3405,2.3178,2.3113,0.0,0.0,0.0,0.0,0.0,2.3672,0.0,2.4462,0.0,2.4572,2.4523,2.3422,2.2724,2.2724,0.0,2.1081,2.1665,2.0602,2.0213,2.0812,2.0183,1.9824,1.9824,1.9998,2.0288,0.0,0.0,0.0,2.0729,2.0473,2.0,1.934,1.9284,0.0,0.0,2.0273,2.0499,2.0615,2.0224,2.0049,2.0049,2.0049,2.0429,2.0991,2.0991,2.1306,2.1688,2.1688,2.1957,2.231,2.231,2.231,2.231,2.231,2.231,2.231,2.231,2.231,2.231,2.231,2.231,2.218,2.1794,2.1899,2.2032,2.1658,2.0083,0.0,0.0,0.0,0.0,0.0,0.0,0.0,0.0,0.0,0.0,0.0,0.0,0.0,0.0,0.0,0.0,0.0,0.0,0.0,0.0,0.0,0.0,1.5735,1.7641,0.0,1.7205,0.0,2.0799,1.9411,2.0119,2.0382,2.0212,2.0348,2.0158,1.9782,2.0089,2.0246,2.028,1.9874,1.9955,2.0393,2.0798,2.1321,2.1904,2.2562,2.3088,2.3377,2.4458,2.4266,0.0,0.0,0.0,2.4459,2.4998,2.4435,2.4195,2.4914,2.4713,2.45,2.4517,2.3422,2.2724,2.2724,2.1964,0.0,0.0,0.0,0.0,2.1515,2.0887,2.0528,2.0528,2.0364,2.0436,0.0,0.0,0.0,2.0729,2.0473,2.0255,1.998,1.9539,0.0,2.0226,2.0219,0.0,2.0312,1.9938,1.9782,1.9782,1.9782,2.0288,2.0991,2.0991,2.1524,2.218,2.218,2.2237,2.231,2.231,2.231,2.231,2.231,2.231,2.231,2.231,2.231,2.231,2.231,2.231,2.2282,2.2209,2.1675,2.1291,2.1552,2.049,1.9336,1.8751,0.0,0.0,0.0,0.0,0.0,0.0,0.0,0.0,0.0,0.0,0.0,0.0,0.0,0.0,0.0,0.0,0.0,0.0,0.0,0.0,0.0,0.0,0.0,0.0,0.0,0.0,2.0916,2.1215,2.0813,1.9854,2.0565,2.0632,2.0193,1.9909,2.0,2.028,1.9874,2.0055,2.0745,2.1899,2.2398,2.2619,2.3206,2.3186,2.2785,0.0,0.0,2.5127,0.0,0.0,0.0,0.0,2.5939,0.0,2.5397,2.5218,2.4916,2.4578,2.3733,2.3161,2.3161,2.2577,2.2203,2.2203,2.1874,2.1695,2.1695,2.1395,2.1216,2.1216,2.1087,2.1107,2.1316,0.0,0.0,0.0,0.0,0.0,2.0529,0.0,2.0199,0.0,0.0,0.0,2.026,1.9847,1.969,1.969,1.969,2.007,2.0616,2.0616,2.1213,2.1957,2.2209,2.231,2.231,2.231,2.231,2.231,2.231,2.231,2.231,2.231,2.231,2.231,2.231,2.231,2.231,2.231,2.1781,2.1368,2.1552,2.0959,2.0017,1.8829,1.7383,0.0,0.0,0.0,0.0,0.0,0.0,0.0,0.0,0.0,0.0,0.0,0.0,0.0,0.0,0.0,0.0,0.0,0.0,0.0,0.0,0.0,0.0,0.0,0.0,0.0,1.8736,2.0004,2.0382,2.0035,2.0243,2.0408,2.0497,1.9933,2.021,2.1029,2.0835,2.0917,2.1321,2.2293,2.2724,2.2783,2.337,2.3231,2.2603,0.0,2.6027,0.0,0.0,2.6476,0.0,2.706,2.7467,2.7292,2.5968,2.5689,2.536,2.4657,2.4014,2.3595,2.3595,2.3161,2.2877,2.2877,2.2383,2.2099,2.2099,2.1979,2.1904,2.1904,2.1769,2.1801,0.0,0.0,0.0,0.0,0.0,0.0,0.0,0.0,0.0,0.0,0.0,2.033,2.0353,1.9878,1.969,1.969,1.969,1.9945,2.0314,2.0314,2.0862,2.1658,2.2032,2.2209,2.231,2.231,2.231,2.231,2.231,2.231,2.231,2.231,2.231,2.231,2.231,2.231,2.231,2.231,2.1869,2.1491,2.1582,2.1337,2.0687,1.9239,1.8938,0.0,0.0,0.0,0.0,0.0,0.0,0.0,0.0,0.0,0.0,0.0,0.0,0.0,0.0,0.0,0.0,0.0,0.0,0.0,0.0,0.0,1.4993,1.4054,0.0,1.9002,0.0,1.909,2.0035,2.0158,2.0081,2.0294,2.0692,2.0288,2.0707,2.171,2.1844,2.1904,2.1964,2.2622,2.2877,2.2936,2.3286,2.3009,2.2392,0.0,0.0,0.0,0.0,0.0,0.0,2.854,2.8479,2.8017,2.6703,2.5974,2.536,2.4657,2.4014,2.3595,2.3595,2.355,2.352,2.352,2.346,2.3415,2.3415,2.2877,2.2634,2.2634,2.1994,2.1894,0.0,0.0,0.0,0.0,0.0,0.0,0.0,0.0,0.0,0.0,2.1262,2.0882,2.0608,1.9952,1.969,1.969,1.969,1.9945,2.0314,2.0314,2.0862,2.1628,2.1658,2.1957,2.231,2.231,2.231,2.231,2.231,2.231,2.231,2.231,2.231,2.231,2.231,2.231,2.231,2.231,2.1645,2.115,2.1521,2.1582,2.1274,2.0291,2.0038,1.9284,0.0,0.0,0.0,0.0,0.0,0.0,1.246,0.0,0.0,0.0,0.0,0.0,0.0,0.0,0.0,0.0,0.0,0.0,1.3434,0.0,1.4595,1.6176,1.7759,0.0,2.03,2.0677,2.0465,1.9812,2.0717,2.0996,2.0737,2.1276,2.1575,2.1739,2.2379,2.2634,2.2694,2.3266,2.352,2.3477,2.295,2.2346,2.171,0.0,0.0,0.0,0.0,0.0,0.0,0.0,2.8899,2.8269,2.7335,2.6258,2.536,2.4657,2.4014,2.3595,2.3595,2.3595,2.3595,2.3595,2.3595,2.3595,2.3595,2.3355,2.3236,2.3236,2.2966,2.2863,0.0,0.0,0.0,0.0,0.0,0.0,0.0,0.0,2.1735,2.144,2.1024,2.0568,2.0079,1.9794,1.969,1.969,1.969,1.9818,1.9929,1.9929,2.033,2.083,2.083,2.1477,2.231,2.231,2.231,2.231,2.231,2.231,2.231,2.231,2.231,2.231,2.231,2.231,2.231,2.231,2.1615,2.1055,2.1213,2.0813,2.0599,2.0991,2.0831,2.03,0.0,0.0,0.0,0.0,0.0,0.0,0.0,0.0,1.4937,0.0,0.0,0.0,0.0,0.0,0.0,0.0,0.0,0.0,1.472,0.0,1.562,1.7141,1.7758,1.8324,1.8843,2.0197,2.0639,2.0333,2.1152,2.1469,2.1365,2.2398,2.2622,2.2338,2.2966,2.3475,2.3864,2.4118,2.4462,2.4716,2.4022,2.3384,2.2743,2.9498,0.0,2.9768,0.0,2.9566,2.9446,2.9462,2.8971,2.8353,2.7715,2.6587,2.5644,2.4986,2.4313,2.3894,2.3894,2.3714,2.3595,2.3595,2.3595,2.3595,2.3595,2.3595,0.0,2.3595,2.3595,2.3541,2.3389,2.3663,0.0,0.0,0.0,0.0,0.0,2.2353,2.2126,2.1829,2.1444,2.0902,2.0258,2.0064,1.9869,1.969,1.969,1.969,1.969,1.969,1.9965,2.0314,2.0314,2.1007,2.1915,2.1915,2.2077,2.2265,2.2135,2.218,2.231,2.231,2.231,2.231,2.231,2.231,2.231,2.231,2.1615,2.0926,2.0665,2.0208,2.0158,2.1054,2.1213,2.0959,2.0348,0.0,0.0,0.0,0.0,0.0,0.0,1.4709,1.5311,1.5128,0.0,0.0,0.0,0.0,0.0,0.0,0.0,0.0,0.0,0.0,0.0,0.0,1.7169,1.7652,1.852,1.9976,2.0812,2.1021,2.168,2.2084,2.2308,2.3206,2.3355,2.2981,2.3415,2.4014,2.4582,2.4582,2.5031,2.5506,2.4839,2.4134,2.3472,3.0451,3.0615,3.0703,3.0703,3.0689,3.0265,2.8882,2.8675,2.8353,2.7715,2.6991,2.6333,2.5674,2.5016,2.4567,2.4567,2.3984,2.3595,2.3595,2.3595,2.3595,0.0,0.0,2.3595,2.3595,2.3595,2.361,2.361,0.0,0.0,2.2979,0.0,2.2612,2.2999,2.2985,2.3227,2.355,2.2921,2.2278,2.162,2.0961,2.0288,1.969,1.969,1.969,1.969,1.969,1.9965,2.0314,2.0314,2.0616,2.1039,2.1039,2.1615,2.2209,2.1748,2.1928,2.231,2.231,2.231,2.231,2.231,2.231,2.231,2.231,2.1615,2.078,1.9874,2.0035,2.0314,2.0314,2.1039,2.1179,1.9928,0.0,0.0,0.0,0.0,0.0,0.0,1.5355,1.5977,1.6414,0.0,0.0,0.0,0.0,0.0,0.0,0.0,0.0,1.3761,1.2492,0.0,1.5684,1.588,1.7515,2.0654,2.0669,2.1051,2.171,2.2368,2.2996,2.358,2.3595,2.3595,2.3595,2.3595,2.4014,2.4582,2.4582,2.5031,2.5506,2.4936,2.4234,2.3403,3.1153,3.1202,3.1219,3.1219,3.0891,3.0446,2.9974,2.9173,2.8517,2.8308,2.7679,2.7186,2.6976,2.5959,2.53,0.0,2.5091,2.4971,0.0,2.4552,2.4298,2.4298,2.3849,2.3595,2.3595,2.3595,2.3819,2.4298,0.0,0.0,0.0,2.3923,2.3714,2.3422,2.3422,2.3231,2.2951,2.2798,2.2293,2.168,2.147,2.0976,2.0438,2.0887,2.0483,1.975,2.0228,2.0189,1.9909,1.9909,2.0158,2.0483,2.0208,2.0698,2.1385,2.1213,2.1477,2.1823,2.1823,2.2429,2.2936,2.2446,2.2682,2.2919,2.2412,2.1615,2.0764,1.9889,1.9818,1.9965,2.0246,2.055,2.0436,1.9501,0.0,0.0,0.0,0.0,0.0,0.0,1.6319,1.674,0.0,1.63,0.0,0.0,0.0,0.0,0.0,0.0,0.0,0.0,1.6093,0.0,1.8408,1.8045,1.8848,2.0722,2.162,2.2383,2.2996,2.3206,2.367,2.4298,2.4298,2.4298,2.4343,2.4777,2.4837,2.4672,2.5615,2.6093,2.6236,2.6003,2.5473,2.4695,3.1482,3.1482,3.1392,3.1195,3.0791,3.0342,2.9864,2.9116,2.8502,2.8248,2.7844,2.7625,2.7625,2.6841,0.0,2.6004,2.5749,2.5615,2.5615,2.5226,2.5001,2.5001,2.4582,2.4358,2.4358,0.0,0.0,2.4582,2.4227,2.4051,2.4036,2.4193,2.4014,2.3595,2.3595,2.3385,2.3026,2.3026,2.2652,2.2069,2.2069,2.1665,2.1126,2.1545,2.1171,2.0498,2.0932,2.0812,2.0408,2.0154,2.0231,2.037,1.9858,2.0085,2.0581,2.0894,2.1343,2.1838,2.2192,2.2892,2.3385,2.2844,2.3054,2.3131,2.2036,2.1385,2.0764,1.9889,1.969,1.9782,2.0035,2.0177,2.0147,1.9682,2.0403,2.027,1.8187,0.0,0.0,0.0,0.0,0.0,0.0,1.7649,0.0,0.0,0.0,0.0,0.0,0.0,0.0,1.7404,1.7418,0.0,1.9735,1.936,1.9918,2.1455,2.2517,2.3236,2.361,2.3864,2.4223,2.4582,2.4582,2.4716,2.5016,2.5181,2.5285,2.545,2.6273,2.6737,2.6956,2.6938,2.6283,2.5315,3.1482,3.1482,0.0,0.0,3.0567,0.0,2.8921,2.8697,2.8427,2.779,2.7655,2.7625,2.7625,2.7625,2.732,2.6707,0.0,0.0,0.0,2.5704,2.5674,2.5674,2.563,2.5615,2.5615,2.5615,2.5315,2.4657,2.4103,2.3759,2.367,2.367,2.364,2.3595,2.3595,2.3595,2.3595,2.3595,2.3266,2.2742,2.2742,2.2338,2.1769,2.1814,2.1769,2.1695,2.1739,2.1739,2.1605,2.0932,2.0722,2.0587,1.9899,1.969,1.9869,2.0761,2.1469,2.2147,2.3126,2.3581,2.3736,2.3479,2.3431,2.3033,2.1455,2.1071,2.0827,1.9889,1.969,1.969,1.969,2.0,2.0246,2.0246,2.0616,2.0485,1.9221,0.0,0.0,0.0,0.0,0.0,0.0,1.8885,1.8691,0.0,0.0,0.0,0.0,0.0,1.6411,1.7156,1.7087,1.7987,1.9921,1.9977,2.0955,2.2858,2.3385,2.3684,2.3759,2.4403,2.4672,2.4716,2.4716,2.5106,2.563,2.5076,2.548,2.6467,2.6602,2.6976,2.744,2.7494,2.664,2.5315,0.0,0.0,3.1422,3.1315,3.1228,3.1016,3.0178,2.9654,2.9101,2.8442,2.7904,2.7625,2.7625,2.7625,2.7565,2.74,2.72,2.7111,2.7111,2.6632,2.6363,2.6363,2.5869,2.5615,2.5615,2.5615,2.554,2.5375,2.5719,2.5375,2.4343,2.4343,2.4103,2.3595,2.3595,2.3595,2.3595,2.3595,2.352,2.3385,2.3385,2.3011,2.2503,2.2966,2.2547,2.1754,2.2263,2.2113,2.1605,2.0932,2.0722,2.0587,1.9899,1.969,1.9924,2.1066,2.1405,2.1729,2.2875,2.3847,2.4378,2.3786,2.394,2.3818,2.2199,2.1841,2.1415,1.998,1.969,1.969,1.969,1.9782,1.9839,1.9839,1.9945,1.9918,1.973,1.938,0.0,0.0,1.9018,1.909,1.9858,1.9692,1.9266,0.0,0.0,0.0,0.0,0.0,1.9573,1.9771,2.0246,2.0756,2.1259,2.1745,2.2712,2.4163,2.4313,2.4642,2.5136,2.53,2.5644,2.6123,2.6123,2.6213,2.6378,2.6737,2.6168,2.5241,2.6752,2.6811,2.615,2.6579,2.6162,2.5329,3.1482,3.1482,3.1482,3.1482,3.1482,3.1243,3.0612,2.9983,2.934,2.8682,2.7993,2.7625,2.7625,2.7625,2.7625,2.7625,2.7625,2.7625,2.7625,2.7245,2.7036,2.7036,2.6692,2.6497,2.6497,2.6497,2.6363,2.6063,2.6108,2.5779,2.5076,2.5076,2.4717,2.4073,2.4073,2.3894,2.3595,2.3595,2.3595,2.3595,2.3595,2.34,2.3131,2.3475,2.3176,2.2622,2.2966,2.2877,2.2473,2.1829,2.1605,2.15,2.0827,2.0602,2.0835,2.2037,2.1932,2.1802,2.3174,2.4261,2.4922,2.463,2.4538,2.4149,2.2719,2.2655,2.2441,2.0649,2.04,2.0431,2.0025,1.9803,1.969,1.969,1.9657,1.9686,1.9864,1.959,0.0,2.0162,1.9901,1.9869,2.0265,2.0296,1.9989,1.9258,0.0,0.0,1.9044,2.0266,2.0954,2.0886,2.1717,2.2278,2.2562,2.2921,2.361,2.4582,2.4582,2.4971,2.5615,2.5914,2.6258,2.6587,2.6587,2.6752,2.7036,2.7096,2.6662,2.6078,2.7156,2.7141,2.6489,2.6512,2.6014,2.5287,3.1482,3.1482,3.1482,3.1482,3.145,3.121,3.0731,2.9968,2.9265,2.8801,2.8053,2.7625,2.7625,2.7625,2.767,2.7724,2.7685,2.7625,2.7625,2.7625,2.7625,2.7625,2.7625,2.7625,2.7625,2.7625,2.7305,2.6737,2.6183,2.5854,2.5749,2.5749,2.5405,2.4731,2.4731,2.4403,2.3759,2.3759,2.3684,2.3595,2.3595,2.3595,2.3595,2.3595,2.3595,2.3595,2.3595,2.3595,2.3505,2.2877,2.2724,2.2562,2.1904,2.1695,2.1934,2.2961,2.2595,2.2203,2.3714,2.4659,2.5266,2.5598,2.5255,2.4517,2.3305,2.3588,2.3539,2.1714,2.1503,2.1393,2.0609,2.0132,1.9839,1.9752,1.9638,1.9658,1.9918,0.0,2.0239,2.0482,2.0682,2.0665,2.0348,2.0693,2.0655,2.0005,2.0154,0.0,0.0,2.1251,2.1453,2.124,2.2292,2.3071,2.3595,2.3699,2.4103,2.4731,2.4821,2.527,2.5929,2.6482,2.6737,2.6737,2.6737,2.7051,2.758,2.6976,2.7006,2.749,2.758,2.7565,2.7375,2.6625,2.596,2.5287,3.1482,3.1482,3.1482,3.1482,3.1046,3.0821,3.1243,2.9879,2.8921,2.937,2.8353,2.7625,2.7625,2.7625,2.7814,2.8397,2.7904,2.7625,2.7625,2.7625,2.7625,2.7625,2.7625,2.7625,2.7625,2.7625,2.7565,2.7425,2.737,2.6976,2.6437,2.6437,2.6093,2.545,2.545,2.5091,2.4418,2.4418,2.4133,2.3595,2.3595,2.3595,2.3595,2.3595,2.3595,2.3595,2.3595,2.3595,2.3505,2.2877,2.2724,2.2562,2.1904,2.1695,2.1869,2.2596,2.2675,2.2817,2.4024,2.4792,2.5303,2.5812,2.615,2.605,2.4929,2.4745,2.4444,2.3135,2.2528,2.2092,2.1424,2.0898,2.0376,1.9934,1.985,1.9895,2.0119,0.0,1.9972,1.9986,1.9938,2.0015,2.028,2.0569,2.0847,2.1039,2.1288,2.1307,2.1039,2.1943,2.2279,2.1875,2.2908,2.3505,2.3595,2.4178,2.4792,2.5465,2.6019,2.6632,2.726,2.743,2.7425,2.7425,2.7425,2.752,2.761,2.7505,2.7156,2.6797,2.74,2.723,2.6649,2.5856,2.5508,2.5175,3.1482,3.1482,3.1482,3.1482,3.127,3.1165,3.1422,3.0447,2.9729,3.0043,2.8936,2.8128,2.8128,2.785,2.7844,2.8547,2.8308,2.8278,2.8637,2.8323,2.8128,2.8128,2.8128,2.7949,2.7625,2.7625,2.7625,2.7625,2.7625,2.746,2.7126,2.7126,2.6767,2.6138,2.6138,2.5779,2.5136,2.4731,2.4657,2.4612,2.3894,2.3819,2.4118,2.3744,2.3595,2.3595,2.3595,2.3595,2.355,2.3266,2.3176,2.3116,2.2817,2.2712,2.2772,2.3086,2.3176,2.3348,2.4189,2.4592,2.4989,2.5799,2.6139,2.6148,2.5481,2.5615,2.543,2.3669,2.3585,2.3468,2.234,2.1774,2.1439,2.1372,2.0822,0.0,0.0,2.0445,2.0114,2.0268,1.9938,1.9933,2.0461,2.0801,2.1173,2.15,2.2154,2.2374,2.1988,2.2755,2.3109,2.2847,2.3348,2.3774,2.4148,2.4477,2.5136,2.6138,2.6437,2.6931,2.7625,2.7625,2.7625,2.7625,2.7625,2.7625,2.7625,2.7625,2.7445,2.7156,2.7505,2.738,2.6991,2.5833,2.5398,2.5175,3.1482,3.1482,3.1482,3.1482,3.1405,3.1287,3.1452,3.0821,3.0342,3.0477,2.952,2.8831,2.8831,2.8353,2.8308,2.8981,2.8906,2.9101,2.9759,2.9325,2.8906,2.8607,2.8442,2.8113,2.7625,2.7625,2.7625,2.7625,2.7625,2.7625,2.7625,2.7625,2.7355,2.6811,2.6811,2.6452,2.5809,2.53,2.5285,2.551,2.4313,2.4238,2.4716,2.3924,2.3699,2.3819,2.3655,2.3595,2.3595,2.3595,2.3595,2.3595,2.3595,2.3595,2.3595,2.3595,2.3595,2.3681,2.4116,2.4307,2.4592,2.5411,2.5815,2.5936,2.5732,2.6219,2.6218,2.4509,2.4729,2.481,2.3489,2.2882,2.2572,2.2528,0.0,0.0,0.0,2.1171,2.0792,2.0842,2.046,2.0363,2.0887,2.1364,2.169,2.1929,2.2813,2.3219,2.2933,2.334,2.367,2.3834,2.3684,2.3924,2.4567,2.4731,2.5435,2.6587,2.6752,2.7081,2.7625,2.7625,2.7625,2.7625,2.7625,2.7625,2.7625,2.7625,2.7625,2.7625,2.7625,2.7625,2.7458,2.6162,2.5563,2.5231,3.1482,3.1482,3.1482,3.1482,3.1001,3.0791,3.1435,3.0462,2.9864,3.0432,2.9924,2.9505,2.9505,2.946,2.9684,3.0313,2.9849,2.9774,3.0387,3.0387,2.9834,2.8652,2.7993,2.7619,2.7625,2.7625,2.7625,2.7625,2.7625,2.7625,2.7625,2.7625,2.7595,2.755,2.755,2.7126,2.6512,2.6467,2.6123,2.5555,2.4837,2.4956,2.539,2.4088,2.3999,2.4418,2.3819,2.3595,2.3595,2.3595,2.3595,2.3595,2.3595,2.3595,2.3595,2.3595,2.3595,2.3595,2.3638,2.4032,2.443,2.4511,2.5259,2.5997,2.5983,2.6368,2.664,2.6488,2.6182,2.5683,2.4977,2.4395,2.3649,2.2524,0.0,0.0,2.1759,2.2134,2.2269,2.168,2.1575,2.156,2.162,2.2214,2.2589,2.2634,2.3218,2.3563,2.3535,2.358,2.3894,2.4492,2.3924,2.3924,2.4567,2.5241,2.5899,2.6602,2.72,2.7565,2.7625,2.7625,2.7625,2.7625,2.7625,2.7625,2.7625,2.7625,2.7625,2.7625,2.7625,2.7625,2.7509,2.6721,2.6014,2.5287,3.1582,3.1482,3.1482,3.1482,3.1315,3.124,3.1437,3.1106,3.0881,3.1106,3.0567,3.0163,3.0163,2.9804,2.9834,3.0447,3.0283,3.0432,3.1106,3.115,3.0567,2.9265,2.8966,2.8427,2.764,2.7625,2.7625,2.7625,2.7625,2.7625,2.7625,2.7625,2.7625,2.7625,2.7625,2.749,2.7171,2.6767,2.6677,2.6737,2.5674,2.5379,2.5433,2.448,2.3807,2.3316,2.306,2.2751,2.2409,2.2409,2.2409,2.25,2.2905,2.3054,2.3113,2.3508,2.3909,2.4238,2.4238,2.4083,2.3991,2.4307,2.4712,2.5089,2.5411,2.5908,2.6129,2.5611,2.5998,2.6218,2.5497,2.5213,2.4846,2.4272,0.0,2.3396,2.2817,2.2576,2.2362,2.2095,2.1862,2.1859,2.2263,2.2532,2.2847,2.3221,2.346,2.3595,2.3595,2.3999,2.4358,2.4567,2.4777,2.5166,2.5839,2.6093,2.6557,2.72,2.7505,2.7625,2.7625,2.7625,2.7625,2.7625,2.7625,2.7625,2.7625,2.7625,2.7625,2.7625,2.7625,2.7625,2.7524,2.6774,2.6014,2.5287,3.164,3.1482,3.1482,3.1482,3.1482,3.1482,3.1482,3.1482,3.1482,3.1482,3.112,3.0821,3.0821,3.0447,3.0357,3.0791,3.0821,3.1031,3.1437,3.1482,3.1046,2.9924,2.9684,2.9056,2.7919,2.7889,2.7784,2.7625,2.7625,2.7625,2.7625,2.7625,2.7625,2.7625,2.7625,2.7458,2.7225,2.7031,2.7056,2.7166,2.6266,2.5997,2.6039,2.5209,2.4275,2.349,2.3244,2.2797,2.2228,2.2228,2.2228,2.2339,2.2785,2.3098,2.3349,2.3792,2.4403,2.4881,2.4881,2.4597,2.4267,2.4414,2.476,2.4999,2.4966,2.5689,2.6162,2.5391,2.6089,2.6706,2.6189,2.609,2.5963,2.557,2.5096,2.4543,2.377,2.3631,2.3363,2.2775,2.2662,2.2712,2.2936,2.3161,2.3475,2.3879,2.3924,2.3924,2.3924,2.4328,2.4761,2.5226,2.5674,2.6243,2.6901,2.6692,2.6916,2.7625,2.7784,2.7889,2.7904,2.8113,2.8083,2.7904,2.8113,2.8015,2.764,2.785,2.7769,2.7625,2.7625,2.7625,2.7539,2.7284,2.6529,2.5603,3.164,3.1482,3.1482,3.1482,3.1482,3.1482,3.1482,3.1482,3.1482,3.1482,3.1482,3.1482,3.1482,3.1482,3.1482,3.1482,3.1482,3.1482,3.1497,3.1497,3.124,3.0552,2.9924,2.928,2.8622,2.8607,2.8263,2.7625,2.7625,2.7625,2.7625,2.7625,2.7625,2.7625,2.7625,2.7188,2.6563,2.7306,2.7203,2.6505,2.6594,2.6991,2.7425,2.6123,2.5555,2.5379,2.4761,2.4019,2.3393,2.3393,2.3393,2.3393,2.3393,2.3904,2.45,2.4578,2.5106,2.5615,2.5615,2.5615,2.5465,2.4761,2.5515,2.6066,2.4715,2.5837,2.7009,2.6349,2.6748,2.7201,2.7201,2.7201,2.6946,2.6116,2.6665,2.654,2.4581,2.5527,2.5707,2.3846,2.4223,2.4358,2.367,2.4223,2.4582,2.4597,2.4597,2.4597,2.4597,2.4597,2.5241,2.6557,2.6602,2.6916,2.7625,2.6916,2.6931,2.764,2.8263,2.8607,2.8622,2.928,2.922,2.8637,2.9295,2.8831,2.7685,2.8323,2.8203,2.764,2.764,2.764,2.773,2.8353,2.757,2.6335,3.164,3.1482,3.1482,3.1482,3.1482,3.1482,3.1482,3.1482,3.1482,3.1482,3.1943,3.2048,3.1526,3.1943,3.2033,3.1511,3.1958,3.2422,3.2886,3.2901,3.2602,3.1943,3.0836,2.9939,2.931,2.8831,2.8502,2.8293,2.7814,2.7625,2.7625,2.7625,2.7625,2.7625,2.7625,2.7458,2.7306,2.7524,2.7458,2.7276,2.73,2.7128,2.6782,2.6403,2.5644,2.4696,2.3986,2.3326,2.2777,2.2268,2.2063,2.2159,2.2578,2.3547,2.4488,2.4496,2.5368,2.6303,2.6303,2.6632,2.6722,2.56,2.5543,2.5712,2.5349,2.5966,2.658,2.6377,2.6788,2.7201,2.7201,2.7201,2.6994,2.6389,2.6486,2.6326,2.5364,2.5561,2.5455,2.4418,2.4462,2.4507,2.4343,2.4462,2.4776,2.5285,2.5315,2.5315,2.5315,2.5749,2.6183,2.6572,2.7036,2.7604,2.8293,2.7619,2.7619,2.8293,2.8502,2.8846,2.9295,2.949,2.9475,2.9295,2.949,2.9355,2.8996,2.9205,2.916,2.8981,2.8981,2.8981,2.9011,2.9205,2.8624,2.7684,3.236,3.2093,3.2003,3.2258,3.2093,3.2003,3.2273,3.2302,3.2302,3.2302,3.2662,3.2751,3.2362,3.2662,3.2736,3.2347,3.2677,3.3066,3.3469,3.3499,3.332,3.2916,3.1869,3.0866,2.9968,2.9564,2.9235,2.8996,2.8577,2.8368,2.8368,2.8368,2.8233,2.7993,2.8248,2.8099,2.7602,2.8144,2.8181,2.7942,2.8248,2.7995,2.7302,2.7212,2.6415,2.5182,2.4386,2.3712,2.3168,2.2407,2.2133,2.221,2.2617,2.3715,2.4864,2.4876,2.5868,2.6976,2.6976,2.726,2.743,2.6572,2.6378,2.6243,2.5734,2.6272,2.6794,2.6535,2.6949,2.7363,2.7363,2.758,2.7551,2.6963,2.7115,2.6957,2.6126,2.6213,2.6048,2.5136,2.5016,2.5016,2.5016,2.5016,2.5285,2.5959,2.6004,2.6108,2.6378,2.6767,2.7215,2.7754,2.8158,2.8577,2.8981,2.8577,2.8577,2.8996,2.9235,2.9564,2.9953,3.0223,3.0208,2.9968,3.0238,3.0058,2.9609,2.9849,2.9804,2.9579,2.9579,2.9579,2.9609,2.9864,2.9466,2.8699,3.3487,3.3021,3.2796,3.338,3.3006,3.2811,3.341,3.3499,3.3499,3.3499,3.3544,3.3559,3.3499,3.3544,3.3559,3.3499,3.3544,3.3604,3.3664,3.3679,3.3649,3.3589,3.2961,3.2033,3.0791,3.0597,3.0223,2.9669,2.9609,2.9579,2.9579,2.9579,2.9265,2.8712,2.931,2.8897,2.7741,2.904,2.9208,2.8579,2.9332,2.922,2.8689,2.8475,2.7703,2.6562,2.5697,2.5023,2.4358,2.3441,2.3153,2.3173,2.3262,2.4252,2.537,2.5431,2.6484,2.7614,2.7673,2.7658,2.773,2.779,2.7805,2.741,2.6078,2.6707,2.7445,2.6797,2.7156,2.764,2.77,2.8173,2.8412,2.7895,2.8233,2.8173,2.6946,2.723,2.7096,2.5839,2.5642,2.5595,2.5595,2.5607,2.5875,2.6534,2.6579,2.6882,2.7545,2.7685,2.8233,2.946,2.9549,2.9609,2.9669,2.9669,2.9669,2.9669,3.0238,3.0537,3.0612,3.124,3.1195,3.0627,3.1255,3.0851,2.9804,3.0357,3.0268,2.9759,2.9759,2.9759,2.9819,3.0387,3.0129,2.955,3.3516,3.338,3.332,3.3469,3.338,3.3335,3.3469,3.3499,3.3499,3.3499,3.3948,3.4068,3.3559,3.3948,3.4053,3.3544,3.3963,3.4502,3.504,3.507,3.4831,3.4292,3.3634,3.314,3.2856,3.1315,3.0432,3.0298,2.9819,2.9579,2.9579,2.9579,2.9505,2.937,2.952,2.9436,2.9139,2.9465,2.951,2.9387,2.951,2.949,2.9385,2.9342,2.8842,2.8127,2.781,2.6888,2.5585,2.4269,2.3803,2.3715,2.3305,2.4079,2.5175,2.5204,2.6204,2.748,2.8001,2.8248,2.8502,2.9026,2.9146,2.8801,2.7455,2.7415,2.758,2.738,2.752,2.779,2.8278,2.8502,2.8712,2.9086,2.8846,2.8502,2.8203,2.7814,2.7275,2.6467,2.5844,2.5531,2.5531,2.5464,2.5767,2.6451,2.6518,2.6836,2.756,2.8083,2.8517,2.8801,2.931,2.9819,3.0298,3.0298,3.0298,3.0313,3.0432,3.0791,3.1315,3.1407,3.1392,3.1315,3.1407,3.1317,3.112,3.1255,3.124,3.1106,3.1106,3.1106,3.112,3.1255,3.1185,3.0837,3.4382,3.4188,3.4068,3.4397,3.4188,3.4068,3.4412,3.4457,3.4457,3.4457,3.4756,3.4831,3.4487,3.4756,3.4831,3.4487,3.4771,3.5115,3.5489,3.5504,3.534,3.4981,3.4322,3.3963,3.3963,3.2632,3.1779,3.1465,3.0821,3.0507,3.0507,3.0507,3.0342,3.0028,3.0357,3.0328,3.0043,3.0372,3.0507,3.0507,3.0507,3.0313,2.9988,2.9965,2.9603,2.9024,2.8469,2.7633,2.6476,2.4921,2.4683,2.4869,2.4141,2.4664,2.5532,2.5968,2.6898,2.7824,2.8225,2.8682,2.9039,2.9024,2.9277,2.94,2.8697,2.8532,2.8532,2.8532,2.8532,2.8637,2.8996,2.931,2.952,2.9579,2.9549,2.9295,2.8682,2.8293,2.7814,2.7141,2.6126,2.5363,2.4986,2.5242,2.5563,2.596,2.6623,2.7248,2.7968,2.8955,2.9654,2.9983,3.0328,3.0672,3.0986,3.1001,3.1001,3.1001,3.1001,3.0936,3.097,3.1351,3.1278,3.097,3.1351,3.1482,3.1482,3.1482,3.1482,3.1482,3.1482,3.1482,3.1482,3.1482,3.1482,3.1278,3.5385,3.504,3.4831,3.54,3.504,3.4846,3.5415,3.5504,3.5504,3.5504,3.5504,3.5504,3.5504,3.5504,3.5504,3.5504,3.5504,3.5504,3.5504,3.5504,3.5504,3.5504,3.4846,3.4532,3.4651,3.3888,3.317,3.2512,3.1958,3.1586,3.1482,3.1482,3.1225,3.0717,3.1228,3.121,3.0717,3.1228,3.1482,3.1482,3.1482,3.1195,3.0675,3.0558,3.0162,2.964,2.9011,2.8334,2.7515,2.5766,2.574,2.6264,2.5333,2.5586,2.6422,2.7166,2.7891,2.8512,2.8613,2.9166,2.958,2.8984,2.9381,2.9939,3.0058,2.9819,2.9579,2.9579,2.9579,2.9609,2.9714,3.0163,3.0372,2.9983,3.0253,3.0133,2.9071,2.8742,2.8382,2.7814,2.6403,2.5142,2.4286,2.4789,2.5269,2.555,2.6735,2.7765,2.855,2.9785,3.0761,3.1345,3.1422,3.1482,3.1482,3.1482,3.1482,3.1482,3.1482,3.1161,3.0524,3.1219,3.1161,3.0524,3.1219,3.1409,3.1278,3.1409,3.1409,3.1278,3.1467,3.1482,3.1467,3.1351,3.1278,3.1029,3.5489,3.5429,3.5385,3.5489,3.5429,3.54,3.5489,3.5504,3.5504,3.5504,3.5504,3.5504,3.5504,3.5504,3.5504,3.5504,3.5504,3.5504,3.5504,3.5504,3.5504,3.5504,3.4846,3.4756,3.5355,3.4143,3.317,3.2512,3.2422,3.2093,3.1482,3.1482,3.1422,3.1405,3.1437,3.1422,3.1405,3.1437,3.1482,3.1482,3.1482,3.1422,3.1347,3.1364,3.0932,3.0406,3.0906,3.0528,2.9547,2.735,2.7189,2.7701,2.6352,2.6835,2.7905,2.8041,2.8584,2.9318,2.9865,3.0206,3.0466,3.0934,3.1155,3.142,3.1988,3.0806,2.9579,2.9579,2.9579,2.9744,3.0283,3.0447,3.0672,3.118,3.0836,3.0447,3.0268,2.9295,2.8562,2.8472,2.6648,2.4871,2.3416,2.3831,2.4745,2.6185,2.6854,2.7882,2.9387,3.0108,3.0552,3.0642,3.1225,3.1482,3.1482,3.1482,3.1482,3.1482,3.1482,3.1409,3.1351,3.1467,3.1409,3.1351,3.1467,3.1087,3.0524,3.1219,3.1087,3.0524,3.1219,3.1482,3.1409,3.0718,3.045,3.0208,3.5504,3.5504,3.5504,3.5504,3.5504,3.5504,3.5504,3.5504,3.5504,3.5504,3.5504,3.5504,3.5504,3.5504,3.5504,3.5504,3.5504,3.5504,3.5504,3.5504,3.5504,3.5504,3.522,3.519,3.5489,3.4921,3.4292,3.3604,3.2871,3.2362,3.2078,3.1704,3.1482,3.1482,3.1482,3.1482,3.1482,3.1482,3.1482,3.1482,3.1482,3.1482,3.1482,3.1482,3.1345,3.1063,3.0852,3.0896,3.0674,2.8761,2.8664,2.9177,2.8036,2.8146,2.8726,2.9233,2.9597,2.9981,3.0661,3.1204,3.1573,3.1396,3.196,3.2617,3.2527,3.2123,3.1659,3.13,3.0926,3.0746,3.1031,3.1076,3.118,3.1422,3.1228,3.0941,3.0552,3.0013,2.9357,2.8576,2.6635,2.5422,2.5434,2.4983,2.5315,2.681,2.7877,2.8756,2.943,3.0476,3.1076,3.1076,3.1375,3.1482,3.1482,3.1482,3.1482,3.1482,3.1482,3.1278,3.0837,3.1278,3.1471,3.132,3.1441,3.1485,3.1544,3.1499,3.1278,3.1029,3.1351,3.1219,3.0777,3.045,3.0329,3.0072]}]]